GFSSW_sfc_dewp_000.txt.gz
Dewpoint
53 53 53 53 53 53 52 53 54 56 58 60 61 61 62 62 61 56 52 51 54 57 57 49 46 46 47 44 49 49 42 40 38 37 36 37 35 34 34 35 36 36 34 36 43
54 53 53 53 53 53 52 52 54 54 56 58 59 60 60 61 57 54 57 59 59 58 52 49 47 48 45 47 46 48 44 42 41 40 38 38 35 34 35 36 37 37 39 40 50
55 54 54 54 53 53 53 53 53 54 56 58 58 59 61 60 52 51 59 61 60 58 54 54 52 48 45 46 47 48 45 43 42 41 40 39 37 35 35 35 36 36 38 38 46
56 55 54 54 53 52 52 52 53 54 55 56 57 58 60 57 42 50 56 56 60 58 54 52 50 46 44 44 45 44 47 46 46 45 44 42 38 37 36 35 37 38 40 40 39
57 56 54 54 54 53 53 52 52 53 54 55 56 58 54 49 48 50 51 53 51 52 53 52 49 46 42 42 44 44 43 46 47 46 45 44 42 39 38 38 39 39 39 40 40
58 56 55 54 54 54 54 53 52 53 54 54 56 57 50 41 46 45 49 47 49 51 51 51 50 48 45 43 42 43 44 45 44 43 44 43 42 39 38 39 39 40 40 39 40
59 58 57 56 54 54 54 55 55 54 54 54 54 53 49 43 45 45 44 45 44 45 49 51 51 49 47 44 44 43 41 42 42 45 42 42 41 40 38 39 39 39 39 39 39
59 59 58 57 56 56 55 56 54 55 54 54 54 51 43 47 47 45 45 43 41 42 42 42 44 48 46 46 43 41 41 39 41 43 44 42 39 40 39 38 38 38 39 39 37
59 59 58 57 56 56 56 56 54 54 54 54 50 47 40 48 45 45 45 42 40 40 41 40 42 42 41 42 40 39 35 36 38 43 43 42 39 40 39 38 38 38 38 37 38
58 58 58 57 57 57 56 55 54 54 52 52 50 45 44 40 43 44 44 43 39 40 39 41 40 38 39 39 32 33 34 34 34 41 43 41 41 41 39 38 38 38 36 36 39
58 57 58 57 56 56 53 49 43 43 48 40 40 40 36 43 44 44 43 41 41 38 35 37 37 33 34 37 37 37 36 33 35 37 39 39 40 41 42 38 38 37 34 36 39
56 57 57 57 56 56 51 44 42 42 39 44 43 42 42 43 39 42 42 39 39 36 36 35 33 34 36 36 36 36 34 34 35 36 37 39 40 41 40 39 38 37 34 38 40
56 57 57 57 56 54 49 47 48 45 39 40 43 42 41 42 39 41 40 39 36 34 33 32 31 33 34 35 34 34 33 32 33 35 35 33 33 39 41 39 38 38 34 39 40
56 57 57 56 51 49 48 49 48 48 33 33 38 42 44 43 40 42 40 39 37 34 34 33 34 33 32 33 33 31 34 34 34 35 31 40 32 35 37 38 37 37 35 39 40
55 56 56 53 46 47 46 50 49 46 9 32 38 42 43 40 40 40 42 39 36 35 35 31 33 33 31 31 32 31 32 31 33 33 33 32 33 36 35 36 36 36 35 39 40
56 56 55 50 49 49 50 50 47 29 15 34 38 38 39 40 39 39 40 41 40 36 36 32 35 34 32 32 31 35 33 32 33 33 28 29 33 33 35 33 35 34 35 39 40
54 56 53 49 46 51 49 44 30 22 31 33 35 38 36 36 37 37 38 38 35 31 31 35 35 35 38 34 34 32 30 27 24 24 23 29 32 30 34 36 33 33 36 38 39
53 55 51 48 52 50 47 37 22 26 31 36 35 36 33 34 36 35 36 34 37 36 33 28 26 34 36 33 31 31 30 26 17 20 22 34 29 33 37 36 36 37 36 38 40
52 53 49 50 51 48 40 30 24 30 35 34 34 33 33 35 33 35 35 33 31 37 30 29 28 35 35 34 32 31 28 30 28 29 27 31 35 38 39 33 33 35 37 38 40
49 48 47 51 49 45 37 29 31 37 38 37 33 34 31 31 33 32 32 32 33 35 34 29 23 33 33 36 35 33 32 27 28 22 21 28 31 32 34 28 34 35 36 38 41
48 42 48 50 49 42 33 30 34 40 39 37 36 36 33 29 32 30 30 32 34 32 35 33 31 31 35 33 32 33 31 30 27 29 28 28 30 34 33 30 34 35 36 38 40
46 38 49 50 40 39 36 35 37 38 41 39 39 38 35 31 31 29 29 27 33 33 33 34 34 29 29 33 36 32 30 29 25 23 30 32 27 29 34 31 34 36 36 38 40
44 44 50 48 35 35 38 36 37 39 39 38 38 38 37 32 29 29 29 29 33 33 32 36 34 28 30 33 36 36 31 32 29 33 33 29 28 31 28 31 34 35 36 38 39
45 39 44 45 43 37 35 36 36 40 38 39 40 39 38 35 32 29 30 33 33 33 40 38 36 33 27 33 35 33 35 33 35 29 29 30 32 33 32 28 32 35 36 38 39
46 41 42 36 39 38 37 38 35 36 40 41 38 39 38 34 31 31 31 28 35 40 40 37 32 33 34 35 35 36 36 35 36 34 29 28 30 31 33 28 31 35 37 38 38
44 43 43 38 39 40 38 38 37 38 40 39 38 38 37 36 29 27 30 32 32 38 38 38 32 34 33 36 36 37 38 38 37 36 36 36 36 30 30 31 34 36 37 37 38
48 46 43 40 38 38 38 37 38 39 40 40 40 39 38 38 38 39 38 36 35 38 35 35 34 33 33 39 37 36 36 38 36 36 35 34 34 32 30 30 34 37 37 37 38

GFSSW_sfc_dewp_003.txt.gz
Dewpoint
56 54 54 54 54 54 54 54 55 55 58 60 62 62 62 62 61 57 53 52 54 57 56 49 47 49 47 46 48 47 42 39 38 37 36 37 36 36 35 33 36 36 36 37 41
56 55 54 54 54 54 54 54 54 55 57 59 59 60 61 62 58 55 56 60 59 59 52 49 46 49 46 47 46 47 43 41 41 39 37 38 37 36 33 35 36 36 38 45 53
58 56 55 54 54 54 54 54 54 55 56 58 58 60 60 60 52 51 59 61 61 58 53 53 52 48 45 46 46 47 44 44 43 42 40 39 37 37 36 34 35 35 36 42 50
59 57 56 55 53 54 54 54 55 55 56 56 57 58 61 57 42 49 56 56 59 57 54 52 50 44 43 44 45 43 46 45 46 45 45 43 41 37 35 34 36 36 38 38 46
59 58 57 55 53 54 54 54 54 54 54 56 57 58 55 50 48 50 54 55 54 56 54 52 48 45 41 42 43 43 44 44 46 47 46 46 44 42 39 38 38 37 38 39 39
59 59 58 56 55 55 54 54 54 54 55 55 57 56 49 40 46 45 45 48 49 50 52 52 49 48 45 43 42 42 42 43 45 44 44 44 44 42 40 39 38 38 38 38 38
58 59 59 58 56 55 55 55 55 55 54 55 56 52 48 42 45 45 44 45 45 50 49 50 51 49 47 44 44 43 40 41 41 42 43 43 41 41 41 40 37 37 38 39 39
59 59 59 58 57 56 56 55 56 55 55 54 55 51 43 47 47 46 45 43 43 43 42 41 47 48 46 45 42 40 39 36 38 41 42 43 37 41 42 40 38 37 38 38 39
58 58 58 58 57 57 57 56 55 54 54 54 49 46 40 47 47 45 45 41 40 40 42 40 42 41 41 41 38 39 32 34 37 40 42 42 38 40 41 40 37 37 37 38 38
57 57 57 58 57 57 57 55 54 53 52 51 49 44 44 40 44 44 45 44 40 40 39 40 41 39 40 39 30 32 34 35 34 38 41 38 37 40 41 39 38 38 38 38 37
56 56 57 57 57 57 54 48 43 42 48 41 41 40 38 43 44 44 43 42 40 39 35 37 37 35 35 36 37 36 35 34 35 37 36 35 35 36 41 41 41 38 38 37 35
55 57 56 57 57 56 50 43 42 41 38 44 44 42 42 43 40 42 42 39 39 36 36 35 32 35 35 34 35 35 34 34 34 35 35 34 34 37 37 38 40 40 39 37 37
54 57 56 57 56 53 48 46 47 45 37 39 43 42 42 42 39 40 41 39 37 35 35 32 31 34 33 34 34 34 32 31 30 33 33 32 29 30 33 38 40 40 39 38 37
54 54 55 57 52 50 47 48 47 46 29 30 39 41 42 42 39 42 41 39 37 35 34 34 33 32 32 31 33 31 34 33 32 31 27 35 25 31 34 35 38 39 38 36 38
52 54 55 55 49 47 46 48 48 41 10 32 38 42 43 38 40 40 41 39 35 35 34 31 33 32 30 31 32 30 33 32 34 33 31 30 29 29 31 30 34 38 37 36 38
51 53 56 51 49 48 49 49 46 27 14 33 39 38 40 39 38 40 40 41 40 35 35 32 35 35 33 32 31 33 32 31 31 31 25 26 28 24 27 34 34 36 37 36 39
50 52 53 50 46 50 49 45 30 23 32 33 33 37 34 36 36 37 38 37 35 31 30 36 33 35 36 32 33 30 29 26 24 24 21 26 26 25 30 34 35 34 34 36 39
50 51 53 50 51 49 46 37 20 25 30 35 34 36 32 34 35 36 36 34 37 34 32 27 24 34 35 32 30 31 28 23 17 19 19 22 21 26 33 31 31 35 34 38 39
49 50 49 51 50 47 40 26 24 26 34 33 34 31 32 34 33 35 35 30 32 35 29 25 25 34 34 32 31 33 30 29 23 23 26 26 31 36 38 38 38 36 35 37 38
48 44 48 51 49 46 36 26 27 35 36 34 30 31 28 31 32 32 29 32 32 33 34 32 26 32 34 34 33 30 31 28 29 20 19 22 28 28 33 32 31 34 33 36 39
45 39 48 50 48 42 32 27 32 38 38 36 33 32 30 30 31 27 27 31 34 33 35 35 29 28 34 32 29 31 29 29 26 25 18 20 20 33 32 32 32 33 36 37 40
42 35 50 49 38 39 34 33 36 38 40 39 37 35 33 32 31 29 29 30 34 35 34 35 33 27 27 32 31 31 28 28 26 18 21 27 25 36 34 30 33 35 38 41 43
40 43 49 45 33 34 36 34 37 39 40 39 37 37 35 33 30 31 29 30 36 34 33 35 34 25 30 33 36 35 31 28 27 28 22 18 16 35 33 32 37 37 38 41 42
43 36 42 44 42 34 32 34 34 39 37 38 37 37 36 35 33 30 30 32 34 34 38 38 35 31 24 31 34 31 34 30 27 25 25 27 28 29 32 33 33 35 37 39 41
43 39 38 35 38 35 35 36 34 35 39 38 38 38 37 33 33 31 32 31 35 38 39 38 32 33 34 33 35 35 32 31 29 27 24 25 29 30 31 32 32 35 37 38 40
42 41 40 36 38 35 36 35 37 35 39 38 38 37 38 36 32 26 30 30 30 39 37 40 33 33 32 35 34 32 34 35 30 31 29 33 31 34 34 32 32 35 37 37 39
44 47 41 37 38 36 35 36 37 39 41 39 39 38 37 38 37 36 38 38 36 38 38 35 33 33 29 36 34 30 33 35 34 35 34 33 34 35 34 29 33 35 36 37 38

GFSSW_sfc_dewp_006.txt.gz
Dewpoint
59 57 55 54 54 54 54 54 54 55 56 59 60 62 62 62 61 57 52 53 54 57 56 49 48 49 47 46 49 46 41 39 38 37 36 37 35 36 34 31 35 35 35 38 41
60 58 56 55 54 54 54 54 54 54 56 58 60 61 61 61 58 55 56 60 59 58 52 48 46 48 45 46 45 47 42 40 41 39 37 38 38 37 34 35 35 36 37 44 51
59 59 57 56 54 52 54 54 54 55 56 57 58 60 60 60 53 51 58 61 61 59 53 52 51 47 44 45 45 45 42 43 43 42 42 41 38 38 37 37 36 35 36 40 52
58 59 58 57 55 53 53 54 54 55 56 57 58 58 60 57 43 49 55 56 60 58 54 52 48 43 42 42 45 42 46 46 45 46 45 43 43 39 37 37 36 37 37 38 44
58 58 59 57 56 53 53 54 54 54 54 56 57 58 56 50 49 50 55 53 55 56 53 50 47 44 40 42 42 42 44 45 45 45 46 46 45 45 43 42 41 41 38 38 39
57 58 59 59 57 56 54 54 54 54 55 55 57 55 49 41 44 45 45 47 51 55 54 52 49 48 44 43 41 42 43 42 43 44 44 43 43 44 43 43 40 40 39 38 39
58 58 59 59 57 56 55 54 54 54 55 54 55 52 47 43 45 45 44 44 45 49 50 52 51 48 47 43 44 43 40 41 41 41 42 44 41 41 42 43 41 40 39 39 39
56 58 57 58 58 57 56 55 55 56 56 54 55 50 43 46 47 46 44 42 43 46 44 49 50 48 45 44 41 39 39 35 37 40 41 42 36 38 39 39 41 42 40 38 38
53 55 57 57 58 57 57 56 55 54 54 54 48 44 39 46 46 45 44 40 40 41 42 41 41 40 40 38 35 37 31 33 34 39 39 41 36 40 40 39 39 39 38 38 38
51 52 55 57 57 57 57 55 54 53 52 49 47 42 42 40 44 44 45 42 39 40 39 39 39 37 38 35 26 29 32 33 33 36 38 39 39 40 39 41 40 40 39 39 38
50 52 53 56 56 57 54 50 45 45 47 40 41 39 39 43 44 44 43 41 40 38 36 37 36 34 34 35 34 34 34 34 35 36 36 35 34 35 36 38 40 40 41 40 39
48 50 54 54 57 57 50 44 42 40 38 44 44 43 43 43 40 42 43 39 38 34 35 35 32 34 35 36 36 36 34 33 34 34 34 32 31 32 34 36 39 40 40 41 41
48 49 51 53 57 53 47 44 46 44 35 37 42 42 42 42 39 40 41 39 36 35 35 31 31 34 34 34 33 32 32 31 30 31 30 29 26 26 28 30 32 35 36 39 41
48 48 50 53 53 50 46 48 47 41 23 28 39 41 42 41 38 42 41 39 37 34 35 34 35 33 32 32 33 30 33 33 32 30 25 29 20 23 25 30 30 31 33 40 40
47 48 50 52 51 47 47 47 47 36 10 32 38 43 43 37 38 40 42 39 35 34 33 29 32 32 31 31 32 29 33 33 33 32 29 29 27 24 25 25 29 34 38 39 39
48 48 50 49 51 49 49 48 44 22 10 32 38 39 39 38 39 40 39 40 39 35 35 31 35 34 32 32 32 33 31 31 31 30 24 25 27 22 21 22 31 32 35 38 38
48 49 50 48 47 50 49 43 28 17 31 33 33 37 36 36 36 37 36 36 34 31 30 35 34 35 36 31 33 32 31 24 24 23 20 24 24 22 24 26 29 31 33 34 37
49 49 50 48 52 50 46 34 18 24 28 34 32 34 32 35 34 36 36 34 37 35 32 26 21 33 34 32 30 30 28 23 15 20 18 22 21 24 28 27 27 27 35 35 37
50 48 48 48 52 49 38 28 23 25 34 33 32 30 31 33 33 35 35 32 32 37 31 28 24 33 34 33 32 34 29 29 24 22 23 23 25 28 33 34 34 32 30 34 38
47 45 45 49 52 46 35 28 26 33 35 34 29 31 28 31 31 33 31 30 33 35 34 31 27 30 33 34 33 34 34 28 28 18 15 19 20 23 26 31 32 31 28 35 38
45 40 46 49 50 41 32 29 29 38 36 33 32 31 29 28 32 31 26 28 33 32 34 34 31 27 35 32 29 32 31 31 28 26 15 15 15 27 29 32 32 32 33 35 38
42 35 49 50 37 38 31 29 34 39 40 38 35 33 31 31 31 27 27 29 34 35 32 34 34 27 27 31 31 29 28 28 24 17 22 18 16 30 37 35 33 35 35 37 40
38 42 49 46 33 35 34 33 36 39 39 38 36 36 36 32 28 30 30 31 35 35 33 34 33 26 26 31 34 33 30 28 27 28 21 17 15 20 28 33 34 36 39 42 42
40 36 42 43 41 34 32 32 32 38 39 39 37 37 36 34 33 30 31 32 34 35 38 36 35 30 23 29 33 31 32 31 28 26 23 22 21 21 29 32 35 39 40 42 42
43 37 38 32 37 34 34 33 32 34 38 39 38 37 37 36 33 32 32 31 34 36 38 38 31 33 33 31 34 34 33 32 30 28 24 21 21 26 29 33 36 39 41 41 42
40 39 39 36 36 32 33 35 34 35 38 36 36 36 38 37 34 28 33 33 34 35 36 39 31 33 31 35 34 33 35 35 34 30 27 25 25 29 35 34 36 35 38 40 41
42 44 39 37 36 33 33 34 34 38 37 39 39 39 38 38 39 39 37 37 37 36 37 35 33 32 28 35 35 29 32 32 33 34 29 27 28 29 34 35 33 34 37 39 41

GFSSW_sfc_dewp_009.txt.gz
Dewpoint
59 59 59 57 55 54 53 52 54 54 55 56 58 60 62 62 61 57 52 53 55 58 56 50 48 49 48 47 49 47 43 40 38 37 36 37 36 38 36 33 36 36 35 39 47
58 58 59 58 56 54 53 52 53 54 55 56 58 60 61 61 57 54 56 59 59 58 52 48 46 47 45 46 46 47 44 42 42 39 38 38 38 38 37 37 37 38 38 41 50
58 58 58 59 57 55 53 53 54 55 56 56 58 58 60 60 54 52 59 61 61 60 53 52 50 46 44 47 45 46 42 43 43 42 42 42 41 40 38 39 39 39 37 38 47
59 58 58 59 58 56 53 52 54 54 55 56 57 58 59 57 43 49 57 57 61 57 54 52 48 43 43 43 45 44 45 46 45 46 45 44 44 44 40 41 41 38 39 39 39
56 58 58 58 59 57 54 52 54 54 55 54 56 57 56 51 50 50 52 52 56 56 53 50 47 43 41 42 43 44 44 45 45 45 45 46 45 45 45 44 44 45 45 42 40
53 56 57 58 58 58 56 54 54 54 55 54 56 55 49 44 44 45 45 47 55 56 53 51 49 48 44 43 42 42 43 43 43 43 44 43 43 44 43 46 46 44 42 41 40
51 54 55 57 58 58 55 55 54 54 55 54 55 51 47 43 45 45 45 43 46 53 53 53 51 48 47 44 45 43 41 41 41 41 41 43 42 42 43 44 43 43 43 43 42
49 51 54 55 57 58 57 55 54 55 55 54 55 49 42 46 48 46 44 42 43 48 48 52 51 49 47 45 40 40 40 36 37 40 41 41 33 39 40 41 42 42 42 42 42
48 48 52 54 55 57 57 56 55 55 54 55 48 43 39 45 46 46 43 40 41 42 43 43 43 40 43 39 36 37 31 35 34 38 38 40 37 38 40 40 40 40 41 41 41
46 47 50 51 54 57 57 56 55 53 50 48 48 43 42 39 44 44 46 41 39 40 40 40 40 38 38 37 27 29 33 33 32 35 37 36 36 37 40 39 39 39 40 41 40
46 48 49 50 54 56 56 52 46 45 47 40 40 40 40 43 44 44 44 41 40 39 37 38 37 33 33 35 33 35 34 33 34 35 35 33 33 33 35 36 36 37 37 39 41
46 48 48 49 52 55 53 46 42 41 38 44 44 43 43 43 40 42 43 39 38 35 36 36 32 34 35 35 35 35 33 32 32 34 34 32 30 31 32 32 34 34 37 39 41
47 48 48 48 50 53 49 45 45 41 34 36 42 42 42 42 39 41 41 40 37 35 35 32 32 34 34 34 34 31 31 29 28 31 31 29 25 22 21 24 30 33 34 35 36
47 46 46 48 47 51 47 48 46 39 23 27 37 41 42 41 37 42 42 39 37 34 34 33 34 34 33 33 33 29 33 33 32 31 25 28 20 20 24 24 25 28 30 32 35
46 46 47 48 47 48 49 48 43 36 8 31 38 43 42 37 37 40 42 38 35 35 34 30 32 34 32 31 33 30 32 31 32 32 31 28 27 23 25 24 26 28 32 33 35
45 47 48 46 48 48 51 48 40 23 10 32 38 39 37 38 39 40 39 40 38 35 35 32 35 33 32 33 33 33 33 31 31 31 25 24 26 22 20 21 23 27 28 34 37
47 48 46 47 42 51 51 44 29 16 30 33 34 39 35 35 36 37 36 36 34 31 30 32 33 35 35 31 33 32 33 25 23 24 20 24 25 22 23 24 24 24 29 32 35
47 48 47 47 49 49 47 36 23 23 28 33 32 36 33 33 34 36 34 33 36 35 30 23 21 31 35 32 30 31 30 25 17 17 19 24 23 23 27 27 27 28 27 29 35
49 46 47 48 49 47 40 29 23 26 33 31 32 31 32 32 32 33 34 33 34 35 31 27 25 33 34 34 32 33 29 29 27 27 24 22 24 25 26 27 32 33 34 33 32
45 45 45 49 49 45 35 30 26 35 34 33 30 30 28 30 32 33 33 32 33 35 35 31 26 30 33 34 34 34 34 27 29 20 17 18 20 22 20 24 33 33 34 35 34
43 40 45 49 48 40 32 28 30 37 35 32 31 31 29 30 31 32 28 28 33 34 35 34 31 28 34 32 28 32 31 32 31 29 20 14 12 20 20 30 32 34 35 37 37
40 35 47 49 36 34 33 29 37 37 39 38 34 32 30 30 31 29 27 27 33 35 34 33 32 27 26 31 32 30 28 28 25 21 25 20 18 21 30 36 33 34 36 40 42
38 40 47 45 32 34 35 35 37 39 38 37 35 35 34 31 30 30 30 31 35 34 32 34 32 23 23 30 32 32 30 30 29 27 24 19 17 20 22 32 34 36 37 41 42
39 35 40 43 41 34 32 32 33 39 39 38 37 36 35 33 31 30 31 33 34 35 37 36 33 26 22 26 33 31 31 32 31 26 23 22 22 22 23 29 33 33 38 41 42
42 37 37 33 36 34 34 33 33 34 37 38 37 36 34 35 34 33 32 32 35 36 37 36 31 33 32 31 33 33 33 33 31 29 24 21 22 23 24 28 33 35 36 40 41
37 38 38 36 36 32 33 31 32 35 37 36 35 36 37 36 33 31 32 32 32 34 36 38 32 33 31 34 34 31 34 34 32 31 28 26 26 27 28 30 36 40 38 39 42
42 43 41 36 34 32 31 34 34 36 37 38 37 37 37 37 38 38 39 38 37 35 35 36 33 32 27 31 34 31 33 33 34 34 31 28 29 31 31 37 39 38 36 39 43

GFSSW_sfc_dewp_012.txt.gz
Dewpoint
58 59 59 59 59 57 55 54 52 53 54 55 57 59 61 62 61 58 52 51 52 58 56 50 47 46 46 45 48 48 37 31 32 32 30 35 34 35 35 33 35 35 36 39 46
57 59 58 59 59 57 56 54 53 54 55 55 57 58 61 61 55 52 53 58 59 59 52 47 44 44 41 43 44 42 37 33 33 35 34 34 36 35 36 35 35 37 38 39 45
55 56 58 58 59 58 56 55 53 55 55 56 56 58 59 59 53 51 57 60 61 59 52 49 46 44 41 43 42 42 38 35 40 40 39 37 39 39 37 36 36 36 37 40 41
51 54 56 58 58 59 57 55 53 54 55 55 56 57 59 57 44 51 57 59 62 57 53 50 45 42 40 40 42 39 40 40 40 43 44 42 42 41 39 36 36 40 40 43 43
48 50 54 56 57 58 58 55 53 55 54 54 55 56 55 50 48 49 51 52 56 57 53 49 45 42 40 39 41 41 38 40 42 44 43 42 41 41 40 41 43 44 44 45 44
46 50 51 55 56 58 58 57 54 55 54 55 55 54 47 45 45 45 45 51 54 56 52 50 48 46 41 39 40 39 41 41 41 40 40 40 39 39 39 40 40 41 41 42 43
45 48 48 50 54 56 57 56 55 55 55 55 55 50 47 40 44 44 44 44 50 54 52 51 49 45 44 41 43 41 39 37 36 37 38 40 38 37 37 37 37 38 38 39 40
42 47 47 48 53 55 57 57 56 55 55 55 54 48 41 46 47 45 44 44 47 49 52 53 51 46 42 43 39 37 37 33 34 37 36 36 30 32 39 38 38 37 36 36 37
45 44 47 48 51 53 56 57 56 56 55 55 47 42 39 45 44 44 43 43 44 43 49 50 44 39 41 35 33 34 27 31 32 35 36 36 33 35 36 39 38 36 37 38 39
44 45 46 48 50 52 54 58 56 54 52 48 47 43 43 39 43 44 43 42 42 42 41 41 41 36 36 35 26 26 30 29 28 31 35 34 33 34 36 36 35 35 37 39 40
45 45 47 49 48 50 52 54 47 46 46 40 40 38 40 43 44 43 41 40 40 41 38 39 38 34 32 33 31 32 31 30 31 34 33 31 30 31 32 32 32 33 34 35 37
46 46 47 47 48 49 50 47 43 43 40 43 42 41 43 42 39 42 42 37 36 34 37 36 34 33 33 33 33 32 31 29 29 31 31 29 28 29 29 29 29 30 31 32 34
46 46 46 47 47 47 46 47 48 44 36 41 42 40 40 41 37 40 40 38 36 35 35 32 31 33 33 33 32 31 31 29 28 29 30 30 27 23 22 23 24 25 27 27 28
45 45 45 46 44 44 45 50 49 45 36 32 39 40 40 41 37 41 40 38 37 33 34 33 33 33 32 31 31 28 29 29 29 29 25 27 20 20 21 22 23 24 26 27 29
45 46 46 46 44 41 48 50 46 44 25 32 37 42 41 35 37 40 41 38 34 34 34 31 33 33 32 31 32 29 31 29 29 29 28 26 28 20 22 22 23 24 25 25 28
44 46 47 46 45 43 51 49 45 30 23 32 38 39 38 36 37 40 39 38 36 34 34 31 33 32 30 32 32 32 30 30 29 28 26 24 22 20 18 19 20 23 23 25 27
47 48 47 45 40 49 51 43 30 28 29 32 33 36 33 33 36 36 37 36 33 31 32 30 32 32 32 30 32 32 30 26 23 24 20 16 19 20 20 21 22 21 22 25 27
48 49 47 46 47 49 46 35 28 25 27 32 34 32 31 32 35 35 35 34 34 32 30 28 26 31 33 31 27 30 29 23 16 12 14 16 20 17 19 22 24 24 28 33 35
49 47 45 45 48 46 38 31 30 25 31 31 34 31 32 30 31 33 33 31 31 33 31 29 26 31 33 32 32 30 29 29 27 23 24 20 21 21 21 23 23 24 33 34 35
46 43 44 48 47 44 35 34 27 33 32 31 28 28 26 30 29 30 31 31 31 33 31 29 28 28 30 34 34 32 30 28 30 19 16 13 17 17 14 17 22 30 31 31 33
44 39 47 48 45 38 33 32 34 34 33 31 30 29 28 29 29 29 28 29 32 34 33 32 28 28 32 31 27 31 30 33 29 28 19 15 12 13 15 18 17 28 30 31 36
41 34 47 47 35 36 35 31 37 35 39 35 32 30 29 30 30 29 29 28 30 35 33 32 30 28 28 27 29 27 26 27 27 23 28 24 20 18 19 24 34 29 28 34 39
37 39 47 46 34 36 36 35 38 37 37 35 34 32 31 30 29 29 30 31 33 33 32 33 33 27 29 30 30 29 28 28 32 31 27 23 17 18 19 22 26 30 29 32 38
39 35 39 41 40 34 32 33 35 39 38 37 35 35 32 30 31 30 31 33 32 32 36 35 31 31 24 30 31 33 31 32 33 28 25 25 24 22 22 22 22 23 25 30 35
42 37 38 35 36 33 33 34 34 34 38 37 35 33 32 30 31 30 31 32 33 36 35 34 32 33 31 30 32 33 32 34 32 30 26 24 22 23 24 24 25 28 31 36 37
38 39 39 37 36 32 35 32 32 36 35 34 34 34 34 32 32 31 33 33 31 34 33 36 32 35 31 32 33 33 34 35 35 34 29 28 27 29 30 33 34 36 39 38 38
43 42 41 38 35 32 33 32 32 36 37 38 36 36 36 36 37 37 37 36 36 34 34 36 34 32 28 30 32 32 35 35 36 36 32 29 30 30 35 37 38 40 39 39 38

GFSSW_sfc_dewp_015.txt.gz
Dewpoint
54 55 58 59 59 59 58 56 55 53 53 55 55 57 59 61 62 57 49 51 52 58 57 49 46 45 44 43 42 46 38 32 31 27 27 28 29 32 31 30 30 31 32 39 45
50 53 54 57 58 58 58 57 56 54 54 55 56 57 59 61 52 49 53 55 57 58 51 46 42 43 40 41 42 41 35 31 28 27 29 30 33 32 33 32 29 33 35 38 43
47 49 52 55 57 58 58 58 56 55 55 55 56 57 58 59 51 48 59 59 59 58 52 46 43 41 37 39 40 39 35 31 30 37 37 35 32 33 33 34 32 31 34 37 39
46 47 49 52 54 56 58 58 57 55 55 55 55 56 58 57 44 52 57 58 61 56 50 47 44 41 39 37 37 35 35 34 35 37 40 38 36 33 35 35 34 34 36 38 40
45 45 47 49 51 54 56 58 58 54 55 55 54 56 55 52 49 50 53 54 57 56 50 46 43 41 38 37 38 38 37 32 36 38 39 39 38 38 38 39 37 37 39 41 40
45 44 45 48 49 51 55 57 58 55 55 55 54 56 49 46 49 48 47 50 50 54 52 48 45 43 41 39 38 37 38 37 38 38 38 38 37 36 36 37 37 38 38 39 41
45 45 44 46 47 49 52 56 57 56 55 56 55 51 45 43 43 45 47 48 52 53 51 51 49 46 44 41 41 40 38 37 36 36 36 37 36 35 36 35 34 34 35 36 37
45 45 45 45 47 48 51 54 55 57 55 56 55 47 41 45 45 42 44 48 51 52 53 52 49 46 41 42 39 37 36 33 32 34 33 34 30 30 33 35 35 34 33 33 33
44 45 46 45 46 48 50 52 54 57 55 55 48 45 38 47 43 43 42 45 47 48 50 51 50 43 40 36 31 32 28 30 30 32 33 35 33 32 35 34 33 35 34 35 35
45 45 46 46 48 49 50 51 52 56 53 50 46 42 41 39 43 43 42 44 42 44 44 42 39 36 36 33 27 27 29 29 26 27 33 32 31 31 32 33 34 34 33 34 35
45 45 46 46 48 48 49 48 49 48 50 42 41 37 40 42 43 42 41 43 41 40 36 39 37 33 32 32 31 30 28 26 27 28 30 29 28 27 28 29 30 31 31 32 32
45 46 46 46 47 47 47 41 44 46 42 43 39 40 41 41 40 41 40 39 39 38 37 37 35 34 33 32 31 31 29 28 28 28 29 28 27 27 27 27 27 28 28 29 30
45 45 46 46 47 45 42 41 47 48 41 41 40 39 41 41 37 40 39 36 37 36 34 34 32 33 33 32 31 30 29 28 27 28 28 28 26 24 24 26 25 25 27 27 28
44 44 46 46 44 43 41 45 49 49 36 37 39 38 40 40 37 40 39 37 36 32 33 34 33 31 30 31 30 28 28 28 28 28 24 26 20 18 15 17 21 23 24 24 25
43 44 46 46 44 40 43 50 50 45 27 35 37 40 39 35 38 39 40 38 33 32 33 32 31 32 31 30 30 29 30 29 29 28 26 23 24 20 14 13 15 18 24 25 27
43 47 47 45 43 42 44 50 46 32 27 33 37 38 35 33 36 38 39 39 35 31 32 29 32 32 31 31 31 31 29 28 28 27 25 22 20 18 14 10 14 16 20 23 23
45 48 48 47 39 43 49 45 31 30 31 33 31 36 33 31 34 35 36 35 32 31 32 31 30 31 31 30 31 31 28 27 25 26 21 15 16 17 15 15 16 18 20 21 23
48 49 47 45 44 48 44 36 28 28 28 31 34 33 31 31 31 32 33 32 31 30 31 28 29 30 32 30 28 28 28 24 15 13 13 16 15 14 17 16 18 18 21 23 26
48 46 45 45 45 46 40 28 33 27 31 32 32 31 31 31 32 32 30 31 30 31 31 29 27 30 31 31 30 29 29 28 26 22 21 17 16 16 16 16 17 19 22 21 28
46 43 42 46 46 44 37 34 32 31 32 31 28 29 27 28 31 30 29 30 29 30 31 29 28 28 29 32 32 30 29 27 30 20 15 12 12 14 13 15 16 18 20 22 30
45 38 45 46 46 39 33 35 33 33 33 30 28 27 27 27 28 27 28 30 30 31 32 30 28 29 31 30 25 30 30 32 27 28 22 17 15 16 16 18 19 18 21 28 29
40 34 46 45 38 38 36 37 36 34 37 33 31 28 27 27 27 27 27 27 30 32 30 30 29 29 28 27 27 27 28 26 27 24 27 26 22 21 19 20 21 22 29 25 26
39 38 46 46 34 33 37 36 34 36 36 34 31 30 30 28 27 28 28 30 30 32 30 31 31 27 30 29 27 27 27 27 30 31 29 26 21 17 19 20 19 21 24 25 27
40 35 39 42 41 34 37 34 35 39 36 35 33 31 30 29 30 29 29 32 31 32 38 35 30 32 24 31 30 33 31 31 32 30 26 25 25 24 24 25 28 25 24 23 26
42 37 38 36 35 36 36 34 34 32 36 34 32 30 28 27 28 28 30 32 33 36 33 32 33 33 30 29 32 32 31 31 33 33 30 27 26 25 27 28 33 32 30 28 31
38 39 39 35 33 31 33 32 32 34 33 32 31 32 31 29 30 29 31 31 30 33 32 35 33 34 31 31 31 32 31 33 37 36 34 35 33 34 32 35 34 36 37 39 38
44 42 41 35 32 29 31 31 32 34 37 36 34 34 33 34 36 36 35 34 34 33 33 34 34 32 28 28 30 31 36 37 37 37 36 33 35 34 34 37 38 38 39 40 40

GFSSW_sfc_dewp_018.txt.gz
Dewpoint
49 49 51 54 56 57 58 59 58 57 55 54 55 56 57 59 61 58 54 51 55 58 57 53 48 45 44 44 43 44 39 35 33 31 30 29 28 31 32 30 30 31 31 43 52
47 48 48 50 53 55 57 58 59 57 56 54 55 56 57 60 55 52 56 56 55 59 50 48 44 43 42 42 43 41 40 38 36 31 30 33 29 31 32 31 30 30 34 42 45
47 47 47 47 50 53 55 57 59 58 56 55 55 57 58 58 52 45 56 57 58 57 52 48 43 41 41 40 40 40 37 35 32 30 35 38 37 34 32 34 34 30 33 38 39
47 47 46 46 48 49 52 56 57 58 57 55 55 56 58 55 42 53 58 60 59 56 52 47 43 41 39 36 37 36 36 36 36 35 37 38 38 36 34 33 35 35 36 37 39
47 47 46 46 46 47 50 53 56 58 58 55 55 56 54 51 49 54 57 58 56 56 51 46 42 40 38 36 35 35 35 34 34 36 36 38 38 38 38 38 37 37 37 38 40
48 47 46 46 46 46 47 51 54 57 58 55 55 56 50 45 50 48 48 50 52 55 53 48 43 43 41 37 36 38 38 37 37 36 37 37 36 37 36 37 37 38 38 38 39
48 47 45 46 47 46 47 49 53 56 58 56 56 52 45 43 45 48 47 47 49 54 51 51 49 46 44 42 42 39 38 38 37 37 36 37 35 36 37 37 35 34 35 37 37
47 47 47 46 46 46 47 49 52 53 57 56 56 49 41 44 45 42 45 47 49 52 53 53 51 48 43 42 39 38 38 35 33 35 35 35 31 33 34 35 35 35 34 33 35
47 47 46 46 46 46 48 50 51 51 56 56 50 47 39 47 43 43 41 45 48 49 54 52 50 45 41 37 34 34 30 31 32 34 33 33 32 34 34 34 34 35 34 34 33
46 46 46 46 46 47 48 49 50 50 56 53 47 43 41 40 42 42 41 44 47 49 48 48 44 38 38 35 29 29 29 29 28 31 32 32 32 32 32 31 32 34 35 35 35
46 46 46 47 47 47 47 46 46 47 49 43 41 38 37 42 43 42 41 44 42 46 39 41 37 35 34 35 33 31 30 28 28 28 28 27 27 28 29 28 28 30 31 32 33
46 46 46 46 46 47 46 40 40 45 42 47 41 40 41 42 40 41 42 41 40 38 38 37 34 35 34 32 32 31 30 29 29 28 28 28 27 28 28 28 28 27 27 29 30
45 45 44 46 47 46 42 41 47 46 42 42 41 40 40 41 39 40 40 39 38 36 37 33 33 34 34 33 31 31 30 29 27 29 28 27 25 25 26 28 28 28 27 27 28
45 43 45 46 43 43 40 46 48 47 35 38 40 39 40 41 37 40 40 38 38 36 37 35 34 31 32 32 31 29 29 29 28 28 24 27 22 22 21 19 24 24 25 25 25
44 43 45 45 43 39 42 49 48 43 26 39 39 41 40 37 39 39 41 37 34 34 35 33 33 33 31 30 30 29 32 29 30 28 26 25 24 21 20 18 15 18 22 25 27
45 47 48 47 45 42 44 48 43 29 25 36 38 37 37 36 37 38 38 40 36 32 34 32 33 33 32 31 31 31 30 29 28 27 19 24 21 17 16 17 15 16 18 20 22
47 49 48 46 42 44 46 43 30 26 34 32 35 35 33 32 35 36 36 36 33 31 32 31 31 32 32 31 33 32 29 23 22 24 18 20 19 16 17 18 17 17 18 19 20
48 49 47 45 45 46 45 34 23 32 30 31 34 34 29 31 34 35 34 33 33 31 31 27 28 30 31 30 30 30 29 24 17 17 19 21 19 17 17 18 17 18 19 20 21
50 46 46 46 47 45 40 27 30 33 30 32 33 30 30 30 31 32 33 31 30 30 30 29 28 31 32 31 31 30 27 28 26 23 19 19 17 17 18 17 18 17 18 20 22
47 44 43 47 47 44 38 31 34 32 32 30 27 28 27 28 29 30 29 30 28 30 31 31 27 29 31 32 32 30 29 27 29 13 15 16 15 16 17 16 17 21 18 21 23
44 39 44 47 48 41 33 33 37 33 33 31 28 27 26 28 29 28 27 29 30 30 30 29 28 29 31 30 28 30 29 30 28 27 20 18 16 21 20 21 20 21 23 27 31
41 34 45 47 37 38 35 37 38 35 38 32 31 28 26 27 27 26 27 28 30 31 29 30 31 26 29 29 30 30 28 27 26 20 25 24 21 24 24 22 23 20 21 23 29
40 39 46 46 33 34 37 37 34 36 36 33 30 31 28 27 27 28 29 29 32 32 30 30 31 23 26 29 28 27 27 27 28 29 26 24 21 22 25 25 26 26 32 32 26
41 35 40 42 41 35 37 34 37 40 35 34 31 31 29 28 30 29 30 33 31 33 39 35 31 27 23 26 31 31 32 30 30 29 26 26 26 27 28 28 32 34 33 32 34
43 37 37 36 35 35 38 37 33 31 36 35 32 30 29 27 28 28 31 32 32 37 34 32 31 30 31 29 30 29 30 30 32 33 30 29 30 31 33 36 37 36 36 35 38
39 39 40 35 34 35 35 34 33 33 34 31 31 30 31 29 32 27 30 30 31 33 32 34 32 34 30 31 31 30 30 31 33 37 36 36 35 37 38 36 35 36 37 37 39
44 43 41 35 32 30 30 32 34 36 37 36 34 34 33 36 37 36 36 35 34 33 32 36 35 32 26 29 30 29 32 36 36 36 37 35 37 39 36 37 37 39 39 39 40

GFSSW_sfc_dewp_021.txt.gz
Dewpoint
48 48 48 48 49 52 56 57 58 59 58 57 55 55 56 57 59 58 52 54 55 60 56 55 50 48 46 43 45 43 38 36 36 34 33 32 32 30 33 30 30 31 34 49 55
48 48 48 47 47 48 52 55 57 57 59 57 55 55 56 58 56 54 56 59 59 58 54 49 47 45 42 42 42 39 39 38 38 35 33 35 37 36 31 31 31 31 41 47 52
48 48 48 47 48 47 47 52 55 56 59 58 56 56 57 57 52 50 59 59 60 58 52 49 48 43 42 42 40 40 38 40 40 36 35 38 37 38 34 32 31 30 32 42 47
49 49 48 49 46 46 45 46 52 55 58 58 56 56 57 54 41 54 58 60 58 56 52 51 47 42 40 39 39 37 38 38 38 38 37 37 39 39 38 34 38 36 36 36 39
49 48 48 48 47 47 45 46 47 53 56 58 56 57 55 51 48 55 58 58 56 55 52 51 46 42 38 37 36 35 36 37 37 37 36 37 37 38 38 39 39 39 39 39 38
47 47 47 48 48 46 47 45 46 51 55 58 57 57 52 45 50 52 53 56 56 55 54 51 45 42 40 39 36 37 38 38 38 38 38 37 36 37 37 38 37 36 36 38 38
47 48 47 47 47 46 46 47 47 50 53 57 57 52 47 44 48 48 48 50 53 54 52 52 49 46 44 41 41 40 38 39 39 39 37 37 36 36 38 38 38 37 35 35 37
48 47 47 46 46 46 47 47 48 50 52 55 56 51 45 47 45 46 47 47 49 52 53 54 51 47 44 42 39 38 38 36 37 37 38 36 32 36 37 37 37 37 37 36 36
47 46 47 46 47 47 47 48 48 50 52 53 53 49 41 48 43 42 42 46 49 53 55 54 53 46 43 38 35 36 31 33 34 34 36 35 33 35 35 34 33 35 36 36 35
46 47 47 46 47 47 47 48 48 48 50 54 51 45 44 41 45 44 43 43 49 51 51 50 48 43 40 36 30 30 31 30 29 31 32 32 32 34 34 32 31 32 35 35 35
46 46 46 46 46 46 46 44 40 44 48 44 42 41 40 43 44 44 42 45 47 47 42 47 40 37 37 36 34 33 30 30 30 30 29 28 28 28 29 29 29 29 31 31 33
46 46 45 44 47 47 45 40 42 43 36 47 43 42 43 43 40 42 42 42 42 41 39 38 36 38 37 36 35 33 30 30 30 30 29 28 27 28 29 29 29 29 29 30 31
44 44 44 46 46 45 42 41 47 43 35 43 46 41 42 43 40 40 42 41 39 38 37 34 33 36 35 34 32 31 30 30 29 29 28 27 25 25 27 28 28 29 29 29 28
43 44 44 44 41 42 40 47 48 44 30 38 41 40 41 42 40 41 42 40 39 37 37 36 34 33 34 33 32 29 30 30 30 27 24 27 22 25 24 22 24 28 28 28 28
46 47 47 47 43 39 43 47 46 41 23 38 40 43 42 40 39 39 42 39 36 37 38 36 34 33 31 32 31 30 32 29 29 27 25 25 22 23 24 21 19 19 23 26 28
47 48 49 48 46 43 42 47 43 28 23 36 39 38 38 38 38 40 39 40 38 35 36 32 33 33 33 32 31 31 29 28 28 26 16 23 22 18 18 18 17 16 17 20 23
48 49 47 47 42 45 46 43 27 21 36 34 36 37 36 36 36 37 36 36 33 30 33 34 32 32 32 30 32 30 26 17 16 19 17 23 23 20 18 18 17 17 17 18 21
50 49 47 45 46 45 44 33 22 34 32 35 35 35 33 34 35 35 35 33 34 31 27 24 22 31 32 30 30 30 27 19 16 16 20 22 20 19 21 20 20 19 18 18 19
49 44 45 47 47 45 39 25 27 34 33 33 32 29 31 32 34 33 33 31 31 32 26 24 27 32 31 31 32 29 26 28 23 23 15 20 19 19 19 18 18 19 20 20 19
42 40 43 47 46 44 37 29 32 35 35 32 30 30 28 30 31 31 32 31 29 31 32 31 26 31 32 32 32 29 30 22 21 11 15 18 17 17 17 18 22 21 22 28 27
40 38 44 48 47 39 32 32 36 33 36 33 29 28 27 28 31 29 30 29 30 31 31 30 28 28 32 29 28 29 28 28 26 24 17 18 19 19 20 22 22 22 23 24 29
40 33 44 47 34 36 33 34 40 37 39 35 30 28 27 30 29 27 27 29 31 31 29 30 30 25 27 30 31 30 28 27 24 17 23 20 21 24 23 24 25 27 28 29 31
36 39 45 42 30 34 37 37 38 39 36 34 32 30 29 27 27 27 29 30 32 30 30 31 27 20 25 29 30 29 29 29 29 29 23 22 20 22 25 26 29 34 37 38 34
40 29 35 40 38 36 36 37 36 39 36 35 32 29 28 28 30 28 31 32 32 34 39 34 31 22 21 24 31 28 30 29 29 28 25 25 25 26 28 31 36 38 39 40 39
41 33 37 29 34 35 38 37 33 34 36 34 31 30 29 28 28 29 31 31 32 38 33 33 26 28 30 30 31 29 29 30 29 30 29 27 28 31 34 37 39 38 37 38 40
38 37 38 36 35 34 35 34 34 35 36 32 31 32 34 33 33 29 31 31 30 33 32 33 24 32 25 30 30 29 30 30 31 30 31 32 32 36 39 40 38 37 37 38 38
43 43 41 37 31 30 30 34 35 37 37 37 34 34 37 38 38 37 36 35 33 32 31 34 31 27 21 29 30 28 30 30 36 37 36 34 36 38 39 40 39 39 39 40 40

GFSSW_sfc_dewp_024.txt.gz
Dewpoint
50 48 48 48 48 48 48 49 54 56 58 59 58 56 55 56 57 56 50 52 56 60 58 54 50 49 47 44 44 42 38 36 35 33 33 35 35 35 32 30 31 32 42 52 56
49 49 48 48 49 46 48 46 50 53 55 57 59 56 55 57 54 50 55 58 59 59 56 51 50 47 43 42 42 40 38 38 38 37 35 34 37 37 32 30 30 33 47 54 56
51 50 50 50 48 48 48 45 46 48 52 55 59 57 57 56 51 49 58 60 61 58 53 54 49 45 43 42 41 40 38 39 40 40 37 37 36 39 36 32 32 32 47 49 51
51 50 49 48 48 48 46 47 46 47 49 53 56 57 57 54 40 51 57 61 60 56 53 50 48 45 41 40 41 38 39 38 39 39 38 36 39 38 37 36 37 40 37 37 43
50 48 48 48 48 48 48 46 46 45 47 52 55 58 54 48 47 51 58 60 56 55 52 49 47 43 39 39 40 36 37 38 38 39 37 36 37 37 38 39 39 39 39 38 38
49 48 48 48 47 47 47 45 46 47 46 50 54 58 50 43 48 52 56 55 55 53 52 51 48 45 40 39 37 37 36 37 38 38 39 38 37 36 37 38 37 37 37 38 38
48 48 47 47 47 46 46 46 47 47 47 50 53 55 47 42 47 52 55 55 56 55 53 53 51 45 42 41 41 40 37 38 38 38 38 38 35 36 37 37 37 37 38 38 37
47 46 47 47 47 46 47 47 47 47 48 51 54 53 42 47 45 47 48 48 54 54 53 53 51 46 44 42 39 37 37 34 36 37 37 37 31 36 37 37 37 37 37 38 38
46 46 47 46 46 47 47 47 47 48 48 49 51 49 37 50 46 44 45 47 49 54 55 53 51 46 42 38 35 35 31 33 34 36 35 36 34 35 36 35 35 35 35 35 37
46 46 47 46 46 46 46 48 48 47 47 48 52 44 42 42 45 43 46 46 49 52 51 50 49 43 40 35 30 30 31 31 30 30 31 30 34 35 34 34 33 32 32 34 36
45 45 46 46 45 47 46 43 38 40 44 41 44 41 40 44 45 45 43 49 50 48 44 46 41 39 40 38 34 33 31 30 31 32 29 28 28 29 30 29 28 29 29 30 31
44 44 44 45 45 46 44 39 40 40 36 40 44 44 42 43 41 43 43 45 46 41 41 40 38 40 41 40 36 35 32 31 31 31 29 28 27 28 29 29 29 29 29 29 30
44 46 45 45 44 44 41 40 46 44 35 40 46 42 42 43 41 42 42 41 42 39 38 36 36 39 38 34 32 31 30 30 29 30 28 27 22 23 26 27 27 28 29 29 29
46 47 48 48 44 44 39 47 46 43 30 38 42 43 42 43 40 42 43 40 39 37 37 35 34 36 35 34 32 29 30 30 29 27 24 27 21 25 25 23 23 24 28 29 29
48 48 48 49 44 40 43 47 45 40 20 38 41 44 43 40 40 40 42 40 37 38 37 36 34 32 32 33 32 30 31 29 29 26 24 24 23 22 24 22 21 21 20 27 29
50 50 49 45 45 45 46 45 42 29 20 35 39 38 38 38 39 41 39 40 39 38 36 33 33 34 32 31 31 32 28 28 28 24 16 21 22 18 17 18 17 17 16 19 22
49 47 47 46 42 45 46 41 26 21 35 35 36 37 36 36 37 38 36 35 34 34 34 34 32 32 32 30 32 29 25 15 13 13 15 22 23 22 21 20 19 18 18 19 18
48 47 47 46 45 45 44 32 20 33 34 37 36 34 34 35 36 36 35 33 34 31 31 26 22 30 31 31 29 28 25 17 12 15 19 23 21 19 22 22 19 20 20 22 22
46 44 45 46 46 46 39 26 26 32 37 36 32 31 31 34 36 34 33 33 32 31 26 24 25 32 31 31 30 29 24 27 22 20 13 20 20 18 19 19 23 22 22 27 29
40 41 43 48 47 44 35 31 32 37 35 32 30 31 29 31 31 31 30 30 30 31 32 29 24 31 31 31 31 28 29 21 17 8 13 18 18 17 17 19 23 22 22 24 28
40 36 41 47 46 39 31 31 37 35 37 33 29 27 27 29 30 29 30 30 30 30 31 29 26 27 31 29 28 29 26 26 24 22 16 18 19 20 19 22 23 24 25 29 33
37 28 41 45 33 37 33 35 39 38 38 35 30 28 26 31 29 28 29 28 31 32 30 30 29 20 27 30 30 30 28 27 19 15 21 19 21 24 23 24 26 27 29 35 38
34 35 43 40 27 35 36 37 38 37 36 34 31 30 30 30 27 27 28 30 32 31 30 30 26 18 24 28 30 29 29 29 27 28 20 21 20 23 25 26 28 33 38 40 40
35 27 34 38 38 35 33 35 34 37 35 33 30 30 29 27 29 29 30 32 33 34 38 34 29 21 20 21 28 25 29 29 28 24 24 24 23 25 27 29 34 39 40 39 38
36 33 37 29 32 32 36 36 33 33 36 33 30 29 29 28 29 30 31 30 33 37 35 32 24 26 29 29 30 29 29 29 26 27 26 25 27 28 31 33 37 39 39 38 39
35 36 37 36 35 33 34 33 34 35 35 33 32 34 31 33 32 30 31 30 29 33 32 32 23 31 28 29 30 28 30 29 29 29 29 28 28 31 35 38 40 39 39 38 40
41 42 40 34 33 30 30 34 34 36 35 37 34 36 36 37 38 35 33 33 32 31 31 31 29 28 23 28 29 26 29 30 31 32 31 32 34 37 38 37 39 40 34 33 37

GFSSW_sfc_dewp_027.txt.gz
Dewpoint
52 52 51 50 50 48 48 48 47 48 52 54 56 60 57 56 56 54 50 51 54 59 58 54 52 50 47 44 43 42 37 36 32 31 30 35 34 36 34 30 30 31 47 50 56
51 52 52 51 50 51 49 46 49 46 49 50 53 57 57 57 53 47 51 57 58 58 57 52 49 47 44 43 42 40 38 37 38 36 35 35 37 37 35 33 30 34 48 56 56
50 50 51 50 50 50 48 49 45 46 47 49 52 55 59 56 48 45 55 58 59 58 55 55 49 46 43 41 41 40 38 39 40 40 39 37 36 39 36 34 32 33 40 47 56
49 49 49 49 49 49 49 48 47 46 46 47 50 53 57 54 38 48 57 59 60 56 53 51 48 43 42 40 41 38 39 39 40 40 38 36 37 37 37 36 38 39 39 38 45
49 48 49 49 48 48 48 48 48 46 46 47 48 51 55 48 45 49 57 59 56 57 54 50 46 43 40 41 40 37 38 38 39 39 38 38 36 36 38 39 40 39 39 39 38
48 48 47 48 47 47 47 47 46 46 47 47 48 52 52 41 46 49 53 56 56 54 51 49 46 44 40 39 40 38 37 37 37 37 38 37 37 37 37 39 38 38 37 37 38
47 47 46 47 47 47 47 47 47 47 47 47 48 50 50 42 46 48 55 55 55 53 51 51 49 44 42 40 39 40 36 38 38 38 38 38 35 36 37 37 36 37 37 37 37
47 46 46 47 47 47 47 47 47 47 47 47 49 51 44 48 46 44 53 55 57 55 53 54 52 48 42 41 39 38 37 34 36 37 37 36 31 34 37 37 37 37 37 38 38
46 46 46 47 47 47 47 47 47 48 48 47 47 49 41 50 45 44 47 50 54 55 54 53 50 45 41 37 34 35 31 33 34 36 36 36 34 35 36 35 35 35 35 35 36
47 45 45 45 47 46 47 47 48 47 45 45 47 44 45 42 45 44 45 51 51 52 51 49 47 41 38 36 30 31 31 31 31 31 33 31 32 34 36 35 35 35 35 34 34
47 44 44 44 45 46 45 42 36 37 43 39 42 42 42 45 46 46 44 49 51 48 45 47 43 39 38 36 33 32 32 31 31 32 30 29 28 29 29 29 29 30 31 31 31
45 45 46 46 46 45 44 38 38 39 34 39 42 45 43 45 41 44 48 45 46 42 43 42 39 42 41 42 39 36 33 31 31 31 29 28 27 28 28 28 29 29 29 29 30
46 47 47 48 46 44 41 39 45 43 35 34 43 44 42 43 41 42 44 43 44 40 39 38 38 44 42 41 38 33 30 30 29 30 28 27 24 24 24 26 27 28 29 30 30
50 50 49 48 44 44 40 46 46 42 29 37 40 43 42 43 40 42 43 41 41 38 37 36 35 41 39 36 32 29 30 30 29 27 24 27 22 25 24 24 25 24 24 28 29
49 49 50 47 43 40 41 46 44 39 20 37 41 48 42 39 40 40 44 41 38 39 37 36 34 36 36 34 33 31 30 29 28 26 22 24 22 23 20 19 19 18 18 20 24
49 48 48 45 44 45 46 45 40 27 22 34 40 40 38 38 39 41 40 40 41 38 35 33 33 33 32 32 32 32 28 26 27 24 15 20 21 18 15 17 17 20 20 19 20
49 48 46 45 41 46 45 39 27 21 34 34 36 36 35 36 38 38 36 35 35 34 33 34 31 32 33 30 31 28 25 15 11 13 14 23 22 20 22 22 21 21 19 24 27
47 46 46 44 45 45 42 33 22 31 34 38 36 35 34 36 36 37 34 33 33 33 34 30 27 30 31 30 29 28 25 17 7 13 18 23 21 18 22 22 22 23 24 26 28
46 43 44 45 46 45 38 26 26 31 37 36 33 33 35 35 37 37 34 32 32 30 26 26 25 32 31 32 30 29 22 26 21 19 14 19 19 18 19 21 22 23 24 26 28
40 39 41 47 46 41 32 32 34 37 35 32 29 31 29 33 33 34 30 31 30 32 31 28 25 31 31 31 31 28 29 22 18 5 12 15 18 15 17 18 23 23 25 26 27
38 35 41 45 44 35 30 33 36 36 36 30 30 27 29 29 31 29 30 29 30 30 31 29 27 28 30 29 28 29 26 26 23 21 14 16 16 21 19 22 23 26 28 29 34
35 28 40 42 32 37 34 37 39 38 38 36 30 28 29 30 29 28 28 29 31 31 28 30 27 21 27 30 30 29 28 26 18 14 19 18 20 25 24 24 26 27 30 37 41
34 34 41 40 29 34 35 36 38 36 35 32 29 29 31 29 27 28 29 30 32 31 29 29 24 15 23 27 30 28 29 27 25 23 16 17 19 23 24 26 28 31 35 40 40
34 29 35 37 36 33 33 34 33 36 35 31 30 30 29 28 28 28 28 33 32 32 38 34 27 21 18 20 27 24 28 29 26 22 22 23 23 24 25 27 30 34 40 40 40
35 34 36 31 32 32 34 35 33 34 36 32 29 29 29 28 29 30 30 30 33 39 35 30 24 25 28 28 29 28 28 28 25 26 24 23 24 25 27 29 31 38 39 39 36
34 36 37 34 34 32 32 32 34 34 35 32 29 31 30 29 29 30 30 30 30 32 32 31 25 30 24 28 30 28 29 29 29 28 28 27 27 29 30 35 38 39 38 34 33
39 41 39 34 32 29 29 32 33 36 35 36 35 36 36 37 37 32 32 31 30 31 31 30 30 28 24 27 28 26 28 29 30 30 29 27 29 34 37 38 38 39 34 32 32

GFSSW_sfc_dewp_030.txt.gz
Dewpoint
51 51 51 52 53 52 51 51 46 47 49 49 51 53 57 59 57 53 50 52 54 59 60 55 56 52 47 45 43 41 37 33 31 31 31 34 33 36 35 32 31 31 40 48 60
49 49 50 50 50 51 51 51 50 47 46 47 49 52 54 58 53 51 51 56 57 56 55 53 52 48 46 43 42 40 37 36 35 33 32 36 36 36 36 35 32 31 50 56 63
49 49 50 50 50 50 51 50 49 49 47 47 47 49 52 56 49 45 55 55 57 57 56 53 50 47 44 42 41 40 37 38 39 38 39 38 38 38 36 34 34 34 37 45 55
49 49 49 48 49 49 49 49 49 49 47 47 47 48 51 54 39 46 52 57 57 55 55 53 47 44 42 40 41 38 39 39 40 41 39 36 37 36 37 35 37 39 40 39 45
46 48 48 48 48 47 47 47 47 48 47 47 47 48 50 49 44 50 56 58 52 55 53 52 47 43 40 40 39 38 38 39 39 39 38 38 36 36 36 38 39 39 39 39 39
46 47 46 47 47 47 47 47 47 46 46 45 47 47 48 43 47 48 49 56 52 55 53 50 47 44 41 40 38 39 38 37 37 37 37 37 37 37 37 38 38 38 38 38 38
47 47 47 47 47 47 46 46 47 46 46 47 47 45 47 44 46 46 52 55 55 55 52 50 48 44 41 39 40 39 36 37 37 38 37 38 35 36 38 38 37 37 37 37 37
48 47 47 46 46 47 47 47 47 47 46 45 46 46 43 50 53 49 48 55 56 55 52 52 51 46 42 41 39 38 37 34 36 38 38 36 29 34 36 37 36 37 37 37 38
48 48 47 45 45 47 47 47 47 47 47 46 44 46 41 51 48 47 46 52 55 54 54 52 50 45 41 37 35 34 31 33 34 36 36 36 34 35 36 36 36 35 35 35 36
47 47 46 44 44 45 46 46 47 46 45 44 43 42 45 43 48 47 51 53 50 50 49 48 47 41 38 36 29 32 30 31 32 31 35 34 32 32 31 32 35 35 35 35 35
46 46 46 46 45 45 45 40 34 35 41 36 40 40 43 45 48 47 49 52 52 49 42 45 42 37 37 37 34 33 32 30 31 32 31 30 29 29 30 30 29 30 30 30 31
50 48 48 47 48 45 43 37 37 39 31 37 42 44 46 47 43 46 48 47 46 41 44 41 38 40 39 36 37 35 32 31 32 31 29 29 27 28 29 29 29 29 30 30 30
49 49 46 48 47 44 41 38 43 42 33 36 41 44 45 46 42 44 47 46 43 42 40 38 38 44 39 39 37 33 32 30 30 30 28 27 25 24 25 26 25 26 28 29 30
49 49 49 47 44 43 38 44 45 41 28 32 40 44 45 43 40 45 48 45 43 40 39 38 43 40 41 39 35 31 30 30 28 27 24 27 21 24 24 22 22 19 19 21 22
49 49 48 47 43 39 41 46 44 38 19 36 41 47 42 38 40 41 46 43 40 39 40 35 40 40 39 38 35 32 30 28 28 25 22 23 22 21 19 16 18 18 20 23 24
49 48 46 45 44 45 45 44 39 21 18 34 40 38 37 39 40 41 41 43 43 38 36 33 34 36 37 35 34 31 28 26 26 23 15 19 20 15 15 17 18 21 21 26 28
48 47 45 45 38 45 43 38 22 22 35 34 36 36 36 37 38 38 37 35 37 33 33 34 31 32 33 30 30 29 28 18 12 11 14 23 21 17 21 23 22 22 22 26 28
48 46 45 45 45 45 42 31 20 32 34 37 35 35 35 36 37 36 34 33 33 35 32 29 29 31 31 30 29 27 25 18 7 10 16 23 20 18 23 22 23 23 25 27 28
44 41 42 46 46 46 37 27 26 32 37 35 32 33 34 35 37 36 34 32 32 31 26 24 25 31 31 32 30 28 22 25 20 18 14 17 18 15 21 22 23 24 26 27 28
39 38 39 45 46 40 31 32 34 37 33 31 29 31 28 33 32 34 31 32 31 31 31 28 25 31 31 32 31 28 28 22 19 6 10 13 16 15 16 18 23 25 26 29 30
37 34 39 44 42 36 29 33 36 37 36 30 29 28 30 30 31 31 29 29 30 31 31 28 27 29 30 28 28 28 26 25 22 20 13 14 11 20 19 22 24 26 27 29 31
35 29 39 41 34 38 35 37 39 38 38 33 29 29 29 29 27 28 29 28 31 31 28 29 27 20 27 30 30 29 27 24 16 13 19 18 18 24 24 24 25 27 29 34 41
33 33 40 39 29 33 34 36 37 36 35 31 28 28 31 28 27 27 28 30 32 30 28 30 24 17 24 27 29 28 28 26 24 22 14 16 16 24 25 25 27 28 31 40 40
34 29 34 36 35 34 34 33 32 36 34 31 30 30 29 27 28 28 28 33 32 31 37 33 26 22 18 20 27 25 28 27 25 16 21 21 22 23 24 26 28 31 37 40 38
34 34 37 32 31 30 32 33 33 34 36 31 29 29 28 27 29 29 30 31 34 38 34 30 22 24 27 27 28 27 27 28 24 25 21 22 24 25 27 28 29 32 40 38 34
34 35 37 34 33 29 30 31 33 34 35 30 28 30 30 28 28 29 30 30 29 32 31 31 28 30 22 28 29 27 29 28 28 28 27 27 27 29 29 31 37 39 38 34 33
40 40 39 33 31 28 29 31 33 36 34 36 33 34 34 36 36 32 31 31 31 31 30 30 29 23 18 26 28 25 28 28 28 29 28 26 27 28 32 37 38 38 34 32 32

GFSSW_sfc_dewp_033.txt.gz
Dewpoint
51 51 51 50 50 51 51 51 52 52 46 47 47 49 52 55 57 55 49 51 54 58 58 53 56 56 47 45 44 42 37 34 35 31 31 33 31 36 36 34 33 32 39 50 60
49 50 50 50 50 50 51 51 51 51 49 47 47 47 49 52 52 52 51 56 57 57 53 51 53 50 46 44 43 41 37 35 34 34 32 35 36 36 36 36 34 34 41 59 63
48 48 49 49 49 49 49 49 49 50 49 48 47 47 48 51 49 48 57 57 57 57 53 53 53 48 45 43 42 41 36 38 38 36 38 38 38 37 36 35 35 35 39 52 61
49 47 48 48 48 48 48 48 48 47 48 48 47 46 48 49 39 48 55 58 57 53 54 51 49 46 44 41 41 39 40 39 40 41 40 38 38 36 38 37 36 40 40 39 56
49 49 48 47 47 47 47 47 47 46 47 47 45 48 46 45 45 50 54 53 52 53 53 50 48 45 42 41 40 38 39 40 40 40 39 38 37 36 36 38 39 39 40 40 39
49 49 48 48 47 47 46 46 46 46 47 45 45 47 44 40 50 53 48 51 50 53 53 51 47 44 42 41 39 40 39 38 38 37 37 37 37 37 37 38 38 38 39 39 39
49 48 48 47 47 46 46 46 46 46 47 46 46 44 41 39 48 53 48 54 51 54 52 51 46 43 41 40 40 38 37 37 37 37 37 38 34 37 38 38 37 37 37 38 39
48 48 48 48 47 46 47 47 46 46 46 45 45 45 36 45 52 51 47 54 53 55 53 52 49 44 42 41 39 38 37 35 36 38 37 34 28 34 37 37 37 37 37 38 38
50 49 47 47 46 45 45 47 47 47 46 46 44 42 39 51 48 48 45 51 54 54 53 52 49 46 41 38 36 36 32 34 34 38 36 36 34 35 37 36 36 36 36 36 37
49 49 48 47 45 44 45 46 45 46 45 44 43 40 43 43 48 46 51 52 51 52 49 47 46 42 39 36 29 33 32 34 31 32 35 35 35 35 33 31 33 33 33 34 35
49 49 49 46 47 47 44 40 34 34 41 34 36 39 43 47 49 48 52 52 50 47 43 45 40 36 37 35 33 33 32 31 32 32 32 31 31 31 32 31 31 31 31 31 31
48 49 48 45 48 47 42 36 37 38 31 35 38 41 46 47 43 47 52 47 45 40 43 41 36 38 39 36 34 34 32 31 33 31 30 29 28 29 30 31 31 30 30 31 31
49 50 48 45 47 44 41 38 43 42 34 35 38 42 44 47 43 45 50 47 40 39 38 35 38 40 38 37 36 35 33 31 31 30 28 27 26 25 26 25 25 22 22 23 25
48 49 48 45 43 43 37 45 43 40 29 34 38 43 44 44 42 46 50 47 44 36 40 39 42 40 38 37 36 33 32 31 28 28 26 27 22 24 24 19 21 22 26 27 27
48 47 47 46 41 39 41 44 43 39 21 35 39 48 44 39 43 42 48 42 39 40 41 36 40 41 38 38 36 33 31 29 28 26 24 23 22 19 19 18 19 22 26 28 29
47 47 45 44 43 44 44 44 39 21 21 34 40 39 39 40 41 44 44 46 43 38 36 36 41 41 40 40 37 30 27 26 26 24 21 19 21 15 14 18 21 22 23 27 28
48 46 44 44 38 44 43 37 21 20 35 35 36 37 36 37 38 39 39 37 37 33 33 36 31 33 39 34 33 30 31 23 18 19 20 23 21 17 20 22 23 23 24 27 29
49 46 45 44 45 45 43 27 22 34 35 37 35 35 35 36 37 36 34 32 33 35 33 30 29 31 32 31 31 28 28 22 14 11 15 22 20 17 23 23 22 24 26 28 30
45 40 41 43 45 45 34 28 23 33 36 33 31 30 32 35 36 35 33 31 31 31 29 26 27 32 31 32 31 29 27 24 21 19 17 16 17 16 22 22 24 25 28 29 31
38 37 38 44 45 42 33 33 34 36 33 31 28 31 28 33 33 33 31 32 31 31 31 28 27 31 31 32 31 29 28 24 22 13 11 11 14 13 17 19 23 25 27 29 32
36 33 38 43 42 36 32 33 36 38 36 30 29 28 30 31 31 32 30 29 31 31 30 28 28 30 31 29 28 28 27 25 23 21 15 11 8 19 20 22 24 26 28 30 35
34 29 39 40 33 37 34 36 39 37 37 31 29 29 29 29 28 28 28 29 31 31 29 30 28 26 28 30 30 29 27 23 20 17 21 20 16 23 24 24 25 26 28 33 41
33 32 39 38 32 34 35 35 37 35 35 31 28 29 30 28 27 27 28 31 32 30 29 29 25 20 24 27 30 29 28 25 23 23 21 18 14 24 25 25 26 28 31 38 40
33 27 34 36 33 31 31 31 32 36 34 31 29 31 28 27 29 28 28 34 32 31 37 32 26 22 17 20 27 26 28 26 26 22 21 21 20 22 24 26 28 30 33 39 36
34 33 36 31 31 30 31 33 32 33 35 31 29 29 28 27 29 28 30 31 33 37 33 30 25 25 27 26 29 28 28 28 25 25 23 21 23 24 26 28 29 31 39 36 34
34 34 34 33 32 28 29 30 32 34 34 30 28 30 30 28 27 28 30 30 30 32 31 30 28 29 23 28 29 28 29 28 28 27 26 26 26 28 29 30 35 38 37 34 33
39 40 38 32 29 27 29 30 32 35 35 36 31 33 33 35 37 34 31 31 31 31 30 31 29 23 19 26 27 25 28 28 29 29 28 26 28 29 29 34 37 38 35 32 32

GFSSW_sfc_dewp_036.txt.gz
Dewpoint
50 49 49 50 50 51 51 51 52 52 52 48 47 47 48 50 52 52 53 50 51 56 57 49 54 55 47 45 44 43 38 36 36 35 33 33 31 32 33 28 31 32 36 51 56
50 50 50 49 49 49 49 50 51 50 51 51 48 47 47 49 45 46 55 57 56 57 55 46 52 52 44 43 42 38 37 34 35 36 34 32 30 32 33 33 32 33 40 58 61
50 50 50 49 49 48 49 48 49 49 49 49 50 46 46 48 39 40 56 58 58 55 53 49 52 49 44 43 41 37 32 34 36 35 33 33 33 36 32 33 31 32 38 53 61
51 50 50 49 48 48 49 47 47 46 46 47 47 46 44 45 30 50 55 59 57 52 50 50 50 48 43 40 40 35 34 33 35 38 37 34 34 34 34 29 35 39 39 40 56
49 50 49 49 48 47 47 46 46 45 45 46 47 46 41 39 35 51 57 51 55 51 49 48 46 47 42 41 40 36 38 36 36 40 39 38 36 33 36 36 38 38 39 39 39
48 49 49 48 48 47 47 47 46 44 45 46 45 46 39 35 36 52 53 49 52 49 49 49 43 46 42 41 39 38 38 36 37 38 38 38 37 38 35 36 36 36 36 35 38
51 50 49 48 48 48 46 46 46 46 46 47 44 41 39 34 47 52 53 49 52 48 49 50 45 43 43 41 41 40 36 38 37 37 36 37 35 36 35 34 33 32 31 35 36
50 49 49 48 48 48 47 46 47 46 46 47 45 42 35 36 37 47 50 49 50 49 50 51 48 45 41 41 39 37 35 34 33 36 36 35 27 32 34 34 33 32 32 34 36
49 49 49 49 45 43 44 45 46 46 47 45 42 40 32 45 43 48 50 48 49 51 52 51 46 41 40 35 34 34 26 27 31 36 33 33 26 29 31 34 33 32 32 33 36
49 49 48 48 45 44 44 45 44 46 45 43 41 37 36 38 46 50 51 50 48 51 48 47 46 41 36 32 22 27 25 28 25 32 36 34 29 33 35 35 33 31 31 31 32
49 50 49 47 46 46 43 41 37 36 39 29 29 36 40 44 48 49 49 52 49 46 41 44 40 37 35 32 28 29 27 26 29 32 32 30 31 31 33 32 31 30 29 29 31
50 50 48 48 48 46 43 37 37 40 30 34 36 39 40 45 41 47 50 47 44 40 41 41 37 35 36 35 32 30 27 27 32 32 31 30 30 30 31 31 32 31 30 30 30
49 47 46 47 46 43 40 40 43 42 34 36 40 41 45 43 40 45 46 45 41 40 40 37 36 36 36 35 32 32 29 31 29 31 29 28 26 28 26 26 22 24 23 24 27
48 48 47 46 42 41 40 45 44 42 33 34 38 43 44 44 43 47 50 43 41 39 39 39 41 34 34 33 32 31 34 33 30 30 24 27 17 24 23 21 26 28 28 30 32
47 46 45 45 42 40 44 46 44 42 25 36 39 46 43 41 43 45 50 47 38 39 39 38 40 37 34 34 34 30 33 30 29 29 28 25 24 19 18 19 24 26 30 31 33
50 46 44 44 43 43 45 44 42 33 25 35 41 38 38 42 42 44 44 45 43 39 39 39 41 42 40 38 36 30 29 28 28 28 29 24 22 15 15 18 23 25 27 32 33
49 47 44 44 38 44 45 41 34 29 36 35 37 38 38 38 38 39 39 38 37 33 33 35 36 40 40 36 34 31 32 30 28 30 25 22 21 16 18 21 22 23 27 32 34
49 46 45 42 44 45 44 37 29 32 32 37 35 34 35 37 37 38 38 36 35 35 36 33 30 36 38 37 35 33 32 28 20 16 16 22 17 16 22 23 22 24 27 30 33
46 43 44 45 46 46 40 33 32 34 33 31 31 29 31 34 34 34 33 32 33 34 31 30 31 31 32 33 36 33 33 24 24 20 22 15 17 18 21 21 23 25 29 32 34
44 41 42 45 47 44 41 34 35 36 34 31 28 30 27 32 31 31 31 32 31 31 31 29 31 31 30 31 30 30 28 27 30 22 17 11 10 12 20 22 24 26 30 32 35
40 39 42 44 46 42 34 35 36 38 36 29 29 29 30 30 32 30 29 31 31 30 29 29 30 30 31 30 28 28 28 26 25 23 17 7 7 16 20 22 24 26 31 33 38
40 41 43 43 41 41 37 36 39 36 37 30 30 30 30 30 30 30 26 29 31 30 28 29 31 29 29 30 30 29 27 23 23 23 23 22 12 21 22 23 25 29 31 35 40
40 39 43 44 36 36 36 35 37 34 34 31 28 29 30 29 28 28 30 31 32 30 29 29 29 28 27 29 30 29 28 26 23 26 27 19 13 24 25 25 27 30 33 39 39
39 38 40 40 38 35 34 33 33 37 34 31 29 31 28 27 28 27 28 33 31 31 36 33 27 28 21 28 30 30 28 27 27 27 22 19 18 21 23 26 31 33 37 38 37
39 34 35 37 35 34 35 35 33 32 36 31 29 28 26 26 27 27 30 31 32 36 32 30 33 31 26 27 30 29 28 28 29 26 26 20 21 21 24 28 30 34 38 38 36
37 34 33 34 34 32 32 33 34 34 35 30 28 29 29 28 25 27 29 30 29 33 30 31 32 31 30 28 29 29 28 28 28 27 26 25 25 26 27 29 30 35 37 37 34
39 39 37 32 33 32 32 33 34 35 35 36 30 32 32 32 34 33 31 31 31 31 30 31 33 31 26 26 27 26 28 28 28 29 27 26 26 28 29 30 32 37 37 35 34

GFSSW_sfc_dewp_039.txt.gz
Dewpoint
52 52 52 51 51 50 50 50 51 50 51 51 52 47 47 48 50 49 47 52 52 53 56 44 52 55 50 47 44 44 42 39 38 33 32 34 33 33 31 28 28 27 34 49 57
51 52 51 51 50 50 49 49 49 49 49 50 51 48 47 47 41 40 48 58 57 54 52 42 50 52 46 44 43 41 40 38 36 34 35 34 33 30 31 28 26 29 39 53 58
51 50 50 50 50 49 48 49 49 49 48 50 50 50 46 45 39 32 49 58 58 56 54 42 48 50 43 41 40 37 35 37 34 35 36 35 32 29 31 28 28 28 33 49 56
49 49 49 50 49 49 48 49 48 48 46 47 47 47 45 40 25 37 54 59 59 53 51 46 44 47 41 39 39 35 34 32 33 35 35 34 32 30 31 28 30 33 38 39 52
51 51 51 50 48 49 48 47 46 45 44 45 46 46 42 37 33 52 55 58 56 51 46 46 40 44 40 38 36 36 32 33 34 37 36 33 31 30 30 33 36 38 38 38 38
51 50 50 50 48 48 48 48 46 45 44 45 45 46 38 33 33 46 52 49 55 51 46 43 39 43 40 38 36 37 35 34 33 37 37 35 32 32 32 33 34 34 35 35 36
49 49 49 49 49 48 47 48 46 46 46 46 45 40 37 33 36 51 51 48 50 53 42 42 40 42 41 41 38 37 33 35 33 35 35 37 33 33 34 33 33 31 32 32 32
49 49 49 49 48 46 46 46 46 46 45 45 45 40 34 34 35 41 51 49 49 52 43 44 44 40 40 40 39 36 35 32 34 35 35 35 29 31 34 33 33 30 30 30 30
50 50 48 48 45 43 44 44 45 46 46 45 41 39 30 41 34 36 48 48 50 51 45 49 49 40 39 36 35 34 27 29 29 34 34 35 29 30 31 30 30 29 28 29 29
50 50 49 47 47 45 44 44 45 47 45 42 39 35 32 33 39 45 50 50 50 47 48 49 47 39 36 31 25 26 27 24 25 33 33 32 31 28 30 29 30 28 27 27 28
50 49 48 47 46 46 44 41 39 37 36 30 32 31 38 38 47 47 47 50 46 46 42 46 41 36 33 29 24 21 25 20 23 31 32 30 27 27 29 31 30 28 27 27 26
48 47 48 48 47 44 42 36 38 40 30 31 35 36 39 41 41 44 49 47 42 40 36 42 37 34 31 28 26 27 23 23 26 29 30 24 26 28 29 29 28 27 28 28 29
48 48 47 46 45 42 40 40 43 42 37 36 39 40 41 45 42 45 45 45 39 39 37 36 37 35 33 30 29 26 25 24 26 31 30 29 25 27 26 29 28 26 26 25 26
50 47 46 46 44 40 40 43 44 43 34 35 38 41 43 46 42 47 48 45 40 36 36 38 38 34 35 32 28 24 28 30 31 28 18 27 9 24 25 22 25 26 27 28 31
50 49 46 45 41 40 41 44 43 42 26 38 40 45 43 40 42 43 49 44 39 40 40 37 39 35 32 31 29 29 34 31 31 29 28 26 23 21 22 21 24 26 30 31 33
49 50 47 44 43 40 44 44 42 33 25 36 39 39 38 40 41 44 44 44 43 39 38 39 41 39 34 35 32 33 31 31 31 29 29 26 22 17 17 19 23 27 29 31 33
49 50 47 42 40 44 45 41 33 30 36 35 36 39 38 38 40 41 40 38 35 33 33 36 36 40 40 34 34 32 30 29 27 30 24 22 23 19 17 18 22 24 27 31 34
49 49 47 42 44 45 43 39 30 32 31 36 34 36 36 38 38 38 38 37 39 37 36 34 29 35 37 36 33 32 31 30 21 22 21 21 18 17 19 22 22 24 27 31 33
49 43 43 45 46 45 41 34 33 35 32 30 30 31 32 33 37 36 33 35 37 35 35 33 33 38 38 38 36 35 33 26 23 18 20 16 17 21 21 21 21 24 29 32 34
43 40 42 44 46 44 41 34 36 35 33 30 26 29 27 29 30 31 30 31 32 31 31 31 31 32 35 38 37 37 31 29 32 25 16 14 11 11 19 20 22 26 29 33 35
42 38 44 44 47 42 36 35 34 36 34 29 27 27 27 28 29 28 28 31 31 29 29 30 30 31 31 32 31 32 33 29 27 24 21 10 9 16 20 24 25 26 31 33 37
43 42 45 44 42 39 37 36 38 34 35 29 29 29 27 28 28 27 26 29 31 30 27 30 31 30 30 30 30 29 27 27 25 26 22 22 16 18 23 24 25 29 32 34 40
38 37 45 45 37 35 34 33 35 33 32 30 27 29 30 28 27 29 28 31 32 30 28 29 31 28 28 29 30 29 29 28 24 27 28 21 16 20 23 25 27 32 35 38 39
37 38 39 40 38 34 31 30 32 37 33 31 29 29 28 27 27 28 29 32 31 31 36 33 27 29 24 30 29 30 28 29 28 29 23 19 18 21 23 24 31 33 37 38 38
37 35 35 39 34 35 35 34 31 31 35 32 30 28 26 25 25 25 29 30 31 36 32 31 34 31 26 26 30 30 28 28 30 28 27 21 17 21 22 26 31 32 36 38 37
36 35 35 33 34 33 33 33 32 33 34 30 29 28 27 25 24 24 27 28 27 32 30 31 32 32 32 28 28 28 27 27 28 27 26 23 23 24 24 26 29 32 37 37 36
34 36 36 32 33 32 31 33 34 35 35 35 30 29 29 30 33 31 29 28 29 29 29 30 34 32 27 26 26 25 27 27 27 27 26 24 25 27 29 29 32 34 38 36 35

GFSSW_sfc_dewp_042.txt.gz
Dewpoint
52 51 51 51 51 51 51 50 49 50 50 51 51 53 48 47 49 50 46 51 54 56 54 46 50 54 55 51 48 51 45 42 42 39 37 33 33 33 32 30 28 28 48 56 63
49 50 50 50 50 51 50 50 49 49 49 49 49 52 52 47 43 39 46 55 58 56 50 42 48 53 49 48 47 45 44 43 45 42 39 36 34 34 31 31 29 29 49 57 62
51 52 52 52 51 50 50 49 49 48 48 46 50 52 52 47 39 35 47 56 58 58 49 42 48 51 48 45 43 42 40 42 42 42 40 37 34 36 32 32 29 28 40 53 59
52 51 51 51 51 50 49 48 48 47 48 46 47 50 50 45 30 44 48 55 57 55 52 46 40 45 44 42 41 37 39 38 40 41 37 36 36 32 31 33 33 38 38 44 53
51 50 50 50 50 49 48 47 47 45 46 45 48 49 46 38 35 45 51 53 53 55 48 48 40 43 41 40 37 38 36 34 34 38 37 36 35 32 32 34 36 38 39 39 39
50 50 50 50 50 49 47 47 45 46 44 45 45 46 40 32 32 42 50 52 55 54 46 49 39 43 41 37 36 36 37 35 33 37 38 34 32 33 32 34 35 36 38 37 37
51 51 50 50 50 48 47 45 47 47 45 45 45 42 38 33 35 49 51 47 54 53 45 43 40 39 42 41 40 37 35 35 34 37 36 37 33 32 32 33 32 33 34 34 34
51 50 50 49 48 46 45 45 45 46 45 45 45 41 34 34 34 36 50 48 47 53 49 47 43 40 41 42 40 35 36 33 34 35 35 36 31 33 33 34 34 33 31 32 33
50 50 49 47 46 44 44 44 44 45 45 45 41 37 31 41 32 32 44 46 47 52 54 46 49 42 40 39 37 37 30 31 32 34 34 35 32 32 32 34 33 32 32 30 29
48 49 49 48 47 47 46 44 44 46 44 41 37 35 33 29 35 33 44 49 49 51 50 45 45 40 39 37 31 32 32 28 29 33 34 34 33 32 30 30 29 29 28 27 28
49 48 48 48 47 46 46 44 41 37 37 33 35 32 32 38 40 44 49 49 50 49 41 44 40 36 36 34 33 29 28 27 28 33 33 32 32 32 31 29 30 30 29 28 28
51 48 48 48 46 46 45 37 38 39 33 31 33 33 35 39 39 46 50 48 45 40 41 41 37 36 35 32 29 25 24 25 26 31 31 29 29 29 28 29 31 30 28 27 28
50 50 47 47 48 45 41 42 44 42 36 36 37 39 41 45 40 42 48 45 41 37 38 35 36 36 33 31 28 24 25 24 25 30 31 29 27 25 28 29 29 29 28 27 25
48 49 50 47 45 41 39 43 45 44 33 35 38 40 43 44 42 47 47 44 41 37 36 37 38 37 34 31 27 25 26 26 28 29 24 27 12 22 26 27 26 26 25 25 31
47 49 50 47 44 40 41 44 45 43 24 38 40 49 43 42 43 45 48 43 37 37 40 38 38 39 37 33 30 28 33 32 32 31 29 26 24 21 25 22 24 26 29 31 33
47 49 49 47 46 42 45 45 43 32 23 36 40 40 42 41 40 44 42 44 41 39 39 39 42 41 39 38 34 34 32 31 31 29 26 27 23 21 23 22 24 28 30 32 33
47 49 48 44 42 45 46 43 32 27 36 33 37 38 37 37 39 40 38 38 36 33 33 35 36 40 41 37 36 32 30 26 25 24 22 23 25 22 20 22 25 27 30 32 34
49 49 48 44 45 46 45 37 26 32 31 35 36 36 35 36 38 39 38 36 38 37 35 33 29 37 38 37 35 32 29 27 19 22 22 22 22 21 20 23 25 26 29 31 33
50 47 45 47 47 46 40 31 30 35 31 30 33 32 33 36 36 38 38 37 39 39 35 33 31 37 38 38 37 34 30 27 25 17 22 20 19 21 21 22 22 24 28 31 34
45 43 43 47 47 44 41 33 36 35 32 30 28 29 26 30 32 34 35 37 33 36 35 33 31 37 38 39 38 36 33 30 28 19 17 16 15 16 20 21 21 24 29 33 35
45 40 45 46 47 43 35 35 33 34 34 29 28 27 27 28 29 28 29 31 31 30 30 32 31 34 37 35 35 34 33 32 27 26 22 16 14 18 20 21 21 27 30 33 37
44 40 46 47 43 42 38 36 37 33 35 30 31 30 27 28 28 27 27 30 31 31 29 31 31 30 31 31 34 35 33 32 28 24 23 22 19 19 22 25 27 28 32 35 40
38 38 46 47 38 33 35 33 35 33 33 31 29 30 31 28 27 28 30 32 34 32 30 30 30 25 27 30 31 30 29 34 32 30 28 24 18 22 24 25 27 30 34 38 39
39 37 42 44 38 36 33 31 32 39 34 31 30 30 29 28 28 28 30 34 32 33 37 33 29 27 23 26 31 29 29 29 28 27 25 23 20 21 23 25 30 34 37 38 38
38 35 35 36 35 35 35 35 31 32 36 34 31 29 27 26 25 27 30 32 33 36 33 32 29 27 27 28 31 31 29 29 28 29 25 24 22 21 24 26 32 33 37 38 37
34 33 34 33 34 34 34 34 33 34 34 31 30 30 28 27 26 25 28 28 28 32 31 33 30 31 26 28 28 27 28 28 29 29 28 27 24 25 24 25 29 32 37 37 36
31 34 35 32 31 32 33 33 34 36 36 35 33 30 29 34 35 33 30 29 30 30 30 31 31 27 23 27 27 24 27 27 28 28 28 26 26 28 30 31 32 33 38 37 35

GFSSW_sfc_dewp_045.txt.gz
Dewpoint
52 52 52 53 53 51 51 51 50 50 50 50 50 51 52 49 49 50 46 50 55 55 54 48 48 51 54 53 53 54 46 41 40 40 40 40 41 34 32 30 30 44 54 62 64
52 52 51 52 51 52 51 50 50 49 48 48 49 51 51 54 45 43 47 53 58 57 49 45 47 52 51 50 50 50 44 42 43 42 42 45 41 34 31 31 31 50 62 63 63
51 50 50 50 50 51 51 49 49 48 47 45 48 51 51 51 43 39 49 52 57 58 49 46 50 52 48 47 48 46 41 43 41 41 45 46 42 39 31 32 31 43 59 61 62
50 52 52 51 50 50 49 48 48 46 46 45 47 49 50 47 35 36 52 52 57 57 54 47 48 48 46 43 45 39 42 43 44 46 49 47 42 37 34 33 38 34 53 58 59
52 51 51 50 50 49 48 47 46 46 46 46 47 47 45 40 39 41 50 50 53 55 52 49 45 47 42 43 41 40 39 40 41 42 46 48 44 36 32 36 38 38 39 46 55
51 50 50 50 49 49 47 46 45 45 45 45 47 48 43 34 38 50 51 46 52 53 50 49 38 44 43 41 39 40 40 38 36 37 36 35 36 34 31 35 37 37 37 41 38
51 50 49 49 49 47 47 46 46 45 45 45 45 43 40 35 39 49 50 49 52 52 50 49 46 43 41 40 40 37 37 37 39 37 36 36 34 35 33 34 34 34 35 35 35
48 49 49 48 46 47 46 46 45 46 45 45 44 43 37 38 37 35 46 48 50 53 52 49 46 42 43 43 38 36 35 34 36 37 36 33 31 34 35 32 33 33 33 33 34
49 49 50 49 48 47 46 45 45 45 45 45 44 41 34 41 35 33 43 43 49 52 54 48 47 41 40 39 37 36 32 33 33 35 35 34 32 34 34 33 33 34 34 33 32
51 49 49 48 47 47 47 46 46 45 44 43 39 35 36 34 39 38 46 42 49 50 49 47 44 40 39 37 31 33 31 31 31 34 34 34 33 34 32 32 33 32 30 29 30
50 51 48 48 48 48 46 44 39 37 39 33 33 36 34 36 43 44 45 46 47 46 40 44 38 34 36 37 35 33 32 29 31 33 34 33 34 34 34 29 29 29 30 29 28
48 50 50 48 48 49 45 38 41 41 34 37 36 36 36 38 39 43 49 44 45 41 41 40 35 36 38 35 34 32 30 28 29 33 33 33 32 33 34 31 29 30 30 30 29
47 48 50 48 48 45 41 42 45 43 36 37 38 38 41 42 40 41 45 45 41 37 39 35 36 37 37 35 32 29 24 25 27 31 30 28 26 28 29 29 30 31 29 28 26
47 47 49 50 44 41 40 44 46 44 32 35 38 41 44 44 38 45 48 45 43 38 37 37 40 36 34 33 31 27 26 28 30 29 26 27 21 19 26 27 28 27 25 25 32
47 47 49 49 42 41 43 44 44 42 20 38 40 47 45 40 40 44 48 44 38 39 37 37 38 38 35 35 33 28 32 32 31 29 29 27 23 23 24 26 24 25 25 28 33
47 47 48 47 45 44 45 44 42 28 22 35 39 39 39 40 41 42 42 44 42 39 39 38 41 41 40 40 37 34 32 31 31 29 22 27 24 22 24 24 24 26 30 32 35
48 48 46 46 43 45 46 43 28 22 34 35 35 39 37 38 39 39 38 38 36 33 33 37 37 40 41 37 37 34 29 26 24 19 20 24 25 24 24 24 25 28 30 32 34
48 49 48 47 45 46 45 36 22 30 32 37 37 37 35 36 38 38 38 36 38 36 35 31 30 37 39 38 36 35 29 25 18 18 22 22 22 23 21 24 28 29 31 33 34
47 46 45 46 46 45 40 24 25 35 32 34 35 34 34 37 37 38 37 35 37 38 33 31 31 38 39 39 37 36 33 31 25 22 19 21 21 20 22 26 27 29 30 32 34
41 42 43 47 45 44 36 29 33 36 35 32 30 31 29 33 35 37 36 38 38 38 38 35 30 37 38 40 39 36 34 28 27 21 15 18 17 18 20 21 25 27 29 32 36
41 38 44 47 45 42 31 32 35 36 35 31 28 27 28 28 31 32 31 37 37 37 35 33 31 34 37 35 36 34 33 32 29 26 21 14 15 18 20 21 21 27 29 34 37
38 35 44 47 38 39 30 36 37 34 35 33 31 30 28 28 27 27 29 31 32 32 31 32 32 31 32 37 38 36 34 31 25 23 22 21 18 20 22 22 23 27 32 35 40
34 36 44 43 37 32 33 35 36 35 33 32 29 31 30 28 26 28 30 32 33 32 29 31 29 27 30 30 34 36 34 35 32 28 24 20 17 23 24 26 28 31 33 39 39
36 32 36 40 38 35 33 31 33 37 36 32 30 30 28 28 27 28 30 33 32 33 39 34 30 24 21 23 30 28 32 34 33 25 26 24 19 22 24 25 27 31 36 39 38
35 33 34 33 33 33 34 35 32 34 36 34 31 30 28 25 25 27 31 32 33 37 32 32 24 23 27 30 31 30 29 30 31 28 27 25 19 21 23 25 28 35 38 38 36
31 30 32 32 33 33 34 35 35 35 34 33 30 30 29 29 28 26 30 29 29 32 30 32 25 27 22 27 29 27 29 29 30 28 27 28 27 25 24 27 31 35 37 37 36
32 33 34 32 28 30 32 32 34 36 36 36 34 32 29 35 35 33 30 29 30 30 30 31 26 21 19 27 27 22 27 27 28 30 29 27 27 28 29 28 33 36 37 37 36

GFSSW_sfc_dewp_048.txt.gz
Dewpoint
52 50 51 51 50 51 52 52 51 50 51 50 50 50 51 52 53 51 48 48 52 59 57 49 48 51 53 53 55 53 45 39 39 40 40 46 44 43 35 38 48 54 57 61 64
50 52 52 51 51 50 50 51 49 49 48 48 49 51 51 51 47 45 49 52 55 58 47 44 43 50 53 51 52 49 43 40 41 40 42 46 45 44 38 34 50 59 62 63 63
51 51 50 51 50 50 50 49 48 47 46 46 47 50 50 50 41 41 51 53 53 58 51 46 46 50 48 48 49 49 41 41 41 42 48 48 46 45 40 33 43 56 60 61 61
52 51 50 51 50 50 49 48 47 46 45 46 48 49 50 46 36 38 50 52 53 54 52 46 50 48 44 46 47 44 44 43 45 46 50 47 47 46 41 34 36 54 61 60 60
51 50 50 51 50 50 47 47 45 46 45 48 46 47 44 40 38 42 49 52 48 53 50 45 48 47 43 43 45 41 42 43 47 50 50 49 48 47 46 45 39 53 57 59 59
49 49 49 48 49 48 48 46 45 46 45 45 47 47 41 37 40 45 44 47 46 53 51 49 46 48 42 43 43 43 40 43 45 45 47 46 46 48 45 39 37 38 41 46 55
49 49 49 48 47 47 47 46 46 45 45 45 45 44 40 36 45 44 48 49 49 53 49 50 45 46 43 41 42 40 40 40 39 39 37 41 42 46 46 38 35 36 35 36 36
51 49 49 49 48 47 46 46 45 46 45 45 45 43 37 40 40 37 45 49 52 54 51 51 46 46 42 41 39 36 36 35 37 37 37 34 33 41 45 35 32 33 34 34 35
50 50 49 48 48 47 47 46 45 45 45 45 43 41 35 40 37 36 43 45 50 53 53 50 48 41 40 38 35 35 32 33 34 37 36 32 32 33 35 34 32 33 33 33 33
49 50 50 48 48 49 48 47 45 46 44 44 43 35 36 32 38 42 44 47 48 50 51 48 46 41 38 38 30 32 32 31 32 35 36 34 33 34 35 33 32 33 34 33 31
47 48 50 50 49 49 45 41 37 36 38 35 33 34 35 36 42 43 45 46 45 45 40 45 39 36 36 36 34 33 30 30 32 34 34 33 34 34 34 34 31 33 31 30 29
47 47 47 50 49 49 43 39 41 40 33 38 36 38 38 37 39 42 48 39 40 39 39 42 36 36 37 37 34 33 31 29 30 32 33 33 32 34 35 34 32 30 30 30 29
48 47 46 49 50 43 39 42 45 43 36 36 39 38 40 43 40 41 44 43 40 38 38 36 36 38 37 35 34 32 30 28 27 31 31 29 27 29 32 33 31 31 30 30 29
47 47 47 50 45 42 40 43 45 44 31 35 38 41 43 44 40 44 47 46 40 38 38 38 39 37 36 35 32 29 28 27 29 29 28 28 24 22 27 28 30 30 28 29 26
48 47 47 48 41 41 42 45 44 42 20 36 40 46 42 39 39 44 49 44 39 37 40 38 37 36 35 34 32 30 30 31 30 28 28 26 22 22 24 25 27 29 27 26 32
47 47 48 46 46 44 45 45 42 22 17 34 38 39 37 38 41 43 43 46 44 39 38 39 42 40 39 39 36 34 31 31 31 28 21 25 24 23 22 22 25 26 25 28 35
47 47 47 46 41 45 46 41 21 21 32 35 37 38 38 37 38 37 39 38 37 32 31 37 37 40 40 35 37 32 28 21 22 22 21 25 24 23 26 25 25 25 29 33 36
48 48 48 46 45 46 44 31 16 28 36 39 37 38 36 36 37 37 38 35 38 35 32 31 29 37 39 37 34 32 29 22 18 19 21 23 23 21 26 24 26 28 31 32 34
46 44 45 46 45 45 39 19 22 29 34 36 37 35 35 37 36 36 37 34 36 35 30 31 29 38 39 39 37 35 31 31 23 21 17 21 22 22 24 26 28 29 31 32 34
40 41 42 47 45 44 34 27 30 36 35 32 29 33 34 35 36 36 35 35 37 39 37 33 29 37 38 40 38 35 35 29 25 19 14 17 20 19 21 26 28 29 31 33 37
40 38 43 46 45 42 24 26 35 36 35 30 28 27 28 30 35 34 35 37 37 37 37 32 30 34 37 36 36 35 35 34 30 27 20 17 17 19 21 25 27 29 30 33 38
36 37 43 46 39 39 28 35 37 34 34 33 30 30 28 27 26 28 30 32 38 36 32 32 31 29 32 37 38 37 34 31 28 22 22 21 18 21 21 23 27 28 30 35 39
34 34 44 44 36 31 33 35 36 34 33 32 29 30 29 28 26 29 30 32 34 32 32 31 29 26 27 30 35 36 37 34 31 28 21 19 18 23 22 22 24 28 33 39 39
35 29 35 41 39 34 34 31 33 36 35 31 30 29 28 27 27 29 30 33 32 32 38 34 28 24 22 23 30 31 35 34 33 25 26 24 22 22 23 24 27 31 34 39 38
33 32 32 33 32 32 34 35 32 34 35 33 30 29 28 25 25 29 31 31 32 36 32 30 24 24 26 29 29 29 30 33 33 31 28 27 24 22 24 25 27 31 37 38 37
29 28 31 30 32 31 34 33 35 35 34 33 30 32 29 31 28 26 30 30 29 32 31 31 23 25 20 26 29 27 28 32 33 33 31 27 27 27 24 25 28 34 38 37 36
33 33 33 30 21 29 26 26 30 34 37 36 35 32 32 34 35 34 30 30 30 30 30 30 25 20 17 26 25 21 26 27 30 31 32 27 28 28 26 26 32 36 38 37 36

GFSSW_sfc_dewp_051.txt.gz
Dewpoint
51 52 51 51 53 52 52 51 51 51 51 51 50 50 50 51 52 51 49 49 49 57 58 52 50 50 54 52 55 54 43 39 37 37 38 44 45 45 44 41 47 60 56 60 63
51 51 51 51 51 51 51 51 50 50 50 48 48 50 51 51 48 47 50 53 54 55 50 49 46 50 52 50 52 49 44 40 39 38 37 42 46 45 42 42 47 57 62 63 62
51 50 51 51 51 51 50 49 49 48 46 46 47 49 50 49 42 41 52 55 54 52 53 47 46 47 47 50 49 48 42 41 40 40 46 47 45 46 44 40 36 38 59 61 61
50 49 49 50 51 50 49 48 47 46 45 46 47 49 50 46 32 40 48 53 55 50 53 47 47 45 44 45 48 45 44 42 43 47 47 45 46 46 45 44 45 46 48 60 60
49 49 49 48 49 49 48 47 45 46 45 46 46 46 44 41 39 44 49 46 47 49 48 48 45 43 40 40 45 41 44 43 48 49 48 48 47 48 46 46 45 43 57 59 59
51 49 49 49 47 48 48 47 46 46 45 46 46 46 41 35 41 45 46 44 45 48 48 48 45 44 43 44 44 44 44 45 48 48 47 47 47 47 44 45 45 41 58 58 57
52 51 49 49 48 47 47 48 46 46 46 45 45 46 41 37 42 44 44 48 48 48 47 50 47 46 43 42 44 44 41 44 46 47 47 47 44 46 45 43 44 42 42 52 56
50 51 50 49 48 48 47 47 47 46 47 45 44 43 37 41 47 44 42 48 52 49 51 52 49 47 42 41 39 37 39 36 42 44 43 47 40 46 47 45 45 43 34 35 36
47 49 49 49 48 49 49 48 47 47 47 46 43 41 35 42 43 42 43 45 50 52 53 51 49 43 41 38 35 34 32 33 35 41 39 41 33 41 47 43 44 44 33 33 34
49 46 47 49 49 49 49 47 47 46 44 44 43 35 36 32 37 42 46 46 47 50 48 46 45 40 37 36 29 32 30 34 33 36 36 38 32 35 42 43 44 42 34 34 34
48 49 46 47 49 49 46 39 37 34 37 36 34 33 34 36 40 43 46 44 47 45 42 44 39 34 37 36 33 32 31 31 33 36 35 34 33 34 35 34 32 32 33 33 33
48 49 45 47 49 49 42 37 38 37 31 37 38 37 39 37 39 43 46 40 39 37 43 40 36 37 37 36 33 33 30 30 31 34 35 33 33 34 35 34 34 34 31 32 30
49 48 47 46 50 43 38 40 44 43 35 36 39 38 39 43 40 41 44 41 38 37 38 36 35 38 37 36 33 31 30 29 29 31 31 31 31 32 34 35 34 34 32 31 31
48 47 47 47 44 42 39 40 44 43 24 35 38 41 43 43 38 44 46 42 39 37 38 38 38 38 37 35 33 29 30 30 30 30 28 30 27 27 30 31 32 34 33 32 30
47 47 46 48 41 40 41 44 44 41 9 34 39 45 42 40 39 41 45 44 37 39 39 37 37 36 35 35 32 30 30 28 30 28 26 26 26 26 23 23 29 30 33 31 29
47 47 46 46 46 44 46 45 42 20 17 35 39 37 38 40 40 43 44 47 42 40 40 39 41 39 37 37 33 33 31 30 30 27 21 26 25 23 23 22 21 25 29 29 29
48 48 46 46 40 45 46 41 22 13 30 33 36 37 37 37 38 39 40 39 34 32 33 37 37 40 40 34 35 31 28 26 24 26 20 25 24 23 24 25 24 24 26 27 34
48 48 48 46 45 46 44 31 15 25 33 37 37 38 35 36 36 37 37 36 38 35 33 32 30 37 39 35 32 30 27 22 18 19 20 25 24 23 26 27 27 27 27 32 36
46 43 44 45 46 45 38 17 19 26 35 36 37 34 35 37 36 36 35 36 36 36 30 28 30 38 40 38 36 33 27 27 22 19 16 21 21 22 23 24 25 27 31 33 36
39 40 42 46 46 43 36 27 28 35 34 34 30 34 34 35 34 34 35 35 36 38 35 31 29 35 38 40 38 34 34 27 22 14 15 16 19 19 20 22 27 29 31 32 35
40 38 43 46 45 42 29 25 33 36 34 30 28 28 31 35 36 35 34 35 37 38 36 32 30 33 37 35 35 35 33 32 29 24 18 18 18 22 20 21 26 29 31 33 37
35 34 44 45 39 39 26 33 37 33 34 33 30 29 28 29 31 29 34 33 38 37 34 32 31 28 31 37 38 37 35 32 28 24 21 19 20 21 21 22 28 30 31 35 39
33 35 45 45 35 30 32 34 35 34 33 32 29 30 29 27 28 30 30 33 38 34 32 32 30 27 29 32 35 37 37 35 31 27 22 19 21 23 22 23 28 29 32 36 39
34 29 35 42 40 32 32 33 31 36 34 31 30 29 28 27 29 29 30 33 33 32 38 35 29 25 22 23 30 33 34 37 35 28 26 24 23 24 22 22 24 28 33 38 38
31 29 30 32 32 32 34 34 33 33 34 34 30 30 28 25 27 29 31 31 32 36 33 29 25 25 26 27 29 29 31 33 34 34 29 28 26 26 23 23 24 29 34 38 38
26 25 30 28 29 30 31 34 32 32 35 33 31 33 29 30 29 27 30 29 29 31 30 30 23 25 21 25 29 28 29 32 32 33 33 32 30 29 27 25 26 29 35 38 38
32 32 31 25 20 27 19 25 28 30 37 35 35 33 33 33 34 34 31 30 30 29 30 28 25 19 16 25 24 21 25 26 30 33 33 31 32 28 29 27 28 30 36 37 38

GFSSW_sfc_dewp_054.txt.gz
Dewpoint
52 51 51 52 51 52 51 51 51 50 50 48 49 50 50 50 51 50 47 50 51 55 55 54 52 50 54 52 54 51 44 38 38 37 39 45 43 46 46 44 45 58 59 61 63
49 50 49 49 51 51 50 50 50 49 49 48 49 49 50 50 48 47 50 53 56 54 51 51 49 49 49 49 52 48 43 41 40 38 36 46 45 45 44 44 38 44 47 59 62
50 49 51 49 50 50 49 49 48 48 47 47 48 48 50 49 43 39 49 54 55 52 52 50 49 47 44 48 48 48 43 43 40 40 45 46 45 47 45 42 43 45 46 49 61
52 49 50 49 48 49 49 48 47 46 46 47 47 48 49 46 32 43 50 52 56 52 50 50 47 43 41 44 48 44 45 44 43 43 46 45 45 45 46 45 47 45 45 47 58
52 52 49 50 48 48 48 48 47 47 47 46 46 47 45 40 39 42 49 47 46 50 47 49 45 42 41 44 46 43 44 43 47 46 45 46 46 46 47 47 48 45 45 54 59
51 52 51 48 49 48 48 48 48 47 47 46 47 46 42 34 40 41 44 42 45 44 47 48 44 43 42 41 42 44 44 44 46 46 47 45 47 47 43 44 44 44 44 47 58
47 50 51 50 48 48 48 48 47 47 47 47 46 46 42 35 40 45 43 42 47 46 45 49 48 43 43 42 44 43 41 46 47 47 47 45 44 46 45 45 45 45 45 40 47
50 46 49 50 49 49 49 49 47 46 46 47 45 43 38 41 46 44 44 43 49 49 47 50 51 45 43 43 43 41 41 39 44 46 46 42 38 41 47 48 46 44 43 40 36
49 49 47 47 49 49 49 49 48 47 46 45 43 40 35 44 42 41 44 42 48 48 50 49 50 43 42 38 37 37 34 33 39 46 46 41 38 42 49 48 45 42 42 41 35
49 49 48 46 48 50 49 48 47 46 43 43 43 37 35 32 38 42 46 48 46 48 47 49 46 39 39 37 30 33 30 32 33 42 44 41 34 41 47 44 42 40 41 40 36
50 49 49 46 48 49 46 38 36 33 36 35 33 33 34 36 40 42 45 46 46 44 39 44 38 33 35 35 32 32 31 32 33 37 38 42 39 35 45 43 41 39 41 36 35
49 49 48 46 47 50 42 35 38 36 32 36 37 37 38 38 38 43 44 40 40 37 41 39 34 34 38 35 33 32 30 29 31 35 37 34 36 36 35 41 41 39 41 36 33
48 49 48 46 47 43 37 39 44 42 34 35 38 38 39 43 39 41 42 40 37 37 36 35 35 37 37 35 33 30 30 29 30 32 32 33 32 33 34 35 35 36 38 34 32
48 47 46 45 43 41 38 41 44 42 24 33 38 40 43 43 37 44 45 40 37 36 36 37 37 37 36 35 32 29 31 30 31 30 27 32 28 30 33 33 33 34 34 34 32
47 47 46 46 41 39 40 44 43 39 13 34 39 44 42 39 38 40 45 42 34 37 36 36 36 37 35 34 33 30 31 29 30 28 26 25 26 28 26 30 32 33 33 35 33
46 47 46 46 46 43 45 45 41 20 17 35 38 37 38 39 40 42 43 45 42 39 39 39 41 38 37 35 32 32 30 30 29 27 20 25 26 26 24 23 23 26 31 32 33
47 48 45 45 40 45 46 41 20 15 30 32 34 36 37 36 38 39 38 37 35 32 32 37 38 38 38 34 33 31 29 23 23 21 20 24 25 25 25 25 23 23 23 26 30
48 48 47 45 46 46 43 30 16 23 31 37 37 38 34 36 37 38 37 35 38 36 33 32 30 37 39 34 31 30 28 22 17 19 20 24 23 24 26 25 27 27 27 27 29
45 42 44 45 46 45 38 16 18 28 35 36 36 34 35 36 35 35 36 36 36 35 31 31 31 38 39 38 35 32 29 25 21 17 15 21 22 21 22 22 25 25 26 29 34
39 39 42 47 46 44 37 27 27 31 34 36 33 35 34 34 34 33 35 35 35 38 34 30 30 35 38 39 37 32 32 25 22 13 15 17 18 19 19 21 22 25 28 31 37
39 39 43 46 45 41 31 24 32 35 35 30 28 29 34 36 33 33 32 35 36 38 33 31 29 33 36 35 35 33 31 30 27 23 17 16 19 21 22 20 20 22 29 33 37
35 36 45 46 38 39 33 33 37 33 34 32 29 29 28 35 35 34 31 34 37 37 31 32 30 29 31 36 38 37 33 30 23 21 20 19 21 23 21 22 22 26 30 33 37
33 37 45 45 34 32 33 33 35 33 32 31 29 30 29 27 28 30 30 34 38 34 32 32 27 27 28 31 35 35 36 34 31 27 20 22 23 22 22 22 27 29 31 35 39
33 29 35 42 39 33 30 32 31 35 33 31 30 29 27 26 29 29 30 33 34 34 41 35 29 23 21 22 30 32 33 34 33 30 27 26 26 27 26 23 23 28 32 36 39
30 28 29 26 31 31 33 33 33 34 35 32 30 32 28 25 27 28 31 30 32 39 36 33 27 25 26 26 30 31 31 34 34 32 29 27 27 28 28 27 23 26 32 37 38
25 24 29 26 25 29 27 32 29 30 35 33 32 34 30 30 29 27 30 29 29 31 31 30 25 25 24 26 29 28 29 31 32 33 34 33 33 34 30 27 24 26 32 36 37
30 31 29 23 21 26 18 23 27 31 35 34 35 33 32 35 36 34 33 30 30 29 29 29 26 19 16 25 24 22 25 28 30 33 31 29 30 33 33 32 30 27 29 35 37

GFSSW_sfc_dewp_057.txt.gz
Dewpoint
51 50 51 50 49 51 50 50 50 50 50 49 49 50 50 50 52 50 47 49 52 55 54 54 53 52 55 53 54 53 45 39 39 38 40 45 42 46 45 44 45 51 52 57 63
53 51 49 50 49 51 49 49 49 49 49 48 49 49 50 50 48 46 49 52 56 55 50 51 51 50 51 51 52 48 43 41 40 39 42 45 44 45 43 41 41 45 47 47 62
53 52 50 49 50 48 49 48 48 48 48 48 48 49 50 49 43 39 52 51 53 55 51 52 50 48 48 50 50 49 42 42 42 42 46 45 44 46 43 41 45 45 45 46 52
51 52 51 49 50 47 49 48 47 47 47 47 47 49 49 45 30 43 51 52 52 54 51 50 49 43 44 46 48 45 47 44 43 43 46 43 45 43 45 43 47 47 45 47 52
47 50 51 51 47 48 47 49 48 48 47 47 47 47 45 39 39 41 48 46 45 52 48 49 46 43 40 45 47 44 45 45 46 45 45 45 46 44 45 47 48 45 46 46 50
49 48 48 51 51 47 48 48 48 47 47 47 46 47 42 34 39 41 43 42 45 50 48 49 45 43 41 45 43 45 44 44 47 45 46 44 45 46 43 45 45 46 46 46 44
50 49 48 47 50 50 49 49 48 47 47 47 45 45 42 37 40 44 45 43 44 48 46 48 50 43 42 42 43 44 42 45 46 46 46 45 43 43 45 47 46 46 45 45 44
51 49 48 48 47 49 50 49 49 48 46 46 45 43 37 41 45 43 44 43 44 45 47 50 51 45 43 44 41 41 41 39 45 47 47 43 35 41 47 46 45 46 45 44 43
50 49 48 48 47 48 50 49 49 48 48 46 43 40 34 45 41 38 43 42 45 48 48 50 51 44 42 40 38 39 35 36 41 46 45 43 39 40 47 45 43 42 44 42 42
50 49 49 48 47 48 50 49 47 45 43 43 43 36 37 32 38 39 45 46 45 46 45 44 45 41 40 38 29 34 34 34 37 44 45 41 36 43 46 45 42 42 43 43 42
49 49 49 48 47 48 47 38 35 33 37 33 32 32 34 36 40 41 44 45 45 44 38 41 36 35 37 34 33 33 34 33 34 43 43 42 40 38 46 45 43 43 43 41 41
49 49 48 47 46 48 41 34 35 35 32 35 36 36 37 38 37 41 44 40 42 37 38 36 34 36 38 35 33 34 31 33 32 40 40 40 41 41 41 44 41 41 40 42 40
49 48 47 46 46 44 37 37 43 43 33 36 38 38 39 42 39 39 42 42 38 36 35 35 36 36 37 34 32 31 32 30 31 35 34 35 34 35 38 42 42 42 41 40 39
48 47 47 45 42 41 38 41 44 42 22 33 38 40 42 42 37 44 44 40 38 35 37 37 37 35 37 34 32 31 32 32 33 32 31 32 28 32 34 34 37 40 40 40 40
46 48 48 43 42 39 40 44 43 37 13 33 38 45 42 38 38 40 45 39 35 36 37 36 36 35 36 35 33 31 32 31 31 29 28 27 29 29 31 33 34 35 36 36 37
47 47 46 43 45 42 45 45 38 21 17 34 38 38 37 37 39 40 42 43 40 37 38 38 40 39 37 37 32 32 30 30 29 27 25 26 28 26 26 26 29 33 34 35 35
47 48 45 45 40 45 46 41 21 14 30 32 34 37 38 37 38 39 36 35 34 31 32 38 38 40 39 34 33 31 29 28 26 26 22 24 25 26 26 25 25 25 25 28 33
47 46 47 45 46 46 43 31 18 27 33 37 37 37 35 37 37 37 36 32 37 36 33 33 30 37 39 34 33 30 29 24 19 20 22 24 24 24 28 27 26 27 28 28 28
46 44 42 46 46 45 38 16 26 30 36 34 35 31 34 36 37 37 37 36 36 36 33 32 32 39 38 37 34 32 29 25 22 20 19 21 22 22 23 21 23 24 27 27 29
40 39 41 47 46 44 36 27 30 30 35 38 32 35 31 33 33 36 35 36 36 39 34 31 31 36 38 38 37 32 31 27 25 17 17 18 18 19 20 21 22 21 22 27 32
39 38 43 47 45 41 33 30 32 35 36 30 29 31 36 36 34 33 33 35 36 37 33 31 29 33 35 35 34 32 31 30 27 24 20 17 18 21 22 22 21 22 23 29 35
36 37 45 46 38 39 35 34 37 34 34 32 30 30 33 35 35 32 31 34 37 37 31 32 31 30 33 36 38 35 31 29 25 22 22 21 21 24 22 22 23 24 29 33 37
33 38 45 45 33 33 34 34 35 34 32 31 29 30 29 28 29 32 31 36 37 33 32 32 28 27 29 31 33 34 35 33 30 27 22 23 22 24 23 23 24 29 31 34 39
33 28 36 43 40 33 33 33 32 35 33 31 30 29 27 27 30 29 31 34 35 37 39 34 28 24 22 23 30 32 32 34 33 30 26 26 26 27 29 30 29 26 31 34 38
29 28 29 26 30 31 33 32 32 33 35 34 30 32 28 25 28 29 30 31 34 38 36 33 27 25 26 27 32 31 31 33 32 30 29 27 27 28 30 30 30 26 28 34 37
25 26 28 24 23 27 28 31 29 30 33 33 32 33 31 30 30 28 29 29 29 31 34 30 27 26 22 26 29 28 29 31 31 31 31 31 30 33 34 34 33 29 26 33 36
29 30 26 23 21 27 19 23 34 34 35 36 34 32 33 35 35 35 33 30 30 29 29 28 26 21 19 24 23 20 25 28 30 32 32 30 31 32 32 33 35 35 33 28 34

GFSSW_sfc_dewp_060.txt.gz
Dewpoint
54 53 50 50 50 49 50 48 49 49 49 50 50 49 49 49 50 46 43 42 50 56 55 49 49 51 53 53 53 48 43 38 37 33 38 43 42 45 45 45 46 47 47 47 63
51 53 51 49 50 47 49 48 48 48 48 49 48 48 49 50 43 39 43 51 52 54 51 48 46 49 49 51 51 48 43 39 38 37 40 43 41 43 42 42 44 44 45 50 63
48 50 52 50 48 48 49 48 48 48 48 48 48 49 50 48 40 34 50 52 51 52 53 50 48 48 44 48 50 46 42 40 38 41 42 42 44 45 40 41 43 44 45 45 52
51 48 49 51 50 48 47 49 48 48 47 47 47 48 49 45 29 42 48 50 51 51 51 50 49 46 39 45 49 44 42 41 40 43 42 41 43 42 42 42 45 46 45 46 49
51 50 49 48 51 48 47 47 49 47 48 47 47 47 43 37 34 40 46 44 45 51 47 48 46 43 35 40 45 46 43 43 41 43 42 42 42 41 41 42 46 45 45 45 45
51 50 49 48 48 50 48 49 48 47 47 47 47 47 39 31 38 39 42 41 43 49 46 50 46 42 36 38 43 44 44 44 44 44 42 42 41 45 39 43 44 44 44 45 45
51 50 49 48 48 48 50 49 49 48 47 47 46 43 39 30 37 40 42 41 43 48 45 49 50 42 38 38 39 40 41 43 45 44 42 43 41 42 39 42 43 43 43 44 44
51 50 49 49 47 46 48 50 49 49 48 46 46 42 34 38 40 40 40 41 43 48 47 51 50 45 38 40 40 37 39 38 41 44 43 45 36 39 40 43 42 41 41 43 43
51 50 49 49 47 46 47 50 49 49 47 47 43 40 31 43 36 38 39 40 42 44 48 50 49 43 42 36 36 37 28 32 37 42 43 42 35 38 42 43 40 40 39 39 42
50 49 49 48 48 46 48 50 45 47 43 43 41 38 35 30 37 39 40 43 41 45 43 43 41 40 37 34 27 29 27 29 32 42 42 41 39 37 42 42 36 37 37 38 40
49 49 49 48 48 47 48 41 39 37 39 31 30 31 32 37 43 39 40 40 42 43 39 42 36 36 31 30 26 26 29 30 32 41 41 40 40 40 39 43 41 38 37 37 40
48 49 49 47 47 47 46 35 34 37 33 34 34 35 36 38 37 37 43 37 40 38 39 38 35 35 35 33 31 29 28 29 34 41 40 38 38 40 39 41 43 39 36 38 40
48 48 47 47 46 46 42 36 44 42 36 36 39 38 38 41 37 37 43 41 39 37 35 33 36 39 35 32 31 30 28 32 30 41 39 37 36 37 40 40 40 41 38 35 38
48 47 47 47 43 43 39 41 45 43 35 33 37 39 41 41 36 43 46 41 39 36 35 36 39 38 36 30 30 31 32 33 36 32 26 34 18 27 31 36 38 39 40 38 41
47 48 48 46 43 40 41 44 44 41 25 34 38 44 41 36 37 39 47 40 35 37 38 36 38 38 35 32 30 31 33 31 33 26 26 28 24 19 28 28 31 34 36 39 40
47 48 46 42 45 43 44 44 41 32 24 34 38 37 35 36 37 38 41 41 38 35 38 39 40 36 34 36 33 32 31 31 30 27 27 23 24 19 22 24 26 31 34 36 36
48 47 45 44 41 45 45 42 33 28 32 31 34 38 36 35 35 36 34 34 34 31 32 38 36 38 38 34 33 32 29 28 26 28 22 25 26 20 26 27 27 26 27 30 34
47 46 46 45 46 46 44 34 29 29 32 36 35 38 34 37 35 36 33 33 37 35 32 32 31 36 37 32 32 31 26 25 17 18 18 25 22 20 26 28 28 27 27 28 29
46 46 45 46 46 46 39 33 31 31 35 32 34 30 36 38 36 37 35 34 36 37 32 33 32 38 37 36 32 32 31 25 25 21 23 19 23 24 25 25 24 23 24 24 26
44 44 44 47 47 44 38 31 34 31 35 37 31 35 30 35 35 35 35 36 35 37 36 33 32 37 36 37 35 32 30 27 32 24 16 17 18 13 20 22 22 23 24 25 27
44 39 44 47 46 41 35 34 34 35 35 30 32 35 32 34 34 33 35 36 38 37 35 31 31 35 36 35 34 32 31 30 27 26 21 14 12 21 21 23 23 24 27 30 32
43 38 45 46 40 40 36 34 37 34 34 31 35 33 34 34 32 31 33 37 40 36 33 32 33 33 35 36 37 33 30 29 26 27 26 23 19 23 23 23 23 27 29 32 35
40 39 46 45 35 34 34 34 35 34 32 30 31 30 29 31 31 34 32 36 39 34 32 31 31 30 31 31 34 34 33 31 29 30 29 24 19 24 23 24 26 29 30 31 36
38 35 38 43 39 34 34 34 33 36 33 31 31 29 28 29 30 31 33 34 37 37 38 35 29 29 24 29 30 30 31 33 32 31 26 25 24 24 25 27 29 31 31 30 33
33 33 34 34 32 33 35 33 34 33 35 34 31 31 28 27 29 30 33 34 35 37 36 33 33 31 26 30 32 31 30 30 33 30 28 26 26 26 28 30 32 32 32 31 31
27 30 29 26 26 32 33 32 32 32 34 32 32 33 31 30 31 29 31 32 35 34 36 33 32 29 28 27 28 28 29 30 31 30 29 29 28 31 31 32 31 31 31 32 32
34 34 28 24 27 30 26 29 34 34 36 37 36 33 34 35 35 36 35 31 31 34 33 32 32 32 27 25 24 23 24 26 28 31 30 28 29 30 31 31 33 33 33 32 33

GFSSW_sfc_dewp_063.txt.gz
Dewpoint
50 52 54 50 50 50 49 48 48 48 49 49 49 49 49 50 50 44 41 42 47 51 55 50 47 50 49 51 53 48 44 38 36 32 33 40 40 44 45 45 48 48 48 50 63
51 49 50 53 49 48 48 49 49 48 48 49 48 49 50 50 40 38 44 47 51 52 49 48 43 47 44 49 51 49 44 40 39 35 38 40 38 42 43 44 44 44 49 61 64
51 51 49 49 52 49 48 49 49 48 47 48 47 49 49 47 39 35 49 51 53 51 50 51 47 45 42 45 48 47 42 42 39 41 41 41 41 42 41 42 43 44 45 51 62
52 51 50 49 49 52 48 47 49 48 48 47 48 47 48 42 30 41 48 48 50 50 51 47 48 44 41 40 47 44 42 41 44 43 42 41 42 41 40 43 44 43 44 46 55
52 52 50 50 49 49 51 47 49 49 48 48 48 48 43 35 31 39 43 42 42 50 46 44 46 45 39 37 44 45 43 40 42 42 40 42 41 39 40 41 44 44 44 44 47
51 52 50 49 49 48 49 51 49 49 48 47 47 47 37 29 34 35 38 38 39 46 46 47 46 44 37 32 40 44 46 44 43 44 42 41 40 41 39 41 42 43 42 43 44
51 52 50 50 50 48 47 49 51 49 49 47 47 41 37 32 33 37 39 39 38 43 43 48 48 49 40 32 35 41 42 45 43 45 40 42 41 41 39 37 41 41 41 43 43
51 51 50 49 49 49 46 47 50 50 49 48 46 39 33 35 37 37 37 39 40 44 43 50 50 47 45 33 35 38 41 39 41 43 41 42 35 40 41 40 38 40 40 40 42
51 50 50 49 49 49 46 48 50 49 49 48 43 38 30 42 36 35 37 36 39 44 48 49 47 44 40 34 34 36 32 39 40 40 40 40 35 38 43 41 40 39 39 38 40
50 49 49 49 48 48 47 48 47 47 44 39 37 35 35 29 34 39 40 41 40 43 45 45 40 39 38 35 29 28 26 29 35 39 39 38 34 38 39 39 38 37 37 37 37
49 48 49 49 48 47 47 44 41 39 38 33 30 30 30 36 39 39 39 39 41 42 37 39 34 37 32 31 24 23 23 20 28 36 38 38 39 39 36 39 40 36 35 35 36
49 48 49 47 47 46 46 39 33 39 34 34 34 34 35 39 36 37 42 37 39 37 39 37 34 36 33 28 25 23 24 25 27 39 37 36 36 36 37 38 39 38 37 35 35
49 48 47 47 48 44 43 36 41 41 36 35 38 37 37 41 38 37 41 39 38 37 36 34 36 38 35 30 26 24 25 29 30 33 37 33 31 33 36 38 38 39 40 37 34
48 46 47 48 43 42 39 39 44 41 35 33 37 38 39 41 38 45 44 40 38 37 34 34 39 36 38 28 26 24 25 25 27 33 27 32 21 27 30 33 38 38 38 38 38
46 47 48 47 42 40 41 43 43 41 27 35 38 42 39 36 39 40 42 42 34 35 33 35 36 36 38 28 27 27 29 29 33 31 24 29 25 19 22 26 31 35 37 37 39
46 48 48 43 44 43 43 43 42 32 23 34 37 35 32 35 37 40 39 39 38 36 36 37 39 40 37 32 31 33 32 31 31 25 26 23 21 15 20 22 21 25 29 32 34
48 45 46 43 41 45 44 41 34 29 32 30 36 37 36 31 32 35 34 34 33 32 32 37 37 40 39 33 33 29 28 26 24 28 23 23 20 19 23 24 25 25 27 28 31
47 46 46 45 46 45 44 36 29 30 29 33 36 37 34 36 35 32 32 32 35 31 35 34 31 33 34 31 31 28 24 23 16 18 18 24 20 18 23 24 26 26 25 27 27
47 46 45 46 46 46 41 34 33 31 34 30 32 35 33 36 34 35 33 31 30 35 33 34 32 37 36 34 32 31 31 26 23 20 20 19 19 22 24 23 24 23 23 24 24
44 43 43 46 47 44 40 31 34 33 35 35 29 35 35 35 34 36 33 36 34 36 35 36 33 36 36 35 34 32 29 25 30 22 12 15 14 13 19 21 23 24 27 29 31
44 39 45 47 46 42 37 35 34 35 34 30 32 34 34 35 34 32 34 36 36 36 34 33 33 36 35 34 32 31 30 29 26 26 21 11 12 19 20 23 23 26 29 31 32
43 38 45 46 40 40 37 35 38 33 34 32 35 33 33 33 31 30 35 37 38 35 32 32 34 32 35 36 36 32 28 27 24 26 23 23 19 21 22 24 24 27 30 31 32
38 37 46 45 35 34 35 35 35 33 31 30 32 32 29 31 31 31 34 37 39 35 34 32 34 30 32 32 34 33 31 30 28 31 28 23 18 23 24 24 25 28 29 31 31
38 35 39 41 38 34 33 33 33 36 32 31 30 30 28 29 31 31 34 38 38 36 37 35 31 30 26 29 29 30 29 30 30 31 25 23 22 23 24 25 26 28 31 31 31
36 32 36 34 33 32 35 32 32 31 33 32 30 30 28 27 29 31 34 35 37 37 36 34 34 31 26 30 32 31 28 29 32 31 28 24 23 25 27 29 30 30 30 30 31
28 30 33 33 31 32 34 32 32 33 34 31 30 31 29 29 31 29 33 33 32 35 35 33 32 31 32 27 28 28 28 29 29 29 29 28 27 28 29 29 29 29 31 31 31
33 33 30 29 30 30 29 32 34 35 36 36 35 32 33 34 34 34 33 31 33 34 33 33 32 33 28 24 24 22 23 25 27 28 28 26 26 28 30 32 34 35 35 33 33

GFSSW_sfc_dewp_066.txt.gz
Dewpoint
53 52 50 50 53 51 49 50 49 49 49 49 50 49 50 50 50 44 41 42 45 53 53 49 49 47 50 50 53 51 44 38 38 36 35 41 41 45 45 46 47 47 50 61 65
52 52 52 51 50 52 50 49 50 49 49 48 48 48 50 50 43 37 42 48 48 51 47 46 46 45 48 47 51 48 43 40 40 38 39 40 40 43 43 45 44 50 60 63 65
52 52 53 50 50 50 52 49 48 51 49 49 48 48 48 47 39 37 49 49 50 51 47 48 47 45 45 45 48 47 42 43 41 44 42 40 40 42 43 43 44 44 53 62 63
52 52 53 51 50 50 50 52 48 49 49 49 49 49 49 44 30 41 47 45 48 50 49 47 44 45 43 43 45 45 44 42 44 46 44 41 41 40 43 44 43 44 46 58 62
52 52 52 51 51 50 49 49 51 50 49 48 48 48 43 36 32 41 41 39 40 48 48 45 42 44 41 41 41 45 43 43 44 48 43 43 42 41 42 44 45 44 45 47 57
53 52 52 52 50 50 49 48 49 52 49 49 48 48 41 31 32 34 37 37 37 45 46 45 41 44 40 40 39 44 44 43 46 47 47 41 41 42 40 41 42 43 44 44 47
52 51 51 51 50 49 50 46 48 50 50 49 48 43 38 33 32 34 36 37 38 40 44 45 43 44 45 38 37 43 43 45 45 48 43 41 39 40 40 40 40 42 42 44 44
52 51 51 50 50 50 50 46 48 49 51 49 48 42 35 35 37 35 35 36 39 42 44 48 47 46 45 41 34 39 42 40 40 46 47 42 38 40 40 41 41 40 41 41 43
51 51 49 50 49 49 49 46 47 50 49 48 45 41 31 41 36 34 36 36 37 43 46 46 48 42 42 40 32 37 37 38 37 41 46 44 38 40 41 44 41 40 39 40 40
51 50 48 49 49 48 48 47 48 47 46 42 38 34 35 30 36 38 39 39 38 42 43 41 40 37 38 38 28 30 34 38 35 39 44 42 37 40 42 43 41 40 38 39 39
50 49 49 49 48 47 46 45 42 40 40 35 32 32 30 34 38 39 39 40 41 39 36 38 35 34 34 37 30 31 31 37 38 42 42 41 38 35 40 41 41 39 38 39 39
49 49 49 47 46 48 45 42 36 39 35 36 34 34 34 41 36 36 41 37 38 34 38 36 32 36 39 37 29 27 27 28 37 40 40 36 37 38 38 39 38 39 38 36 37
49 48 46 47 48 45 42 42 42 41 37 35 37 37 36 40 38 38 40 39 37 34 35 35 36 38 39 34 27 23 23 28 36 39 43 36 34 35 37 38 37 38 39 38 38
48 46 47 48 45 43 39 40 44 43 34 35 37 38 38 41 38 42 43 40 38 35 38 36 38 39 37 35 27 25 27 31 33 33 31 33 23 31 32 34 37 38 38 39 39
46 45 47 48 43 40 42 44 45 42 24 34 38 40 40 36 38 39 42 42 37 37 37 35 37 36 35 28 27 26 28 30 32 31 27 30 26 22 28 28 34 37 38 38 38
47 47 48 43 44 44 44 44 43 32 19 33 36 34 33 35 37 39 41 45 39 36 38 38 40 39 40 34 32 33 31 32 32 31 23 26 25 20 23 25 27 36 37 37 38
47 45 45 43 43 45 45 43 33 27 31 31 34 35 34 35 34 33 34 35 33 31 32 37 36 39 41 34 35 33 29 25 23 22 21 23 22 20 24 23 25 26 28 29 33
47 46 45 44 46 46 44 38 27 27 30 34 35 36 33 35 30 30 31 32 34 35 34 32 28 37 38 34 31 32 27 25 16 19 21 23 20 20 25 25 26 25 25 27 27
47 46 46 45 46 47 41 32 31 33 32 30 38 34 32 33 32 33 33 32 31 35 34 32 32 40 37 35 35 29 29 27 26 21 24 22 20 23 25 24 24 23 26 29 29
46 44 43 47 47 46 39 32 34 33 35 34 30 35 33 31 32 33 32 34 32 34 36 34 30 36 35 37 35 35 31 25 28 19 14 17 16 18 22 22 25 27 29 31 32
46 41 46 47 47 43 35 36 34 34 34 32 32 32 35 33 34 30 32 36 35 34 35 36 32 34 36 33 30 31 33 31 28 27 24 17 17 19 21 23 26 29 30 31 33
44 38 46 47 39 39 37 34 38 33 35 33 34 33 34 34 31 33 33 36 37 35 32 33 35 33 34 36 35 36 28 28 27 25 25 24 20 21 24 25 24 28 29 31 32
39 39 45 46 34 34 35 35 35 32 32 30 32 32 31 31 30 34 35 38 37 36 33 33 33 29 31 32 33 34 32 31 29 31 27 23 20 24 25 24 25 27 29 31 32
39 34 40 41 38 35 32 32 33 38 32 32 31 31 30 29 31 32 33 37 38 36 39 37 33 30 28 28 31 31 31 31 31 27 27 25 24 23 24 26 28 30 30 30 30
40 35 35 33 33 34 35 33 30 31 34 33 31 31 28 28 30 31 34 36 38 38 37 35 31 27 27 30 32 31 30 29 29 30 26 27 26 25 27 28 29 29 30 31 32
34 33 36 33 32 32 34 32 30 33 35 30 31 31 30 30 31 30 32 33 33 35 35 34 30 29 25 28 28 27 28 29 29 30 29 29 28 29 30 31 32 33 35 35 34
35 35 33 34 31 30 30 32 33 35 36 36 34 33 33 34 33 32 33 31 34 34 34 33 29 27 26 25 24 22 25 27 29 29 28 27 28 30 33 35 36 36 35 32 32

GFSSW_sfc_dewp_069.txt.gz
Dewpoint
53 52 53 51 50 50 52 51 50 51 49 49 49 49 49 50 50 44 43 45 45 52 51 48 48 49 47 50 52 53 43 38 38 39 38 41 40 44 45 46 50 52 56 61 64
52 53 53 53 51 50 50 52 50 49 51 50 49 49 49 49 45 43 44 47 49 50 47 46 45 48 45 47 50 49 42 40 39 41 42 41 41 42 44 45 53 60 63 65 65
53 52 53 53 52 50 49 50 52 48 49 50 49 49 50 48 43 39 47 47 47 53 48 46 47 46 44 46 46 47 41 43 43 45 46 42 41 43 44 44 45 58 61 63 64
54 53 53 53 52 51 50 49 49 51 50 49 49 49 49 45 33 43 47 45 46 49 48 46 46 43 42 42 46 45 44 42 46 47 47 42 42 41 46 43 44 56 62 62 63
54 54 52 53 52 50 50 50 48 49 52 50 49 48 45 39 38 45 43 39 40 47 45 45 43 42 39 41 42 43 44 44 43 47 48 47 42 42 43 44 43 45 60 61 61
53 53 52 52 51 51 49 50 47 48 50 51 49 47 43 36 36 39 38 38 38 44 45 47 41 44 42 41 41 42 44 44 47 46 49 48 44 43 43 44 43 43 47 56 60
52 53 52 51 51 50 50 49 47 47 49 51 49 45 41 39 36 36 36 37 41 41 43 46 43 43 42 40 40 41 42 45 47 46 46 49 44 41 43 43 43 42 42 45 48
52 52 51 50 50 50 50 49 47 46 48 51 48 44 38 39 37 36 36 38 41 42 45 47 47 44 42 42 40 38 41 40 44 48 47 44 38 42 44 40 40 42 41 43 44
52 51 50 49 49 49 49 49 47 47 50 48 46 43 36 41 37 37 37 36 38 44 46 45 46 43 44 39 37 37 34 37 39 46 45 46 39 41 44 40 40 41 40 41 42
51 50 50 49 49 48 48 47 48 48 46 43 43 39 35 32 39 39 40 39 39 43 42 41 39 38 38 38 31 32 34 36 37 40 43 42 40 41 41 42 41 40 39 39 40
50 50 49 49 48 45 46 44 41 40 42 36 36 34 34 40 40 40 39 41 42 40 34 37 35 33 35 36 36 31 32 36 36 39 39 40 40 41 42 42 42 41 40 39 39
49 49 48 46 46 48 44 41 38 38 35 39 37 35 35 42 37 38 43 38 38 34 37 35 31 35 37 36 36 33 36 36 38 41 38 39 38 41 40 40 42 42 41 39 39
48 48 46 46 47 46 41 42 43 42 35 36 37 38 38 41 38 39 42 39 36 35 35 34 34 38 37 37 36 33 33 35 35 39 41 39 37 40 40 38 39 39 40 39 38
48 47 44 46 45 44 42 43 43 42 32 34 38 39 40 41 37 41 43 40 37 35 35 36 39 38 36 36 35 28 29 34 37 38 34 40 30 35 36 36 37 37 38 39 39
47 45 45 46 43 42 43 44 43 41 14 35 38 42 40 38 37 39 45 40 35 36 38 35 37 38 36 35 35 29 34 36 38 36 31 33 27 25 34 34 35 36 38 39 39
47 47 48 44 43 44 43 43 42 30 8 34 36 36 35 38 38 39 42 43 41 38 37 36 41 40 39 40 32 36 33 34 34 31 24 29 26 23 28 32 33 37 38 38 38
47 47 46 43 43 44 43 41 32 24 30 32 32 35 36 36 36 37 37 35 33 29 32 35 37 39 41 34 35 33 29 26 24 23 22 23 24 24 23 26 27 34 30 36 39
48 47 46 44 45 44 44 35 24 25 31 36 35 36 32 34 32 31 32 30 34 35 33 26 25 37 39 33 30 29 26 24 18 18 21 23 20 19 25 26 25 25 26 26 26
48 45 45 46 45 45 40 30 27 32 33 35 37 32 31 33 33 33 32 31 32 36 33 32 32 38 39 36 33 32 25 26 22 21 20 21 22 23 25 24 26 28 30 31 31
44 44 44 47 46 45 37 30 33 34 35 36 32 35 31 29 31 33 33 34 34 36 39 34 30 37 36 36 34 32 30 22 24 13 15 20 18 18 22 24 28 30 31 32 33
45 41 45 47 45 42 33 33 34 35 35 33 32 33 30 32 33 32 32 35 35 34 35 35 31 31 34 34 32 32 31 30 28 26 22 15 16 19 22 26 29 29 30 31 33
43 35 46 46 37 39 35 33 36 34 35 34 35 34 35 34 32 33 32 35 37 35 32 34 33 29 30 36 35 35 32 30 26 24 25 23 19 24 25 27 29 29 30 32 33
39 40 46 44 30 34 36 35 36 34 33 31 33 32 35 31 31 34 34 38 37 36 34 33 28 27 27 29 32 33 33 32 31 29 25 19 18 25 24 24 25 28 30 30 31
37 34 41 42 38 33 33 34 34 37 33 32 31 31 30 30 33 32 33 38 38 37 39 36 32 25 22 24 31 31 32 32 30 23 26 26 21 23 25 26 28 29 30 31 32
38 33 35 33 33 34 34 33 33 32 34 32 31 31 29 30 31 32 33 37 38 39 36 34 27 25 28 29 31 30 31 32 29 29 25 26 26 27 28 29 30 33 35 35 33
35 34 35 33 33 34 33 32 32 34 34 30 30 32 33 32 32 30 33 34 34 35 36 34 27 27 25 28 27 27 28 29 30 30 30 29 28 29 31 35 35 35 34 32 33
35 34 33 33 31 31 32 31 35 36 36 35 35 33 33 33 33 32 32 33 34 34 34 32 27 23 21 24 23 20 24 27 29 29 29 28 28 33 34 35 35 36 37 36 35

GFSSW_sfc_dewp_072.txt.gz
Dewpoint
53 53 54 54 53 51 49 50 52 49 49 50 50 49 49 49 49 46 42 45 46 52 51 48 47 47 49 48 51 51 43 37 38 35 34 39 40 43 46 49 58 59 58 59 60
53 53 53 53 53 52 50 48 50 51 49 50 50 49 49 50 45 43 46 48 48 51 47 45 43 45 45 46 48 47 42 39 39 41 41 43 41 42 45 51 57 60 63 60 62
53 54 54 53 53 53 52 50 48 49 51 50 50 49 49 48 42 41 47 47 46 48 48 47 45 44 43 44 45 45 42 42 40 44 46 46 42 43 45 45 55 57 60 62 63
53 53 55 53 52 52 52 51 50 48 49 52 50 49 49 45 23 42 48 44 44 50 48 44 43 41 39 40 44 42 44 43 46 45 46 46 46 45 45 44 52 59 62 62 62
53 53 54 52 52 51 51 50 50 48 48 51 51 48 45 40 38 45 45 39 40 47 44 42 41 39 38 40 42 42 43 44 44 47 48 49 47 45 43 44 54 61 61 61 63
54 53 53 53 51 51 51 50 49 48 47 50 50 47 43 34 37 43 39 38 38 45 44 44 42 40 40 41 40 42 42 44 46 45 49 47 47 46 44 44 49 58 60 60 61
54 53 53 52 51 50 50 50 49 47 46 49 51 46 41 37 39 39 37 37 40 41 43 43 44 43 42 40 42 41 41 43 45 46 45 48 45 42 45 44 42 48 54 58 60
54 53 52 51 49 49 50 50 49 47 46 48 49 44 38 40 40 38 36 37 40 41 43 45 46 43 40 41 40 38 40 37 42 45 46 47 40 43 45 44 43 42 45 48 55
54 52 51 50 49 49 49 48 47 47 47 49 45 42 36 41 39 37 36 36 38 42 45 45 45 41 42 38 36 38 33 36 40 46 48 42 41 43 46 43 41 41 41 42 44
54 52 51 50 49 48 47 48 47 47 46 44 44 40 38 33 39 39 40 41 39 42 42 41 39 37 38 35 30 31 34 35 38 43 43 43 41 43 44 42 40 40 41 40 40
53 51 50 49 48 46 46 42 40 39 41 36 36 36 35 39 41 40 40 41 42 39 34 37 34 30 35 36 36 35 34 34 38 42 40 41 40 42 43 42 40 40 39 39 39
52 50 49 47 46 46 44 40 38 38 33 38 39 37 37 42 37 38 43 37 37 33 36 33 31 32 38 37 36 36 33 36 37 42 40 40 39 42 44 42 41 41 41 40 40
52 49 48 46 47 46 41 41 44 41 34 37 39 37 39 40 39 39 42 39 35 32 33 32 33 35 36 35 36 37 33 36 36 39 41 38 37 39 40 41 41 41 42 42 41
51 49 47 46 43 43 41 43 44 41 23 34 38 39 41 41 37 41 44 39 38 34 35 35 38 36 36 35 36 33 37 36 37 38 33 38 30 36 37 38 38 38 38 40 40
51 48 46 46 43 41 43 44 43 38 10 34 37 42 41 38 38 39 45 41 36 35 35 34 37 36 36 37 37 29 36 35 36 35 35 35 31 27 35 35 36 36 37 38 40
49 48 47 46 44 44 43 43 41 22 8 33 37 35 36 38 38 40 41 43 40 37 37 37 40 39 38 38 37 35 37 37 35 34 29 31 31 22 29 33 34 36 36 37 39
49 48 47 42 41 44 43 40 23 13 26 33 33 35 35 35 36 37 37 36 34 29 29 35 37 41 42 37 37 35 31 29 27 27 22 28 27 23 24 25 33 34 36 38 39
49 48 46 44 46 44 43 36 11 22 31 36 35 35 32 34 32 33 32 30 36 35 34 31 29 37 39 34 36 32 26 24 20 22 21 23 23 20 25 24 27 28 27 26 26
49 45 45 45 45 45 37 26 20 27 33 36 35 31 30 31 33 32 31 32 33 36 31 29 32 38 38 36 33 31 29 26 22 22 22 21 22 23 24 27 29 30 31 32 32
45 44 43 46 46 43 35 28 30 35 36 38 33 35 27 28 29 31 32 34 33 35 37 32 29 36 36 34 34 30 29 22 23 16 17 20 18 21 23 28 30 30 31 32 33
45 40 45 47 45 40 27 28 33 36 35 34 32 31 30 30 31 31 30 33 35 33 35 33 29 29 33 33 32 30 28 28 26 24 18 15 15 20 23 28 29 29 31 31 32
43 36 46 45 37 38 33 34 36 35 35 35 35 34 30 32 32 30 31 34 38 35 32 35 30 28 29 35 35 35 32 28 20 20 23 20 17 24 24 29 29 30 31 32 32
40 41 47 44 32 33 36 34 36 34 33 33 34 33 36 34 30 32 33 38 37 36 33 32 27 18 22 27 31 33 32 31 30 28 22 18 18 24 24 25 29 29 29 30 32
39 35 41 43 38 34 34 34 34 37 32 32 31 31 30 31 34 32 32 37 38 36 39 37 30 23 21 23 28 29 32 32 28 23 25 25 21 23 27 28 29 32 34 34 33
38 33 35 32 34 34 34 34 33 31 34 32 30 31 30 31 32 32 35 36 37 38 35 34 26 24 28 29 31 30 30 31 27 27 23 24 23 28 28 29 32 35 34 33 33
38 34 34 32 33 34 34 33 32 35 32 30 30 33 32 31 31 30 34 35 33 34 33 33 24 26 23 27 26 27 28 30 31 30 29 29 28 30 32 35 35 35 36 36 36
38 34 33 33 31 32 31 32 34 35 35 34 34 33 32 32 32 33 34 34 34 34 33 31 26 22 20 24 22 21 23 27 29 30 30 28 30 33 34 35 35 33 32 33 33

GFSSW_sfc_dewp_075.txt.gz
Dewpoint
54 54 53 53 53 54 52 50 49 51 51 50 51 50 49 49 49 45 41 42 47 51 51 47 46 45 47 47 49 50 42 38 39 37 37 36 36 43 47 50 58 56 58 58 61
55 55 55 54 54 54 54 52 49 48 50 51 50 50 49 49 45 43 46 47 50 48 47 44 43 43 42 44 45 44 40 36 42 41 36 41 40 42 47 54 56 59 62 61 62
55 55 54 55 54 53 52 53 52 48 49 50 52 50 49 47 40 39 48 50 46 48 47 46 45 43 40 42 42 42 39 38 40 42 45 45 43 43 46 48 54 56 57 61 62
57 56 54 55 53 52 51 51 51 50 49 49 52 50 49 44 14 40 48 45 44 49 47 43 43 39 38 37 39 39 40 42 42 43 46 45 47 43 45 45 52 58 57 59 61
58 56 54 54 53 52 51 51 50 49 49 48 51 50 44 39 38 41 48 44 43 47 43 41 40 39 35 38 39 39 41 41 44 45 48 48 47 46 45 46 59 61 59 58 61
59 57 55 54 54 51 50 50 50 49 47 47 50 48 42 34 34 38 43 38 38 45 43 43 41 41 37 34 38 39 40 41 44 45 47 44 47 47 45 45 59 60 60 60 60
60 57 55 54 53 51 49 49 49 48 46 46 49 46 41 37 38 39 39 37 39 41 43 43 43 40 39 35 36 39 39 39 42 45 44 47 43 44 47 48 55 57 58 59 61
60 57 55 54 51 49 49 49 49 48 47 46 49 44 36 40 41 39 38 38 38 41 43 45 44 40 40 40 40 38 39 33 38 44 45 45 37 46 48 47 46 51 53 57 60
58 57 55 53 50 49 49 48 47 47 46 47 46 41 35 42 40 39 36 36 38 41 43 43 43 41 40 35 35 35 33 32 38 44 45 44 40 47 48 46 45 45 45 46 52
58 56 54 52 50 48 47 47 47 46 46 45 44 40 39 33 38 39 39 41 40 40 41 40 39 35 37 34 28 29 31 32 35 41 42 43 39 45 48 44 42 42 44 42 43
58 55 53 52 49 48 46 42 41 39 41 36 36 36 35 38 41 39 41 41 40 39 33 37 34 30 33 36 36 32 33 32 38 42 41 42 38 41 46 46 43 42 40 40 41
57 54 53 51 47 46 44 38 38 37 32 39 40 39 38 41 38 39 42 36 37 31 35 33 30 32 36 37 37 33 33 34 37 41 42 39 40 42 45 45 43 42 42 40 39
56 54 52 49 46 46 42 39 43 40 33 35 39 38 39 40 38 38 41 38 34 31 31 31 31 33 36 35 35 35 32 35 35 37 38 38 37 40 43 45 43 42 42 42 41
55 53 51 48 43 43 40 42 43 39 21 31 37 38 40 41 37 41 43 39 38 33 33 35 36 33 34 33 34 31 36 37 37 36 33 37 30 37 38 41 41 41 40 40 42
55 52 50 48 42 41 42 44 43 34 8 30 36 41 42 38 38 40 45 40 34 35 35 34 36 35 31 33 36 32 37 37 36 34 35 35 30 28 36 36 40 39 38 39 39
53 52 49 46 45 44 43 43 39 21 7 32 36 35 37 38 38 41 40 42 39 35 35 37 40 36 35 37 38 39 37 36 37 35 28 33 30 22 31 33 35 36 37 37 38
53 51 48 45 40 43 44 39 24 12 25 32 32 34 34 34 36 36 37 36 35 31 31 37 38 41 39 38 39 37 35 29 27 26 26 31 31 27 24 27 31 33 35 36 37
52 51 48 42 45 44 41 33 12 20 29 35 34 34 31 33 32 34 32 34 36 36 33 30 29 37 39 34 33 31 27 28 22 22 22 26 27 22 25 27 30 33 30 29 29
51 48 46 46 45 44 36 27 19 24 35 34 33 27 25 30 32 32 33 33 35 37 32 31 32 38 38 36 33 30 27 26 23 22 24 22 21 24 27 29 29 30 31 31 32
46 45 44 46 46 41 32 27 29 33 38 36 30 30 25 27 28 29 30 33 34 35 36 33 30 34 35 35 33 30 28 23 25 20 17 20 19 21 24 28 29 30 31 32 33
45 41 45 46 45 39 30 27 31 36 36 36 32 31 29 27 30 30 29 32 36 34 35 32 29 30 32 33 31 29 28 28 26 24 19 17 17 20 24 28 29 30 31 32 33
44 36 45 45 37 34 28 33 35 35 35 34 35 31 29 31 30 29 29 33 37 35 32 33 29 28 30 34 35 34 30 26 20 19 21 19 17 24 25 29 30 30 31 31 32
41 40 47 44 30 30 34 32 35 33 33 33 34 35 34 32 29 31 32 37 37 35 31 31 27 17 21 25 29 31 32 30 28 25 20 17 18 25 27 29 29 29 31 33 33
41 34 41 43 37 30 32 33 34 37 33 32 31 30 33 31 33 31 31 37 38 35 39 36 28 22 19 22 27 28 31 30 27 20 23 22 21 27 25 28 31 34 34 32 33
40 35 36 33 34 33 34 34 33 32 34 32 30 30 29 31 31 31 33 35 36 37 34 31 25 24 27 28 30 29 29 30 26 26 22 24 22 29 28 31 34 34 34 35 35
38 35 34 31 33 33 34 34 32 34 32 30 29 32 31 30 29 30 33 32 31 34 32 31 24 25 23 25 25 27 28 30 31 29 29 27 28 29 34 35 35 36 35 32 32
41 38 33 33 30 33 33 33 33 34 34 34 33 32 31 32 32 32 34 34 33 32 32 29 25 21 20 23 22 20 22 27 29 31 30 28 30 34 34 35 32 28 28 28 29

GFSSW_sfc_dewp_078.txt.gz
Dewpoint
58 57 55 55 55 54 54 54 52 50 50 52 50 51 51 50 50 44 39 39 47 50 50 47 45 45 45 46 48 48 41 35 35 38 38 37 36 38 46 48 53 55 55 56 58
59 58 56 56 55 55 54 53 54 51 49 49 51 51 50 49 45 42 44 46 46 49 45 44 42 43 41 42 44 42 37 34 36 37 38 39 40 37 46 51 53 57 59 56 60
60 59 57 56 55 56 53 52 52 53 50 49 50 53 50 47 36 31 48 49 47 49 45 45 44 42 39 41 41 41 37 36 36 41 43 43 44 45 45 47 52 54 58 56 58
62 60 59 57 55 55 53 52 52 51 50 50 49 52 48 43 20 37 48 47 45 47 45 42 42 38 37 36 39 37 38 39 40 41 41 41 46 45 47 46 47 55 58 57 59
61 62 60 57 56 54 54 51 51 50 50 48 48 51 42 38 36 38 48 44 47 47 42 40 39 38 35 36 38 37 37 40 40 40 43 40 43 46 46 47 52 58 59 55 59
60 61 59 57 56 55 52 50 50 50 49 46 47 50 41 34 35 37 39 39 39 44 42 42 40 41 38 36 35 36 38 37 40 41 42 43 42 48 45 49 49 58 59 56 60
58 59 60 57 56 54 51 49 49 49 48 45 45 48 41 37 38 38 39 38 39 42 41 43 42 39 39 35 35 35 35 38 37 38 43 43 42 45 48 48 48 57 56 59 60
56 59 58 57 55 53 50 48 49 48 48 46 46 45 38 40 41 39 39 38 39 39 43 44 44 39 38 38 36 35 33 32 36 38 44 43 36 43 49 47 47 49 53 57 60
53 57 58 56 54 52 49 48 48 47 47 45 46 41 33 41 41 41 37 36 38 40 42 43 42 38 39 34 33 31 27 29 33 38 41 42 40 47 47 45 45 47 48 48 55
53 55 58 55 53 51 49 45 48 46 46 45 44 39 39 33 37 38 39 40 40 39 39 40 39 35 36 33 24 25 28 35 31 39 40 41 40 47 47 46 45 45 45 46 46
53 55 57 54 53 51 46 43 41 39 41 34 34 36 35 38 41 39 42 41 40 37 33 37 33 29 30 34 34 32 29 30 35 41 40 40 39 42 47 47 46 45 44 43 44
52 54 56 53 52 49 44 39 39 37 34 39 40 39 39 40 37 39 42 36 36 30 33 32 28 31 33 36 35 33 30 33 38 40 40 38 39 43 45 45 47 46 44 44 43
50 52 54 53 50 48 43 40 43 41 32 34 38 37 38 40 37 37 39 37 34 31 31 28 29 33 33 34 34 33 31 33 34 37 38 36 34 38 42 45 46 46 44 43 43
50 50 54 51 45 44 42 43 44 39 22 30 36 38 40 40 38 41 42 38 36 32 32 32 32 34 34 34 35 31 37 37 36 34 31 36 29 36 39 42 43 44 44 42 44
48 48 53 48 43 42 44 44 43 33 7 28 36 41 41 39 38 40 45 40 33 34 35 32 32 33 33 33 35 35 38 36 35 33 35 34 32 31 38 38 40 43 43 41 43
49 50 52 47 46 45 44 43 38 22 6 31 36 36 37 38 37 40 40 42 39 35 35 35 39 37 32 37 39 39 36 36 36 34 27 33 32 24 35 36 37 41 43 42 43
48 49 50 47 42 46 44 39 25 13 23 31 31 33 34 34 35 37 37 36 34 30 31 35 36 39 39 35 39 38 32 27 25 26 26 33 32 28 26 26 32 37 38 39 39
48 49 49 46 47 45 42 31 18 18 28 35 33 33 30 32 31 34 34 34 36 36 34 29 27 36 38 37 36 35 33 28 22 22 25 27 26 24 25 29 30 31 35 34 34
50 49 47 46 46 44 37 23 18 23 33 33 32 25 24 30 31 31 33 34 36 37 30 30 32 39 39 36 33 31 29 28 24 23 25 24 22 24 28 29 30 30 31 32 32
46 44 44 49 45 42 35 27 27 32 36 33 26 28 23 26 27 28 29 33 35 37 39 33 31 34 34 35 32 28 28 23 27 21 18 20 19 21 25 28 30 30 31 32 34
44 39 46 48 46 40 31 26 31 35 38 34 30 30 26 26 29 28 28 31 36 35 34 30 29 31 32 32 31 28 27 27 26 24 20 17 17 21 23 28 29 31 32 32 34
43 34 46 47 37 37 31 31 35 34 35 35 33 30 28 30 28 28 28 32 37 35 31 32 28 30 29 32 34 33 30 24 21 20 20 18 17 26 25 30 30 30 31 33 33
38 40 47 45 32 33 32 33 35 33 33 34 34 32 32 31 28 29 31 36 37 35 31 30 25 17 21 25 30 30 31 29 26 24 21 16 19 26 29 29 29 32 33 33 34
39 33 40 42 37 29 29 31 34 35 32 32 31 34 33 31 32 29 30 36 37 36 39 34 27 22 18 21 27 28 29 29 25 18 23 20 22 26 27 29 33 33 33 34 35
40 36 38 33 35 30 32 32 32 31 32 31 30 30 31 30 30 29 32 34 35 37 33 30 25 23 26 28 29 29 29 29 25 25 20 24 24 27 27 31 33 33 35 33 31
37 36 36 31 33 31 34 32 32 33 31 30 29 32 31 29 27 29 32 31 29 33 31 30 23 24 22 24 24 27 28 29 29 28 27 25 25 30 31 34 35 33 30 29 28
41 40 34 32 32 31 33 33 34 33 34 33 32 31 30 31 32 32 33 34 33 31 30 28 25 21 19 23 22 19 23 27 29 29 29 26 28 33 33 35 32 27 26 27 28

GFSSW_sfc_dewp_081.txt.gz
Dewpoint
62 60 59 58 57 56 55 55 54 54 51 49 50 52 51 51 50 45 39 35 47 48 50 47 45 44 44 45 48 48 40 34 35 37 36 39 39 41 43 38 49 51 48 55 61
61 61 61 59 58 57 56 54 53 52 53 51 49 51 53 50 45 42 43 44 46 46 44 44 43 43 40 42 44 43 38 34 35 36 37 39 39 39 42 40 44 53 56 58 63
60 61 61 60 58 58 57 54 52 51 51 51 50 50 52 47 32 24 47 48 48 48 45 44 44 42 39 41 41 41 36 35 35 37 40 42 43 42 42 40 39 46 55 59 61
58 59 60 61 59 57 57 55 52 51 51 50 50 49 49 42 30 33 48 48 50 47 44 42 42 39 38 36 39 37 37 38 38 39 40 41 42 42 47 41 40 46 55 58 57
57 58 58 59 60 57 57 55 51 50 51 49 48 49 43 37 34 35 46 45 48 46 41 40 39 38 35 36 37 37 35 36 38 40 39 39 40 41 43 48 49 48 56 57 55
54 54 56 57 60 57 56 53 50 49 49 48 45 49 40 36 37 36 38 40 41 43 42 42 39 40 38 37 35 35 36 35 35 35 38 39 39 43 42 49 49 49 52 56 54
51 51 54 57 58 57 55 51 48 50 48 47 44 47 41 38 37 39 39 39 39 43 40 43 42 39 38 32 37 35 33 33 33 38 34 40 38 40 43 48 48 49 51 55 56
50 51 54 56 57 55 54 50 49 48 47 47 45 46 39 41 41 40 39 38 39 40 42 43 44 40 38 36 33 32 33 28 27 35 35 39 33 37 47 46 46 48 49 53 57
51 50 52 55 57 55 52 50 49 48 47 45 46 42 35 40 41 41 38 37 37 39 42 42 42 38 37 33 28 30 25 27 26 36 34 38 35 39 48 46 45 46 47 50 55
49 49 52 54 56 53 51 47 48 47 47 45 44 38 36 34 37 38 39 39 38 39 38 39 38 36 34 32 23 22 27 27 26 32 35 36 38 46 47 45 46 46 46 47 49
48 49 51 55 54 52 49 47 41 39 42 36 36 35 35 38 40 39 42 40 39 37 30 36 34 29 31 32 32 33 31 27 29 32 35 35 38 40 43 47 47 47 46 45 45
47 48 50 55 53 51 44 41 41 40 35 40 39 38 39 40 36 39 41 36 36 31 34 32 28 29 31 34 34 32 29 30 35 31 35 37 36 40 43 44 48 47 46 46 44
46 48 49 50 52 49 44 42 45 41 33 34 39 38 38 39 36 38 39 37 35 32 31 28 26 32 32 35 34 33 30 29 34 37 37 36 35 36 38 40 45 47 48 46 43
46 47 47 50 46 46 43 44 44 39 28 31 36 37 40 40 38 41 41 38 35 32 31 30 32 31 31 34 34 30 33 32 34 33 32 36 29 36 38 38 42 43 45 45 46
45 47 47 49 44 42 44 45 44 36 18 31 37 41 41 39 38 39 44 39 32 33 35 28 35 32 33 34 36 34 37 36 35 34 33 33 30 32 37 37 40 42 43 45 44
45 46 48 48 46 46 46 44 37 27 18 32 37 36 37 39 38 41 41 41 40 35 34 34 36 36 34 36 39 39 35 36 35 33 26 32 29 27 34 36 37 41 42 44 46
46 46 46 47 43 47 46 39 28 22 26 32 32 34 34 33 36 38 37 35 33 29 30 34 34 38 39 35 38 38 30 27 25 26 25 34 32 29 27 25 30 38 41 42 44
47 47 45 45 48 47 44 34 24 23 27 34 32 33 31 32 32 34 34 34 36 34 33 27 20 35 38 37 35 34 34 26 21 22 26 31 28 25 28 30 30 31 38 40 39
48 48 45 47 48 47 38 28 25 25 32 32 30 25 24 30 31 31 33 35 36 37 32 31 30 37 38 39 38 33 31 29 25 25 25 24 24 25 29 30 31 31 32 32 33
45 44 43 48 48 44 35 29 28 29 34 31 26 27 23 27 28 29 29 36 35 38 38 34 31 34 35 38 36 31 31 24 29 20 22 23 19 21 26 29 31 32 33 35 36
44 38 46 48 47 39 31 30 30 34 36 32 29 29 26 27 29 28 29 32 36 35 36 31 30 34 33 33 32 29 28 26 26 24 23 20 17 24 25 29 31 31 33 33 34
42 35 46 47 35 36 32 31 34 35 36 34 32 31 27 29 29 28 29 34 37 36 31 32 31 30 30 33 34 34 29 23 22 21 20 19 18 26 26 31 31 32 32 33 34
37 39 47 46 33 34 32 34 35 33 33 34 33 31 31 30 28 30 32 36 37 35 32 31 26 21 23 26 30 31 30 27 25 24 21 18 19 28 30 29 32 32 33 35 35
39 32 39 42 38 32 29 31 33 34 32 32 33 34 32 31 32 29 31 36 36 36 38 32 27 22 19 22 28 29 30 28 24 22 23 20 23 27 28 31 33 32 34 33 31
40 36 38 33 35 31 31 32 32 31 32 31 30 32 31 29 29 29 32 32 34 36 33 29 25 24 25 26 30 30 30 29 26 24 21 22 24 26 28 32 33 34 33 30 28
38 36 36 34 32 28 33 32 33 32 31 29 30 31 30 28 27 27 31 31 30 32 31 30 24 24 23 24 23 27 28 30 29 27 27 24 24 29 32 34 34 31 29 27 28
41 38 35 33 29 28 32 33 34 33 33 33 32 30 31 31 32 32 34 34 33 31 30 27 25 21 20 22 21 19 22 26 29 30 28 25 28 33 34 35 30 26 27 28 29

GFSSW_sfc_dewp_084.txt.gz
Dewpoint
59 60 61 61 60 59 58 57 55 54 53 52 50 50 51 52 51 46 39 31 39 46 49 46 43 42 42 43 45 44 38 30 27 26 26 27 28 35 38 38 37 38 39 41 55
58 58 60 60 61 60 58 57 55 52 51 53 51 50 51 51 47 40 41 44 46 45 43 36 33 39 35 38 41 41 34 29 27 27 28 31 30 33 36 37 38 39 44 53 62
57 58 59 59 59 61 59 57 56 52 51 51 49 49 50 47 39 26 47 50 46 47 41 38 37 36 32 35 36 35 34 31 31 33 35 36 35 36 37 37 37 38 40 49 58
53 54 55 57 58 59 59 58 55 52 50 50 49 48 49 42 29 34 48 50 52 44 40 39 37 33 32 30 30 31 29 29 32 35 36 36 38 39 38 36 38 47 42 50 55
50 51 52 53 56 57 59 57 55 51 50 50 47 49 44 39 38 35 45 47 45 39 35 33 30 30 27 29 32 31 26 25 27 33 34 35 36 37 38 39 43 46 48 46 49
51 51 51 53 55 59 58 56 53 49 50 50 47 50 41 35 38 35 36 40 41 36 37 35 30 34 31 30 30 26 31 32 32 30 31 32 33 35 36 38 42 46 48 44 44
49 51 50 52 54 59 58 55 52 50 50 50 48 45 41 36 36 39 39 39 41 36 35 38 36 34 31 28 29 31 30 28 29 30 31 29 29 33 34 38 43 45 46 47 43
49 48 49 50 52 55 56 54 51 50 49 48 46 43 37 41 40 39 36 39 39 39 37 38 39 36 35 31 29 26 25 27 22 25 30 31 22 23 29 35 40 42 45 47 48
48 48 49 51 52 56 54 51 50 49 48 47 44 40 35 40 39 37 37 36 39 38 39 39 38 35 35 32 28 26 21 21 23 26 27 31 23 24 31 34 39 43 45 47 50
46 47 48 50 53 55 52 50 49 50 46 44 43 38 39 33 37 37 40 37 36 38 38 37 37 34 33 31 22 22 25 23 22 22 28 28 25 26 37 40 42 44 45 47 49
46 47 47 49 55 52 50 48 42 40 43 37 37 33 34 36 38 37 39 38 38 36 31 32 32 29 30 29 30 29 29 29 28 25 26 27 26 27 42 43 43 45 47 45 48
44 46 47 48 51 50 47 42 40 41 35 40 37 38 38 38 35 38 40 35 33 30 31 33 29 28 29 30 31 33 30 27 27 29 29 26 26 29 40 41 41 44 46 46 44
44 46 47 48 52 48 43 43 47 42 34 35 39 36 35 38 34 36 39 36 32 31 30 28 25 28 28 29 32 32 30 28 30 30 31 29 29 35 38 39 41 43 47 48 46
45 46 46 48 48 46 42 45 45 41 34 32 35 36 39 39 35 39 40 35 34 30 31 31 31 30 31 32 35 31 34 34 34 33 28 32 26 32 34 37 38 40 44 46 49
45 46 46 47 46 44 42 46 45 39 25 34 36 41 39 37 38 39 41 39 33 32 35 30 32 36 34 34 36 32 33 35 33 35 32 30 28 31 35 34 37 38 44 49 51
46 46 46 45 46 45 46 46 42 31 22 34 37 36 37 37 36 41 40 41 39 36 36 34 34 34 36 34 37 36 35 38 35 32 29 31 31 27 31 32 33 38 43 45 46
46 47 45 47 42 47 46 42 32 27 29 32 32 35 34 34 35 38 38 36 34 30 30 31 34 37 38 36 38 37 34 30 27 28 26 33 30 29 27 29 29 28 39 43 48
47 47 44 43 48 48 45 37 27 27 27 33 32 33 31 33 33 35 36 34 36 34 32 31 28 34 37 35 36 34 33 28 20 24 27 31 27 26 30 31 31 30 41 44 46
47 45 44 46 49 48 39 31 29 28 32 31 32 31 30 31 31 32 35 35 36 37 34 33 31 34 37 38 38 33 31 28 26 25 24 26 28 27 31 32 33 37 38 38 40
46 44 43 46 48 44 36 31 30 30 34 30 24 26 24 27 29 30 34 35 35 38 37 36 31 35 38 39 38 36 31 27 31 24 22 19 22 25 29 31 34 34 36 37 37
44 39 46 48 46 39 34 32 31 33 35 29 29 26 25 28 29 29 34 36 36 35 36 32 32 35 34 33 32 30 28 26 25 24 20 16 20 25 29 31 33 34 35 34 34
42 34 47 47 36 36 35 32 36 36 38 33 32 30 27 29 30 30 32 35 36 36 31 31 32 32 30 31 32 34 30 25 24 21 21 20 19 27 30 31 32 32 33 35 36
39 37 46 46 33 34 33 33 37 35 33 34 31 30 32 31 29 31 33 36 37 36 33 31 29 30 29 29 31 31 29 27 25 26 23 20 21 28 30 32 32 33 34 33 31
41 33 37 41 39 32 32 35 36 35 32 33 33 33 32 30 32 30 31 35 36 36 36 32 28 26 23 27 30 29 30 29 26 28 20 21 24 28 30 32 32 34 31 29 29
41 37 38 34 35 32 34 36 32 31 32 32 31 32 30 28 29 29 32 31 34 35 32 31 30 29 26 26 30 30 30 29 28 25 24 23 24 28 29 32 33 34 31 28 28
39 37 38 35 33 31 32 35 32 32 32 30 31 31 30 28 28 28 30 31 32 33 32 30 32 27 30 24 27 27 29 30 29 27 25 24 26 29 30 33 34 32 29 28 29
43 40 33 33 32 29 32 34 33 33 34 33 32 31 31 32 33 34 35 34 34 33 30 29 30 31 27 23 23 22 22 26 30 30 28 24 28 31 32 34 33 29 28 29 30

GFSSW_sfc_dewp_087.txt.gz
Dewpoint
56 58 58 59 60 61 61 59 58 56 54 53 52 51 50 51 53 48 41 39 35 45 50 40 39 37 36 38 40 40 35 28 26 25 23 23 21 26 29 31 32 33 35 36 57
55 57 57 56 58 59 59 61 58 56 52 52 53 50 50 51 46 41 46 45 42 46 40 35 30 34 30 32 36 37 32 27 25 23 22 22 24 24 23 28 31 34 37 39 56
52 51 52 53 55 56 58 60 59 56 52 52 50 49 50 49 41 29 49 51 44 46 41 35 32 31 28 30 32 32 31 29 26 27 31 31 32 33 28 29 29 31 33 38 49
52 52 52 52 52 54 56 58 59 55 53 52 50 48 50 44 29 38 50 50 50 42 38 34 32 31 28 25 29 27 26 26 28 29 30 32 33 32 33 33 32 38 44 45 42
50 50 52 52 51 53 55 57 59 55 52 51 50 50 46 38 35 39 44 50 42 37 32 29 27 26 25 22 25 26 26 24 22 23 25 29 31 31 32 34 36 36 43 45 44
48 50 49 51 50 52 54 58 57 54 52 52 49 50 41 33 38 35 33 43 40 37 33 32 27 28 28 24 24 23 24 26 28 27 26 25 26 27 29 32 34 37 39 43 44
47 48 49 49 50 52 53 58 56 52 51 51 50 45 40 34 36 37 35 34 39 35 32 34 33 32 28 25 25 24 25 26 24 23 26 29 27 26 25 27 31 33 37 44 46
46 46 48 48 49 51 52 57 53 51 51 50 50 42 35 40 40 39 36 35 38 37 35 36 37 35 33 30 28 25 24 21 19 19 21 26 23 23 22 19 26 32 36 41 45
44 45 47 48 48 51 55 53 52 51 50 48 44 40 32 43 38 36 34 34 37 37 37 36 37 34 32 31 28 27 24 19 18 20 20 23 23 22 20 18 21 29 32 38 45
44 44 46 47 51 53 53 52 52 49 47 44 41 37 36 32 36 36 36 35 35 35 37 36 35 32 32 31 22 20 22 22 20 21 20 23 23 24 21 18 26 26 32 38 43
46 44 45 47 49 52 50 47 42 41 42 37 36 33 34 35 37 36 38 36 36 35 31 30 32 29 28 27 27 26 25 23 22 23 28 25 20 20 21 36 32 33 36 39 43
46 45 45 47 48 51 48 43 40 42 38 39 36 36 35 36 35 37 39 35 34 31 29 31 29 28 27 26 27 27 27 27 26 27 26 30 20 21 22 35 40 39 43 45 43
46 45 46 47 51 50 45 43 48 44 36 37 37 35 35 37 33 36 38 35 31 29 28 29 27 28 27 27 29 30 31 28 29 28 30 26 23 21 22 35 40 41 43 46 45
46 45 46 47 47 46 44 44 47 44 36 32 35 36 37 37 34 37 39 35 31 29 29 29 30 30 30 32 34 30 31 33 34 30 24 25 19 18 26 33 37 38 40 45 47
46 45 45 45 43 44 46 45 45 41 26 33 34 38 38 36 38 38 39 37 33 35 35 29 30 30 32 35 36 32 38 34 32 30 31 25 26 21 27 30 33 36 39 44 46
46 45 45 44 44 43 46 45 42 32 26 33 36 36 35 35 36 40 40 41 39 36 37 35 34 33 32 35 38 39 35 34 33 32 28 30 32 28 30 31 33 38 38 45 50
47 45 44 45 41 47 46 42 32 29 31 31 31 34 32 32 34 37 37 36 34 30 31 31 32 34 36 37 37 38 37 30 28 30 24 30 33 27 29 30 30 30 40 48 49
46 47 45 42 46 47 44 36 28 28 32 31 31 31 28 31 33 38 37 34 36 35 33 30 30 32 34 34 35 35 34 31 22 24 26 33 32 33 32 30 31 34 47 47 45
47 45 43 43 47 48 39 32 31 31 30 28 30 29 30 30 33 33 33 34 36 34 33 32 32 34 36 37 38 34 35 33 33 28 29 32 31 32 38 35 40 42 44 42 44
45 43 42 44 48 44 35 32 31 33 31 27 23 24 25 27 31 31 32 37 35 37 37 36 32 36 36 38 37 36 34 28 31 26 22 21 24 27 35 35 37 37 38 39 40
44 39 45 48 46 39 33 35 36 35 31 28 25 23 25 28 29 29 32 36 37 37 37 34 32 34 37 35 32 32 28 26 25 24 24 16 22 27 31 38 34 34 36 38 39
41 35 46 47 36 38 36 35 38 37 36 32 30 26 26 28 29 29 30 33 35 35 31 31 31 31 29 31 32 33 27 25 23 21 22 20 23 30 32 35 33 34 36 36 36
38 38 46 46 33 35 33 37 38 37 34 32 29 29 31 29 28 30 32 35 35 35 32 31 29 30 28 29 31 29 28 26 24 27 21 22 23 30 31 32 33 32 31 30 30
40 34 39 41 39 32 32 36 37 36 32 32 32 32 30 28 30 30 30 34 34 34 36 35 28 28 25 28 30 29 28 25 26 27 20 22 26 28 30 32 33 31 30 30 30
40 36 37 35 33 31 35 37 31 31 32 31 30 30 28 25 27 27 29 29 31 37 32 31 31 30 26 27 30 29 28 27 28 23 22 22 24 28 30 31 33 31 30 29 30
36 36 37 33 32 30 35 30 29 32 32 29 30 29 27 28 27 25 27 28 28 31 31 31 34 29 33 25 27 26 26 28 28 27 24 24 26 29 30 32 33 31 30 30 30
42 39 32 32 30 29 33 33 32 33 33 33 31 30 31 33 34 34 34 33 32 31 29 30 31 33 28 24 24 23 22 26 29 29 29 23 28 29 31 33 33 31 30 30 31

GFSSW_sfc_dewp_090.txt.gz
Dewpoint
53 55 55 56 56 57 58 60 61 58 57 54 54 52 51 51 51 50 46 40 40 44 47 38 38 36 36 37 40 40 35 32 29 27 27 27 23 23 22 25 29 29 31 33 61
52 53 53 53 54 54 55 58 60 60 57 53 54 53 50 51 46 42 46 45 45 46 41 35 31 34 33 33 36 37 34 32 29 26 25 23 23 27 28 24 26 30 33 35 61
49 51 52 52 52 52 54 55 58 60 56 53 53 51 49 49 44 38 49 50 44 45 41 35 32 30 29 30 32 33 32 33 29 29 29 30 29 31 31 32 32 28 31 33 39
50 48 50 50 52 51 51 55 56 58 56 54 52 51 50 46 33 45 51 50 50 44 38 33 32 33 30 26 27 27 27 27 29 28 28 28 30 32 31 31 33 34 39 45 44
48 50 50 50 50 50 51 53 55 57 56 54 52 51 46 39 36 48 53 52 43 38 33 30 28 28 25 24 25 24 25 25 27 27 23 23 26 27 29 31 31 32 37 39 43
46 48 48 48 50 49 50 53 54 58 55 54 52 51 44 33 37 40 41 46 39 35 34 34 29 30 27 26 24 23 25 24 26 26 28 26 25 25 25 29 29 31 33 36 39
45 45 45 46 48 48 49 52 53 57 54 53 51 45 41 35 36 35 32 40 40 35 32 35 35 34 31 28 26 25 25 26 26 26 25 26 25 26 26 26 26 26 31 33 37
47 45 45 45 47 49 51 52 56 54 54 52 51 43 37 40 38 37 35 34 39 36 35 38 39 36 33 32 29 27 26 23 24 24 24 24 19 23 26 26 25 24 25 32 40
47 46 46 46 47 52 53 55 54 53 54 52 45 42 34 43 38 36 34 34 36 36 39 35 39 34 34 30 29 27 23 22 21 23 22 21 19 22 23 22 22 22 20 28 37
47 46 46 45 47 51 54 53 54 51 48 44 42 38 36 33 37 36 35 36 37 37 36 36 36 34 32 32 19 22 23 23 22 23 24 24 20 22 23 21 21 18 18 26 32
47 46 46 46 47 48 51 48 43 42 44 38 37 33 33 35 36 36 36 36 35 33 30 33 31 28 28 29 30 28 27 24 24 24 23 25 25 27 26 23 24 25 22 25 32
46 46 45 46 47 50 50 45 42 43 39 39 37 34 34 35 33 36 38 35 33 31 31 31 27 28 27 28 28 27 26 27 26 27 27 27 28 27 27 24 27 37 36 43 44
47 46 46 46 47 50 45 45 49 45 38 38 38 36 35 37 32 35 38 35 32 28 27 27 26 28 28 29 30 29 28 29 29 30 30 30 29 28 28 23 37 41 43 44 44
47 46 45 45 45 47 44 48 48 45 34 33 36 34 36 36 33 38 39 35 33 29 29 29 30 28 29 32 33 29 31 33 33 31 25 27 20 23 21 20 34 38 41 44 47
46 45 44 44 42 43 45 48 47 45 23 33 33 37 36 35 37 37 39 37 32 31 35 29 29 31 31 31 34 34 36 36 34 32 29 29 26 17 23 29 30 36 40 45 48
45 45 43 43 44 44 49 47 44 32 24 34 35 35 34 36 36 38 39 40 39 37 35 33 35 34 32 32 34 40 35 34 32 32 25 29 28 21 23 26 32 35 38 46 49
47 46 42 44 42 47 46 43 31 26 32 30 31 32 31 31 34 35 35 34 34 30 31 33 32 33 34 34 36 38 33 27 23 22 26 33 28 33 31 30 34 37 44 48 48
47 46 44 43 46 48 44 36 26 33 32 32 31 32 33 30 32 35 34 34 35 34 33 29 24 32 34 35 34 35 35 29 21 24 27 33 30 33 39 32 32 43 46 44 44
47 46 44 44 46 47 40 30 30 34 31 29 30 30 30 30 31 34 34 32 34 34 33 30 29 35 36 37 37 34 34 36 32 32 30 32 33 37 40 39 43 44 43 43 42
44 43 42 46 47 44 36 32 35 36 29 29 24 25 26 27 31 34 33 36 33 36 37 34 30 36 37 38 39 36 36 28 31 25 24 29 28 32 36 36 37 37 40 41 42
42 39 45 47 46 39 32 34 36 34 33 30 24 24 27 28 31 31 33 36 37 37 36 35 34 34 37 35 32 33 30 30 26 26 27 20 28 38 37 37 36 38 39 40 40
41 35 45 48 37 37 35 35 39 36 36 31 29 27 27 30 29 30 30 33 35 35 33 34 32 31 31 32 33 32 28 25 23 23 24 24 28 37 36 37 38 37 38 40 40
39 39 45 46 34 35 37 38 38 34 32 30 28 30 31 29 29 31 32 35 36 35 33 33 29 26 27 29 31 30 28 27 26 29 22 22 25 32 37 33 34 36 36 37 38
39 34 40 42 40 34 36 36 34 37 31 32 31 32 30 29 30 31 30 35 35 35 38 35 29 27 23 26 30 29 28 27 28 24 24 25 27 30 32 32 31 31 31 30 30
39 36 38 35 33 34 36 35 31 30 33 32 31 30 29 27 27 27 29 29 33 37 34 32 28 27 26 27 30 28 28 28 27 24 23 26 27 29 31 32 31 30 30 30 30
38 36 38 32 31 33 35 31 31 32 33 29 30 30 30 30 31 27 30 30 29 31 30 31 29 28 26 25 27 25 25 28 29 29 25 26 27 30 32 33 31 30 30 30 31
42 40 37 33 30 31 32 33 33 35 34 33 33 31 32 34 35 33 33 32 31 30 30 30 30 27 25 26 24 23 22 25 28 30 30 28 29 30 32 33 33 30 30 30 31

GFSSW_sfc_dewp_093.txt.gz
Dewpoint
51 50 53 54 54 54 54 55 57 60 58 57 56 54 52 50 51 49 47 44 42 43 43 42 39 38 37 34 38 39 34 33 32 31 30 29 26 26 29 26 26 29 32 50 61
51 50 50 51 52 52 52 53 55 58 60 58 55 54 52 50 48 45 47 44 46 46 45 41 33 35 32 33 34 36 34 34 34 32 29 28 29 30 31 31 32 33 34 44 62
48 50 50 52 51 50 52 51 54 57 59 57 55 54 51 50 45 43 48 47 46 44 44 37 33 32 29 30 31 31 33 34 34 34 33 30 26 29 32 31 32 32 32 33 46
48 47 49 49 50 50 50 50 52 54 56 56 55 52 51 48 34 47 52 47 46 47 43 37 34 32 29 26 27 26 26 27 30 29 28 27 25 23 30 31 32 31 33 34 37
48 46 47 48 47 49 49 49 52 54 56 57 54 52 47 42 40 50 52 51 46 43 38 33 28 28 26 26 27 25 26 27 28 29 27 27 28 25 24 27 29 30 32 32 34
48 47 45 45 45 46 48 48 50 53 57 56 53 52 45 35 45 49 50 48 39 39 35 34 32 32 28 27 25 24 26 26 27 27 28 26 26 29 26 26 26 27 28 28 31
49 48 47 46 46 46 49 51 50 52 55 55 53 45 41 36 35 37 42 46 42 39 35 38 36 34 33 30 30 28 27 29 28 27 26 27 24 24 26 28 27 26 26 28 30
48 47 47 46 46 48 50 53 52 52 57 56 52 45 38 42 36 35 34 37 39 38 39 38 38 36 33 32 31 29 27 24 26 28 28 28 21 22 23 25 26 26 26 27 28
47 46 47 46 47 47 53 54 55 56 54 53 48 45 37 43 38 39 35 37 38 38 39 35 39 34 33 28 24 26 20 23 24 28 27 26 20 23 22 23 24 25 26 26 27
47 47 46 46 46 48 53 55 56 53 50 47 42 39 38 36 39 36 35 39 39 39 38 37 35 29 30 25 12 19 21 23 23 25 26 25 24 26 25 22 21 20 21 22 24
47 46 46 45 46 48 50 47 42 39 45 38 38 35 35 37 38 37 37 38 36 34 29 34 25 25 26 28 29 29 27 26 27 29 27 25 25 27 30 29 28 22 21 23 20
45 47 45 46 46 51 48 43 44 45 38 42 37 35 35 37 35 37 39 35 32 31 33 29 25 28 30 29 29 28 27 27 28 29 29 30 29 30 32 30 29 26 27 34 28
47 46 46 45 47 48 45 45 48 46 37 39 38 35 36 39 34 36 38 36 33 30 28 27 26 28 28 28 28 28 27 28 28 31 32 32 28 28 29 32 31 29 38 44 46
46 46 45 45 43 46 44 48 49 46 33 35 36 36 36 39 34 39 40 37 34 29 30 29 30 29 29 29 32 29 31 31 35 33 21 29 19 23 27 28 27 31 41 43 45
45 44 43 45 43 42 43 48 49 44 19 34 34 38 38 37 38 38 42 38 33 33 33 26 32 31 31 31 33 32 36 36 36 31 29 25 26 23 22 22 21 33 40 44 46
46 44 43 44 44 45 49 48 45 29 21 34 35 35 35 36 38 38 39 40 39 35 34 33 35 34 33 32 31 35 35 34 33 31 21 27 22 22 25 27 28 35 41 47 46
45 44 42 44 41 46 48 43 29 19 35 30 33 34 32 34 35 35 35 34 32 27 24 31 33 35 34 32 35 36 34 25 22 22 20 32 26 28 36 39 36 36 46 45 44
46 45 45 45 46 46 43 35 19 33 31 32 32 31 34 32 35 35 35 31 34 31 30 27 19 33 35 34 33 35 34 29 21 24 27 32 28 33 39 44 45 44 44 44 44
46 43 42 45 46 45 36 27 29 33 32 30 32 33 31 32 33 33 32 30 35 34 31 30 25 35 37 37 38 33 34 36 32 32 26 30 33 37 37 37 42 42 42 42 43
40 42 42 47 46 41 34 32 35 37 34 31 27 28 27 29 30 33 32 35 32 36 37 34 29 34 36 38 38 37 37 27 29 24 25 28 29 31 33 34 37 38 40 41 42
41 40 44 47 44 37 32 34 36 37 35 35 25 27 27 29 32 34 32 35 36 36 37 35 35 32 37 34 32 32 32 31 28 27 25 21 27 36 34 36 37 39 39 39 40
40 34 43 45 32 38 33 35 38 37 37 31 30 30 28 30 30 30 30 34 37 35 34 36 33 30 31 32 34 32 31 25 23 22 23 24 29 38 38 38 38 38 40 40 40
38 39 43 42 33 34 37 36 38 36 33 30 30 32 31 29 28 30 32 35 36 35 33 33 28 21 22 24 29 30 29 28 27 26 23 21 26 37 37 37 38 38 39 40 40
36 28 34 38 36 34 33 33 34 36 32 33 32 32 30 28 30 30 31 35 34 34 39 34 29 25 20 25 29 28 28 29 26 21 25 25 27 31 32 32 35 36 35 32 31
36 31 33 27 31 33 34 34 32 32 34 31 30 30 29 27 27 27 28 30 34 38 34 32 25 24 27 26 28 27 26 29 28 26 23 27 28 30 32 31 30 29 30 30 30
35 33 36 34 30 32 33 32 33 33 33 32 32 33 34 32 32 30 31 30 30 31 31 31 25 27 25 25 25 23 24 27 29 29 27 27 28 31 32 30 29 29 30 30 31
40 39 33 31 29 30 32 32 34 34 34 34 34 32 33 34 34 33 33 32 31 31 29 29 27 23 23 28 24 22 22 25 28 30 30 27 30 32 32 32 30 30 30 31 31

GFSSW_sfc_dewp_096.txt.gz
Dewpoint
49 51 51 51 52 53 53 53 55 58 60 59 57 55 52 50 51 49 47 48 44 42 41 43 38 37 35 33 36 39 34 32 33 32 32 30 29 30 32 31 32 33 33 34 46
48 49 50 51 52 51 51 52 52 55 57 60 58 57 53 51 48 46 49 47 47 44 43 38 31 33 32 32 33 36 33 33 34 33 32 32 31 27 28 29 32 33 33 33 39
49 48 48 50 51 50 50 50 51 53 55 59 57 56 53 50 45 43 50 48 45 43 44 38 34 31 29 29 30 32 32 35 34 34 34 29 26 26 25 27 31 31 31 32 36
49 48 47 47 47 48 49 49 49 52 54 59 57 55 52 48 33 46 51 47 46 47 42 36 33 30 28 25 28 26 28 27 29 30 30 28 27 26 25 24 30 30 31 34 32
49 49 48 45 46 46 46 48 49 50 53 57 57 53 47 42 41 49 49 50 44 41 36 32 28 28 26 26 26 25 24 25 26 27 26 25 27 27 27 28 26 27 29 30 31
48 48 48 48 46 46 46 47 48 49 52 57 55 53 44 35 47 50 49 44 38 37 34 35 33 31 27 27 25 25 30 29 30 28 28 26 25 27 26 27 28 28 28 27 28
49 47 48 47 47 47 48 49 51 51 52 58 54 45 41 36 46 49 48 45 41 38 36 39 37 33 33 30 31 30 27 28 27 29 27 27 23 23 23 26 24 24 24 28 28
48 48 47 47 47 47 48 49 53 51 52 56 53 46 38 41 36 33 36 39 39 40 39 39 38 35 33 32 31 28 26 23 25 28 29 27 20 22 23 24 23 23 22 23 30
46 49 48 47 47 48 54 54 54 52 55 53 48 45 35 43 36 35 36 38 38 38 38 36 38 34 32 27 21 24 18 22 24 28 28 28 24 26 25 24 23 22 23 24 28
47 47 47 46 46 50 49 55 54 54 50 48 44 41 39 36 39 39 37 39 38 39 38 36 35 27 28 21 8 18 19 23 23 25 27 28 27 27 27 27 22 21 21 21 22
45 47 46 46 46 50 47 49 43 42 45 41 39 37 39 39 38 36 39 39 38 35 29 33 24 23 24 28 26 26 25 25 26 28 28 28 27 28 29 28 28 28 26 23 22
46 46 46 46 49 48 49 42 44 42 39 41 38 36 36 38 35 37 39 35 33 29 31 27 21 27 29 29 29 28 27 26 27 29 31 31 30 31 32 31 30 30 31 28 26
46 46 46 45 49 48 45 45 49 47 38 39 38 34 37 38 36 36 37 36 31 29 30 27 26 28 28 28 27 25 23 26 26 29 32 32 28 28 29 32 32 32 33 32 32
45 45 44 45 43 46 43 48 49 47 33 34 36 36 37 39 36 39 39 38 34 29 32 29 30 29 29 29 29 27 30 30 31 32 26 30 20 24 24 29 31 32 33 34 42
45 45 45 46 42 41 44 48 49 45 20 36 37 39 38 37 38 38 42 38 32 32 33 26 31 31 30 29 32 29 34 33 36 33 30 27 24 22 23 22 28 24 30 42 45
44 45 44 43 44 46 48 48 45 26 21 34 35 35 35 37 37 39 39 40 39 34 33 32 35 34 32 32 33 32 32 35 35 32 18 26 22 20 30 34 37 33 43 45 46
46 46 44 45 40 46 46 40 25 21 36 30 33 35 34 34 36 36 35 34 30 23 24 29 33 35 34 32 35 33 33 23 16 22 20 32 22 21 36 40 40 39 43 45 45
46 46 46 45 46 46 42 30 20 31 31 33 31 32 31 34 35 34 34 32 35 31 29 27 19 32 35 33 33 34 34 28 20 23 25 32 25 32 37 39 42 44 43 44 44
45 41 42 45 46 43 34 27 28 29 30 31 33 31 32 33 34 33 33 31 33 33 29 30 22 33 35 36 37 34 33 37 31 32 22 29 33 36 36 36 40 41 42 42 43
40 40 42 46 46 39 33 32 33 36 33 33 27 29 27 30 31 33 32 34 32 35 36 34 31 32 36 38 37 37 37 30 30 20 24 28 29 30 33 33 38 39 40 41 42
40 35 41 45 43 37 31 32 35 37 34 32 27 27 27 29 30 32 31 34 35 36 36 35 33 29 35 32 30 32 32 32 30 27 25 22 28 35 34 34 36 39 40 40 41
38 29 40 44 33 34 29 36 38 37 38 33 30 29 28 29 31 31 30 33 37 37 35 35 33 29 29 31 34 32 30 28 23 22 24 24 29 38 37 37 38 39 40 40 40
35 35 41 40 28 30 34 34 37 34 32 31 31 32 31 29 27 30 33 35 37 35 33 33 27 20 19 22 28 30 30 29 27 25 23 21 27 36 36 38 39 38 38 39 40
33 28 34 37 35 31 32 33 33 35 32 32 31 31 30 28 30 30 30 35 35 35 39 35 29 24 20 24 28 28 27 29 25 21 24 24 26 30 32 35 35 35 36 33 31
34 30 33 27 31 32 32 33 31 31 33 33 32 33 29 28 28 29 30 30 33 37 34 32 26 24 26 27 27 27 24 27 27 27 22 27 28 30 32 31 31 31 30 30 30
34 32 34 33 31 30 33 32 32 32 32 31 32 33 33 31 31 30 31 30 30 30 31 31 25 27 23 26 25 24 23 26 29 29 27 28 28 31 32 30 29 29 30 30 31
39 38 33 29 29 29 31 32 33 33 33 34 33 32 31 33 34 34 33 32 32 30 29 29 27 22 18 26 25 22 22 25 28 30 30 26 29 32 30 30 29 29 30 31 31

GFSSW_sfc_dewp_099.txt.gz
Dewpoint
50 48 49 50 52 52 52 53 54 55 58 60 58 56 53 51 50 48 45 45 47 42 43 43 36 35 34 32 36 39 34 30 32 32 32 32 31 30 30 30 29 33 33 33 34
51 50 48 49 52 52 51 51 52 53 55 57 60 57 53 51 47 45 48 47 46 46 41 34 30 34 31 31 33 36 32 32 35 34 33 33 30 27 25 24 28 32 32 31 35
51 50 49 46 48 51 51 50 50 50 53 56 60 58 54 50 44 42 50 46 46 45 43 37 33 31 28 28 29 34 32 34 34 33 33 30 27 27 24 25 28 26 30 29 33
50 50 49 48 45 46 46 49 50 50 51 55 59 57 53 48 32 45 49 47 46 46 39 34 32 29 26 25 28 25 27 28 29 29 28 26 27 25 25 25 26 28 29 31 30
49 50 49 47 46 45 45 46 47 49 50 55 59 55 48 41 41 48 49 49 41 38 34 31 28 27 27 26 26 24 25 28 29 30 27 26 26 26 25 26 27 28 30 29 30
48 48 48 48 47 46 46 46 48 48 50 54 56 53 45 34 45 48 44 40 37 36 36 36 32 30 29 27 25 28 30 29 30 29 29 27 24 25 25 26 25 26 27 28 28
47 48 47 47 47 47 47 48 50 51 51 53 56 49 40 41 49 48 45 42 39 37 37 38 36 32 32 28 31 30 27 28 27 28 26 28 24 25 22 23 23 23 23 25 28
46 47 47 48 47 47 47 50 52 50 51 53 54 49 39 41 41 44 40 39 39 39 39 39 37 35 31 31 29 28 26 22 21 27 28 26 19 22 25 23 23 23 24 24 26
46 46 47 47 46 47 50 53 54 52 52 55 50 46 34 41 34 35 39 38 38 38 38 37 37 33 32 24 18 22 17 20 23 28 28 26 23 27 27 26 25 25 24 24 26
45 46 47 46 46 50 50 53 53 53 52 50 46 40 38 35 39 37 39 39 38 38 37 36 33 27 27 20 8 15 18 22 23 25 27 26 25 26 29 29 27 26 24 23 23
46 47 46 48 48 50 48 48 44 43 46 42 40 38 38 39 37 37 39 39 38 33 31 31 24 19 22 26 23 23 23 24 26 27 28 27 27 28 30 31 29 28 27 27 27
46 46 46 48 48 49 48 42 44 45 37 42 39 41 37 37 34 37 39 34 33 29 30 26 20 26 28 28 27 27 25 25 27 29 29 29 29 31 32 32 32 31 29 30 30
46 45 45 47 47 47 45 45 49 47 37 39 39 37 37 37 35 35 37 36 31 29 28 25 25 29 29 27 27 25 24 25 25 29 31 31 28 25 26 28 32 34 33 33 32
45 45 47 49 43 46 44 48 49 48 33 34 36 35 37 39 36 39 39 37 34 29 32 28 30 28 28 28 28 24 28 28 29 32 28 30 22 23 23 25 33 32 32 34 34
46 46 47 45 43 42 45 49 49 45 17 36 36 39 38 37 37 39 42 39 33 32 30 25 29 30 30 28 30 27 33 32 32 33 32 27 23 22 30 33 35 37 28 37 44
47 47 46 44 45 47 48 48 45 25 16 34 35 34 35 37 37 40 39 40 39 34 33 30 34 33 32 32 32 31 31 33 33 31 17 25 24 22 31 36 38 40 42 43 44
47 48 46 45 42 47 47 41 25 22 34 30 32 34 34 32 35 36 34 34 30 20 21 27 31 34 34 31 34 33 32 20 17 15 18 31 25 23 35 37 41 42 42 44 45
46 45 45 45 46 45 40 30 20 29 31 33 32 33 31 34 33 35 34 32 34 31 30 19 17 32 34 32 31 32 35 28 20 16 24 31 23 30 36 37 41 42 43 44 44
45 41 41 43 46 41 34 26 27 30 31 30 33 29 32 33 34 33 33 31 33 32 29 27 22 30 34 35 35 33 32 37 32 29 27 27 32 37 35 35 39 40 41 42 43
39 38 39 44 44 38 31 32 32 35 33 33 27 29 25 30 32 33 31 33 32 34 35 33 28 31 34 37 36 35 37 30 30 22 22 28 29 29 32 33 37 38 40 41 41
39 34 39 44 41 36 29 31 34 37 34 32 28 28 28 29 29 31 30 33 35 36 35 35 33 28 32 32 29 31 30 32 31 28 25 22 28 35 34 34 36 38 39 40 40
36 30 40 43 34 31 31 34 38 36 37 34 31 28 28 29 31 31 30 33 36 37 33 35 32 29 27 31 32 32 30 28 22 21 24 24 29 38 37 37 37 37 38 40 40
34 33 40 39 28 27 33 34 36 33 32 31 30 31 31 29 27 29 32 34 37 36 32 33 27 18 18 20 26 28 30 28 28 25 23 22 26 34 38 38 38 37 38 39 40
33 29 35 36 34 30 31 31 32 34 32 32 32 31 30 29 31 29 30 34 36 35 39 34 28 24 18 21 27 26 27 25 25 19 23 24 24 29 31 34 36 37 37 36 34
33 30 32 27 30 30 31 32 31 31 33 33 31 33 31 27 28 28 31 30 33 37 35 32 26 24 26 26 27 26 26 24 26 25 21 25 26 29 31 32 32 32 30 30 30
33 32 33 30 31 30 32 32 32 32 32 31 31 32 33 29 29 27 31 29 28 30 30 31 25 26 23 28 27 25 25 24 28 28 27 27 27 31 31 30 29 29 30 30 30
38 37 32 29 29 29 30 32 32 34 33 34 33 32 29 32 33 34 33 32 32 29 28 28 26 22 19 23 24 21 23 24 28 29 28 26 28 32 31 30 29 29 30 30 31

GFSSW_sfc_dewp_102.txt.gz
Dewpoint
52 50 49 48 51 52 52 52 52 53 55 58 60 57 53 52 50 47 44 44 46 42 44 40 33 34 34 33 38 39 33 29 31 32 31 33 32 32 28 29 26 30 32 32 32
51 52 49 48 49 48 51 52 51 51 53 56 59 57 54 52 46 43 48 47 47 47 37 32 32 32 31 31 34 36 29 29 34 34 33 33 30 28 26 26 25 28 32 30 31
49 51 51 48 48 49 48 48 50 50 51 53 56 58 54 50 42 42 51 47 46 46 40 34 32 31 28 28 29 35 31 34 34 34 30 29 27 27 25 25 26 26 28 28 30
49 50 49 50 46 44 45 46 48 48 49 52 58 57 54 47 33 44 49 46 46 42 37 33 31 27 25 25 27 24 28 28 28 29 28 25 26 25 26 25 26 27 28 29 29
48 48 48 49 48 44 45 45 46 47 48 50 57 54 49 40 42 48 50 46 38 37 34 31 28 28 26 25 25 24 26 29 29 30 28 27 27 25 25 26 26 27 29 29 29
47 48 48 47 47 46 46 46 46 47 45 51 56 52 46 39 46 45 40 37 37 37 37 34 30 29 28 28 24 29 30 30 29 28 29 27 25 25 24 26 26 26 25 27 27
46 46 48 48 46 46 47 47 48 49 49 51 54 51 45 44 48 45 43 40 38 38 36 37 34 31 30 26 31 30 24 25 24 27 25 27 22 25 24 24 23 23 24 25 27
46 47 47 48 46 46 46 48 49 50 49 51 54 51 42 48 46 39 38 38 39 39 38 38 37 34 31 30 25 26 23 16 18 26 27 22 16 21 23 23 23 24 24 25 27
45 46 47 46 46 49 49 52 51 51 49 53 50 46 42 43 37 36 38 37 38 39 39 37 36 32 30 21 16 20 14 19 22 27 27 25 21 26 27 26 26 26 26 27 27
47 47 46 48 48 48 51 54 53 52 52 50 46 40 37 35 38 37 40 40 38 37 37 34 31 27 26 19 7 14 16 22 22 25 27 26 25 26 28 28 27 29 30 29 26
46 46 47 48 49 49 48 48 44 44 45 41 42 39 37 38 38 38 40 38 36 32 30 30 24 17 21 23 20 22 21 21 25 27 27 27 27 28 30 31 31 32 32 30 27
46 45 48 48 48 49 47 43 44 44 37 43 39 38 37 37 34 36 39 33 32 28 29 26 20 25 28 27 26 25 23 23 26 28 28 29 29 31 32 32 32 31 32 32 30
46 47 47 46 47 46 45 46 49 47 37 39 40 39 38 37 35 35 36 35 30 28 28 24 25 28 28 27 26 23 22 23 24 28 30 31 29 27 25 27 29 36 34 34 32
47 48 47 47 44 46 44 48 49 48 31 33 38 36 37 39 36 39 39 37 32 28 31 27 29 28 27 27 26 25 27 27 28 29 26 33 22 23 25 33 37 37 35 33 35
48 47 49 46 44 43 46 49 49 45 18 36 35 39 39 36 36 37 42 39 32 33 27 24 28 30 29 27 29 27 30 30 31 32 31 26 25 22 29 32 36 38 40 42 45
49 48 45 44 45 47 48 48 44 26 18 32 35 34 34 37 37 39 38 39 38 31 31 29 33 32 30 32 31 31 31 33 33 29 18 23 24 22 32 35 36 40 41 42 45
47 48 46 46 43 47 46 37 24 20 33 30 31 33 33 33 34 36 33 31 28 17 16 25 29 33 34 31 33 32 32 19 13 12 16 29 24 25 34 35 39 40 41 43 45
46 45 45 45 45 43 38 28 18 28 30 33 32 32 28 33 33 34 32 27 32 30 25 22 18 30 34 32 31 32 34 28 17 14 20 29 20 30 35 36 40 41 42 42 42
44 41 40 41 44 41 33 25 22 28 30 29 32 28 29 32 32 31 30 30 32 31 27 28 22 30 34 34 34 32 31 36 30 28 25 23 32 37 36 35 37 39 40 40 41
39 38 38 42 43 38 31 31 29 34 32 32 26 28 24 28 29 30 28 32 32 33 35 33 29 30 33 36 36 34 34 25 28 17 15 22 26 29 33 34 36 37 38 38 40
37 35 39 42 41 36 30 32 33 37 33 31 27 27 26 27 28 28 28 31 34 35 34 35 32 26 30 31 29 30 28 29 29 27 23 22 24 36 35 36 35 37 37 37 39
35 31 41 41 33 30 32 33 38 35 36 34 31 28 28 28 28 28 29 31 35 37 34 35 33 27 26 31 30 30 28 27 22 20 23 25 24 37 38 38 37 36 38 37 39
33 32 39 40 29 27 31 33 35 33 31 31 30 31 31 29 27 30 30 34 36 36 32 33 27 18 15 18 26 27 29 28 28 24 22 20 23 34 38 38 38 38 38 39 40
33 29 35 35 33 30 29 30 30 34 32 32 32 30 30 28 30 28 29 33 37 36 39 35 28 24 16 18 25 25 26 26 26 18 22 23 23 28 32 35 37 38 37 36 37
33 30 32 27 30 29 30 31 30 31 33 33 31 32 31 26 27 26 30 30 34 36 34 32 26 24 26 26 26 26 26 26 25 24 21 22 25 28 31 33 33 34 32 30 30
32 32 32 30 30 29 31 31 32 32 32 31 30 32 31 28 28 27 29 28 27 29 30 31 24 26 22 27 27 26 26 25 24 28 26 27 27 30 30 29 30 31 30 30 30
37 36 31 29 28 28 30 31 31 33 32 34 32 31 29 31 33 34 33 32 31 28 28 28 26 22 20 23 23 21 23 25 25 28 27 26 27 31 30 30 30 29 30 30 31

GFSSW_sfc_dewp_105.txt.gz
Dewpoint
52 52 51 50 49 51 51 52 52 52 55 57 60 58 55 53 50 47 42 44 45 43 44 37 35 35 35 36 40 39 28 27 29 32 29 33 32 32 29 28 27 28 33 33 31
50 52 51 51 49 49 49 50 51 52 53 55 58 58 55 51 44 43 49 49 47 46 35 34 33 32 31 33 37 36 25 25 33 34 33 34 31 28 26 26 26 27 29 31 31
49 49 50 50 51 48 48 46 48 50 50 55 57 57 54 49 41 42 52 49 47 45 38 34 33 31 29 30 30 36 28 33 34 34 28 27 27 27 25 25 26 25 28 28 30
48 49 48 49 50 49 45 44 47 48 49 52 58 57 52 47 35 44 49 47 46 40 37 33 31 28 27 26 27 25 28 28 28 27 28 26 25 24 26 23 25 27 28 29 29
47 48 47 48 49 52 45 45 45 46 47 51 57 54 51 43 43 48 48 42 38 38 35 31 29 29 26 26 26 25 27 28 29 30 29 28 28 25 24 26 26 27 28 28 29
46 47 46 48 49 51 46 46 46 47 45 54 55 54 47 41 48 41 38 37 38 38 36 34 30 30 28 28 25 29 29 29 29 27 28 27 25 25 21 25 26 27 27 26 27
46 47 47 46 48 49 46 46 46 50 49 55 53 51 46 45 46 40 40 39 39 38 36 37 34 31 29 28 31 29 22 24 23 27 25 27 23 25 24 25 24 23 23 26 26
46 47 47 46 47 45 46 46 45 50 49 54 53 49 45 50 49 37 38 38 40 39 39 39 37 35 32 30 23 23 20 13 19 26 27 23 19 20 24 24 26 26 27 28 28
47 47 46 47 47 48 49 50 49 50 52 54 48 46 44 48 37 38 38 37 39 40 39 35 36 32 29 21 18 20 13 18 21 26 27 25 23 24 27 28 28 29 29 29 31
47 47 48 48 49 51 52 53 51 52 51 48 45 40 42 38 37 39 40 39 37 37 37 34 31 28 26 23 12 15 18 21 22 24 27 26 26 28 30 30 30 30 31 31 32
46 47 48 48 48 50 48 48 42 42 46 42 40 39 40 38 39 38 39 37 36 34 30 31 26 21 23 22 19 22 23 22 24 26 27 27 27 29 31 33 32 31 31 32 34
47 47 47 47 49 49 47 43 44 44 38 42 38 36 37 37 34 36 38 33 32 29 30 27 24 25 28 27 27 26 25 24 25 27 29 29 29 31 33 33 32 31 33 37 34
48 48 46 47 47 47 46 46 49 47 36 39 40 37 38 37 35 35 37 35 30 29 28 25 26 28 28 28 27 25 25 24 26 27 31 31 30 27 26 29 34 38 40 41 39
49 48 47 48 44 46 44 48 49 48 31 34 36 36 38 38 36 40 40 37 32 30 32 29 30 28 27 27 27 25 27 27 28 30 27 31 23 25 25 29 35 38 40 41 42
48 48 49 47 44 43 46 48 48 44 16 36 36 39 39 35 35 35 41 38 32 31 27 25 29 30 30 28 28 27 30 29 30 31 31 28 27 25 28 31 33 37 40 43 45
49 48 47 44 45 46 48 46 42 23 18 32 35 34 35 36 37 38 37 38 38 30 29 28 33 32 30 32 30 32 33 33 32 30 21 22 26 25 30 33 35 39 41 42 44
48 48 45 45 40 45 44 35 24 22 33 29 31 34 31 33 33 35 33 30 27 18 17 25 29 33 33 31 33 33 33 24 17 16 19 27 26 27 34 35 36 39 40 41 42
47 45 44 44 44 43 37 29 18 29 29 33 32 31 30 33 32 34 32 28 32 29 23 19 17 30 34 32 32 32 33 28 20 18 21 30 25 27 37 37 38 39 39 40 40
45 40 40 40 44 40 33 26 22 28 30 30 32 28 29 31 31 31 31 29 31 30 24 24 22 30 34 34 34 34 30 35 31 27 25 23 28 35 37 35 37 38 38 37 40
39 37 37 41 42 37 31 30 29 33 32 31 26 27 25 29 29 29 29 31 32 32 34 32 26 30 33 36 35 35 35 25 29 21 18 21 25 29 34 35 36 36 36 36 39
36 35 38 42 40 36 26 29 32 36 33 30 27 27 26 28 28 28 28 31 33 34 34 35 32 26 30 32 30 33 30 31 29 28 22 21 23 35 36 37 36 36 36 37 39
35 31 40 41 33 29 32 33 38 34 36 34 31 28 27 29 28 28 28 31 34 36 33 35 34 27 27 30 30 32 29 26 23 21 24 24 24 36 38 38 37 37 37 39 40
33 32 39 39 28 25 30 32 34 32 32 31 30 31 29 29 26 29 30 34 36 35 32 34 29 24 15 18 27 28 30 28 27 25 23 22 22 35 38 38 38 38 38 38 39
33 27 34 35 32 29 28 29 30 33 32 33 32 31 29 28 30 28 29 33 36 36 39 37 29 25 19 17 23 25 27 27 26 21 22 24 24 29 34 35 37 37 38 38 39
33 30 30 26 30 29 29 30 29 30 32 32 30 32 30 26 26 26 29 30 35 36 35 32 27 25 27 28 28 27 26 26 25 24 24 23 25 27 30 34 35 36 36 32 30
32 32 31 29 29 27 31 30 30 31 31 29 30 32 31 28 28 27 29 29 27 30 31 31 26 26 23 26 27 26 27 27 26 26 26 26 27 29 31 33 33 33 32 30 30
35 34 30 29 28 27 28 29 31 32 32 33 31 30 29 29 33 33 32 31 31 30 28 28 27 23 21 23 22 17 20 25 26 26 26 26 28 31 31 31 32 31 30 30 30

GFSSW_sfc_dewp_108.txt.gz
Dewpoint
50 51 51 51 50 51 52 52 52 53 55 57 60 58 55 54 51 46 38 44 41 44 43 35 38 38 40 40 41 40 21 21 25 25 26 33 30 32 30 27 26 27 29 31 29
48 49 50 50 51 49 49 50 50 52 54 56 60 58 55 52 42 42 50 49 48 44 35 33 38 36 34 36 39 31 21 18 28 30 29 32 30 27 23 21 20 20 22 24 28
49 49 49 49 52 51 48 47 47 49 51 55 59 58 53 47 40 43 53 49 48 41 34 33 32 30 31 33 34 34 24 29 33 34 31 28 23 25 21 16 16 15 15 19 24
48 48 48 49 51 52 46 45 47 48 49 54 58 55 52 46 36 46 49 47 45 38 35 32 27 25 29 26 28 24 30 30 29 28 27 25 24 21 21 17 17 18 21 24 24
48 48 48 49 48 49 50 45 44 46 46 56 56 53 50 43 44 46 46 41 36 36 33 31 25 26 23 25 25 22 25 26 27 28 26 25 25 22 19 19 18 20 23 24 24
48 48 47 48 48 50 50 46 47 46 45 56 56 55 48 41 47 39 36 35 36 35 33 30 27 28 26 25 23 26 27 24 26 23 25 24 22 24 18 21 22 23 25 25 27
47 48 46 48 47 50 47 46 48 48 52 56 55 53 45 44 45 38 38 37 37 34 33 34 31 27 26 26 29 26 18 20 22 24 23 26 23 24 22 23 25 29 31 32 31
48 47 46 47 48 49 46 46 46 49 52 55 56 51 41 49 45 36 37 38 38 38 36 36 34 33 29 27 20 18 17 10 19 25 27 26 18 21 21 26 29 31 29 29 30
48 47 47 47 48 48 48 48 48 50 53 54 50 45 39 46 36 37 36 36 37 37 36 34 34 30 26 21 19 16 8 12 16 26 27 26 24 26 27 29 30 30 28 30 31
47 48 48 48 50 52 50 50 51 52 51 49 48 41 43 38 37 38 38 37 34 35 34 33 31 28 26 30 25 9 13 17 19 23 27 28 27 29 31 31 31 29 30 31 33
48 48 48 50 50 51 51 49 43 42 44 41 41 40 40 38 38 37 38 34 33 32 27 30 35 28 25 21 22 23 23 23 22 26 29 29 29 30 32 31 29 32 33 35 37
48 47 48 50 50 50 48 42 44 44 38 40 39 38 36 36 33 35 37 31 31 29 29 30 29 26 27 28 27 26 26 25 26 27 30 30 30 31 31 32 34 35 37 39 39
48 47 47 48 48 48 46 46 49 47 38 39 37 36 36 36 34 35 37 33 30 30 29 26 26 28 27 28 28 28 27 26 29 30 31 31 29 27 27 29 35 35 38 40 40
49 48 47 46 45 46 45 48 49 48 36 35 35 34 36 36 32 38 39 36 31 31 30 29 29 27 27 27 29 27 28 28 30 32 29 30 26 25 25 27 33 35 38 40 41
48 49 49 47 45 44 46 48 48 46 24 37 35 38 38 33 33 32 40 35 29 29 29 28 28 29 30 31 29 29 30 30 32 32 30 28 28 25 26 29 33 35 38 41 42
49 48 46 46 45 45 47 46 44 35 22 32 35 33 32 34 35 35 35 37 36 30 30 29 33 31 30 31 30 31 33 34 32 30 26 28 27 26 28 33 36 36 39 40 41
48 47 45 45 41 46 44 38 35 26 32 29 29 32 31 30 32 32 32 31 31 32 32 28 28 32 32 32 34 33 33 30 28 28 26 28 28 31 30 37 36 39 38 39 40
48 44 44 42 45 45 41 36 26 29 28 32 30 31 30 32 31 33 31 30 31 29 31 31 29 30 34 33 31 31 31 28 24 25 25 30 28 31 36 36 37 39 39 38 39
44 44 43 42 46 44 37 31 30 28 30 30 31 28 31 31 30 30 30 29 30 30 31 32 32 30 33 33 34 32 31 34 31 30 26 29 34 32 36 35 36 36 38 38 39
45 42 41 43 44 43 38 31 31 32 31 31 25 27 26 29 29 29 31 31 31 32 33 32 31 30 33 35 35 34 36 28 31 24 22 24 25 31 34 36 37 37 37 37 39
40 40 43 44 44 39 34 33 31 34 33 29 28 27 27 28 29 30 30 32 32 33 33 33 30 28 30 31 31 34 32 32 28 27 23 18 25 37 36 36 36 37 37 38 39
41 41 43 44 41 39 37 33 37 31 36 34 30 29 28 29 30 30 29 31 34 34 30 34 31 28 27 30 30 31 28 27 22 21 25 24 25 36 36 36 36 38 38 39 40
40 41 44 43 38 37 34 34 34 33 32 32 31 31 30 29 27 31 31 34 36 34 32 34 30 28 19 24 28 28 29 29 27 27 25 22 19 35 37 36 37 38 39 39 39
36 40 40 40 37 32 31 31 31 34 33 33 31 31 30 29 31 29 30 34 36 35 38 37 30 28 19 17 22 24 25 29 27 26 20 22 19 26 34 35 36 36 36 36 36
36 36 35 37 33 33 33 32 30 30 33 33 31 31 29 27 28 28 29 30 35 37 37 35 31 31 30 28 28 28 27 26 27 26 22 19 23 23 27 33 34 35 36 36 35
36 34 33 32 31 31 33 32 30 31 31 29 30 31 31 28 27 25 28 29 26 34 35 34 32 29 28 26 26 26 26 26 26 26 25 24 23 25 27 30 33 35 35 35 32
39 36 32 31 31 29 30 31 31 33 32 33 32 30 29 30 32 33 33 32 31 30 30 30 31 30 24 24 24 19 19 22 25 26 26 23 24 25 31 32 33 34 35 34 31

GFSSW_sfc_dewp_111.txt.gz
Dewpoint
51 51 50 50 52 51 52 53 53 54 56 58 60 58 56 54 51 45 36 43 43 45 46 39 38 39 41 42 40 36 23 20 21 19 26 30 27 30 29 25 21 23 25 26 26
51 50 49 51 52 49 50 49 50 51 54 57 59 58 55 54 39 42 52 48 46 44 33 35 34 35 33 37 37 29 23 19 25 27 27 29 26 24 21 17 17 16 17 18 21
49 49 48 51 52 51 50 47 48 49 51 56 60 58 53 49 40 43 51 48 45 40 32 33 35 30 30 31 31 28 24 25 29 32 29 25 20 22 18 14 11 12 15 18 21
49 49 49 51 52 51 50 45 47 48 50 54 57 54 52 47 36 45 51 48 44 36 31 31 30 24 28 25 27 25 28 26 29 28 25 22 22 18 17 17 15 17 18 21 22
49 48 49 50 51 50 48 45 44 46 48 56 55 53 50 44 43 43 42 40 36 34 30 26 22 22 23 23 22 19 21 23 24 25 22 20 21 19 18 17 18 20 24 25 26
48 47 48 48 49 50 49 46 47 45 47 56 54 54 48 40 45 37 35 34 35 32 32 27 22 24 22 21 22 22 24 21 22 20 22 22 20 23 17 20 22 26 28 30 31
47 47 48 47 49 50 48 46 49 47 50 56 54 48 44 44 42 35 35 35 35 32 31 30 27 25 24 23 24 21 18 20 21 22 22 26 25 23 22 21 25 26 29 32 30
47 47 47 46 47 48 46 45 48 51 56 55 51 46 40 45 46 34 34 34 35 36 35 33 31 30 25 22 18 18 15 15 20 24 26 27 16 21 20 22 26 28 30 29 29
48 48 49 48 47 47 46 46 48 53 55 53 47 43 38 46 36 35 34 33 34 33 32 31 31 26 25 20 18 14 12 10 21 25 26 27 22 22 26 28 29 30 29 28 29
49 48 49 48 49 50 49 50 52 52 51 49 48 40 42 38 37 36 36 35 32 33 31 29 28 27 22 30 31 14 8 12 13 23 26 26 25 26 28 30 30 29 28 29 33
48 49 50 51 53 51 50 49 42 41 46 42 42 41 41 39 37 35 36 33 32 30 25 28 37 32 23 19 21 19 18 18 17 26 29 27 27 28 30 31 28 30 31 34 38
48 49 50 51 50 50 49 42 43 43 38 43 42 41 39 36 32 35 35 30 30 27 27 30 31 25 27 27 26 25 23 22 26 28 30 30 30 30 31 30 30 32 34 37 39
47 48 49 49 50 49 45 45 48 47 38 39 39 36 35 35 34 35 36 32 29 28 26 27 26 28 26 27 28 26 28 27 30 31 31 30 29 28 28 28 30 32 36 40 41
49 48 47 46 47 47 44 47 48 47 37 34 34 34 35 35 32 36 38 35 31 29 30 29 28 26 26 26 28 28 28 29 31 32 30 29 27 25 25 26 28 34 36 40 41
49 50 48 47 44 45 45 48 47 46 28 34 34 38 35 32 33 32 38 33 29 28 30 29 28 28 29 32 29 30 31 32 32 31 30 28 30 24 26 26 29 35 37 39 41
48 48 47 45 45 45 47 45 44 36 24 31 33 32 30 32 33 33 33 34 33 30 30 29 32 31 30 31 30 32 34 33 31 30 30 29 28 22 27 30 34 36 38 39 40
48 47 46 44 42 46 45 40 36 28 30 28 28 30 29 29 30 31 31 32 32 32 32 28 29 32 32 33 35 35 34 33 30 31 28 27 30 30 29 34 35 36 38 38 40
48 46 44 42 45 46 42 35 28 28 28 30 29 30 29 30 30 31 29 31 31 28 32 33 30 30 33 33 32 30 31 29 23 25 26 30 29 31 34 35 36 36 37 38 39
45 44 44 44 46 45 37 34 31 28 29 28 29 27 29 29 29 30 29 29 30 30 31 34 33 30 32 32 34 31 30 32 30 28 26 28 34 33 33 32 35 35 37 38 38
43 42 42 44 45 44 38 32 31 30 31 30 23 26 24 27 28 28 29 31 30 31 33 31 32 29 33 35 35 34 33 27 31 22 21 23 25 30 33 37 34 35 36 37 39
42 38 44 45 46 38 38 32 31 31 32 29 26 25 26 28 28 28 28 30 31 31 31 30 30 29 29 31 31 33 31 30 26 24 21 15 23 37 36 36 35 35 36 39 39
44 42 45 45 42 38 37 31 35 32 34 32 30 29 28 29 28 27 27 29 32 32 29 31 29 28 26 29 32 31 29 26 22 18 23 21 22 34 35 36 36 36 37 39 40
36 39 46 45 39 37 34 33 34 32 32 32 30 31 30 28 26 28 29 32 34 33 31 32 29 27 24 24 27 27 27 27 27 25 22 17 15 34 35 35 36 36 38 39 39
36 41 37 37 37 31 31 31 31 35 32 33 31 31 29 28 30 28 28 33 34 34 39 36 30 27 21 19 23 22 23 27 26 26 21 19 18 21 28 33 34 36 37 37 36
38 36 36 38 32 32 32 31 30 30 33 32 30 31 29 25 26 25 27 29 34 38 36 35 30 30 28 27 26 25 25 24 24 26 24 21 17 16 19 24 30 34 35 35 35
36 34 34 32 32 31 31 30 29 30 31 29 30 30 29 28 27 26 27 27 25 33 34 35 31 29 30 25 23 22 23 24 24 24 24 24 23 23 23 23 26 28 33 34 34
40 37 33 32 30 28 27 29 30 32 33 32 30 29 28 28 30 30 30 30 29 28 31 31 31 30 24 22 24 21 19 21 22 23 23 21 21 22 24 28 30 31 33 33 34

GFSSW_sfc_dewp_114.txt.gz
Dewpoint
53 52 53 52 51 52 53 53 53 54 55 58 59 58 56 55 52 46 44 46 45 47 49 39 38 42 44 45 43 40 31 24 24 22 29 30 28 30 29 26 22 21 22 22 21
51 51 51 52 50 51 50 50 50 51 53 56 58 59 56 56 43 46 50 50 49 48 39 37 35 38 37 40 39 34 29 27 28 30 29 29 25 22 21 18 17 19 22 20 22
49 48 49 52 51 50 49 49 49 50 52 56 58 59 53 51 43 46 52 50 47 45 36 36 34 34 34 34 35 32 29 28 29 32 29 26 21 23 20 18 14 14 17 19 22
49 50 51 52 51 49 47 47 48 50 51 57 57 54 54 48 39 46 50 49 46 42 36 38 33 30 31 29 30 27 28 26 32 30 28 24 22 20 19 19 18 17 21 22 23
48 50 50 51 49 48 48 47 47 47 51 57 55 54 53 43 40 38 44 39 36 39 35 32 27 30 27 24 24 25 24 25 26 28 23 20 21 20 19 20 19 21 26 27 29
48 49 49 49 49 49 48 48 50 47 56 56 55 55 48 39 44 35 35 35 34 37 35 31 27 28 23 22 25 23 28 24 25 24 23 24 23 24 19 20 22 25 28 30 32
48 48 47 49 50 50 48 48 50 47 55 55 55 48 43 41 45 38 35 36 37 35 33 35 32 30 26 25 27 22 23 23 23 26 26 28 26 25 23 22 23 25 27 32 32
48 48 47 47 47 48 48 49 53 55 55 54 51 44 39 44 45 40 33 35 36 37 37 37 35 32 28 24 20 19 18 18 23 26 29 28 19 25 21 20 25 27 29 32 31
49 49 48 48 48 48 48 51 53 55 53 50 46 42 38 45 36 35 33 32 34 34 34 30 34 29 28 23 20 15 15 12 23 28 29 27 24 26 26 26 27 30 30 29 32
50 50 49 48 49 49 51 53 53 52 49 47 45 38 40 36 37 35 37 35 35 36 36 34 31 29 26 35 27 20 10 14 15 27 27 26 26 27 28 28 30 31 29 32 37
51 52 52 51 51 51 51 49 42 42 45 42 40 39 40 40 38 35 36 35 35 34 28 31 38 32 23 23 24 22 20 19 20 28 29 28 28 29 31 31 30 30 32 37 38
50 50 51 51 51 50 48 42 42 43 38 43 42 42 42 40 33 36 38 34 33 29 30 33 29 26 28 28 28 27 24 26 29 30 31 30 30 31 32 31 31 32 36 39 40
49 50 50 50 51 49 46 46 49 47 37 40 41 39 38 36 34 35 38 34 31 28 30 30 27 27 26 28 29 27 27 28 29 32 33 31 30 29 30 29 31 33 39 40 40
49 48 48 51 46 49 45 48 50 48 35 35 37 35 35 37 32 36 38 37 33 30 31 29 28 26 28 30 30 30 29 30 32 31 27 30 23 26 27 28 29 35 37 39 40
50 50 51 48 46 45 46 48 48 46 22 34 33 38 37 33 32 34 38 36 30 28 32 29 29 30 31 32 30 32 33 32 33 30 28 28 25 27 25 25 33 35 37 39 39
49 49 50 47 47 46 47 46 45 35 21 30 32 31 31 33 32 33 35 36 35 32 32 30 33 32 32 32 31 32 34 35 32 30 25 28 26 24 27 30 34 36 37 39 39
47 47 47 44 44 48 47 43 34 26 29 27 28 29 29 29 30 32 32 32 32 31 30 30 30 33 33 33 35 35 33 23 22 28 22 28 24 28 29 35 35 35 36 38 39
48 47 45 42 46 47 45 38 25 28 28 29 30 29 28 30 31 31 32 32 31 29 32 28 21 32 34 34 32 31 30 21 16 18 21 30 21 30 34 35 37 36 37 37 38
48 47 46 46 47 47 40 31 29 29 28 28 29 29 29 28 30 31 30 30 30 30 29 29 29 32 33 33 35 32 29 31 25 26 21 25 30 33 34 33 35 35 36 36 38
47 45 44 46 47 45 40 32 32 31 29 30 24 26 26 28 29 30 30 32 31 33 33 31 28 31 33 36 35 35 33 27 29 15 17 21 26 28 33 33 36 34 35 36 39
46 42 46 47 47 42 35 32 31 31 33 30 27 25 28 28 29 28 28 30 31 31 31 30 30 29 31 32 33 33 32 30 27 24 19 17 20 37 34 37 36 35 36 37 39
47 43 47 47 43 39 37 33 35 32 35 33 32 30 28 29 28 27 27 30 32 33 31 33 30 27 28 31 32 32 30 29 23 19 23 21 22 34 35 36 37 36 37 38 39
41 40 49 47 40 38 35 34 34 33 33 33 32 32 31 29 27 28 29 33 34 33 33 32 29 22 24 25 28 27 28 30 27 26 23 19 16 35 35 36 37 36 38 38 39
42 39 42 41 38 32 32 32 32 37 34 33 32 32 30 29 30 29 28 35 34 35 40 37 30 26 22 22 26 25 25 26 27 24 23 21 20 21 28 34 34 36 37 38 38
41 37 38 39 34 33 34 32 31 32 34 34 32 31 30 26 26 26 28 31 35 39 36 34 28 28 29 28 28 27 26 25 24 25 24 22 22 23 24 24 25 34 36 36 36
40 37 36 33 33 32 33 32 31 32 32 30 31 31 30 28 27 27 27 27 26 35 34 35 29 29 25 27 27 25 25 25 25 24 24 24 23 25 25 25 27 28 31 35 35
41 39 36 35 31 29 30 31 32 33 33 33 31 30 29 30 31 30 30 30 29 28 32 31 30 26 23 27 26 23 22 23 23 23 23 22 24 24 24 27 29 31 31 33 34

GFSSW_sfc_dewp_117.txt.gz
Dewpoint
53 55 55 55 53 54 54 53 53 54 57 59 60 58 57 55 52 48 47 48 47 50 50 43 39 42 43 42 40 35 26 24 26 28 29 29 28 28 27 25 24 21 20 22 25
51 51 54 54 54 52 51 50 51 52 55 58 60 58 56 56 48 48 51 51 48 49 43 38 36 40 36 38 36 33 28 28 31 29 28 27 23 21 20 19 18 18 18 20 22
50 48 51 53 53 49 49 50 51 51 56 56 60 58 55 51 46 45 53 52 49 47 42 36 36 35 32 33 32 28 26 29 32 30 28 26 22 22 20 17 17 17 17 20 22
50 51 52 52 51 49 48 47 49 51 57 58 57 54 55 49 39 43 47 47 48 43 38 35 30 29 29 27 28 26 26 28 32 29 27 25 22 19 20 19 21 22 25 25 24
50 51 52 51 50 50 49 49 49 52 57 56 55 56 53 40 39 45 45 41 39 39 34 30 29 27 26 23 21 23 24 24 27 27 24 22 21 19 20 20 21 22 27 26 28
49 49 49 49 50 50 49 50 49 56 56 56 56 52 46 35 41 45 40 36 36 37 34 33 27 27 22 22 23 24 24 24 24 24 24 25 24 25 20 20 22 24 26 29 32
48 48 49 51 50 49 49 52 49 56 56 56 52 45 42 40 45 44 41 37 39 37 34 36 33 28 25 24 25 21 20 23 24 25 26 30 23 24 22 22 22 23 25 30 32
49 48 48 49 49 49 51 53 54 55 55 55 50 45 39 44 45 42 36 35 35 35 37 34 35 29 25 24 18 19 16 17 22 26 29 23 5 23 25 22 20 23 28 32 36
48 47 48 49 49 50 53 55 55 56 54 51 45 44 37 46 39 36 35 34 36 33 33 30 31 25 26 22 20 16 15 16 23 27 28 25 18 25 27 26 25 29 30 35 40
52 50 50 49 50 52 52 52 53 52 51 46 43 39 41 37 41 38 36 36 35 36 34 30 32 27 27 31 20 18 16 14 18 26 28 26 26 27 28 28 29 33 34 38 39
53 52 51 51 52 51 49 48 43 42 43 40 38 38 39 42 42 38 38 37 36 32 23 30 28 21 25 25 24 23 21 20 24 28 30 27 28 29 31 31 30 31 37 39 40
52 53 52 52 50 49 48 42 42 43 38 42 41 41 42 42 36 38 41 34 33 25 28 28 24 27 29 28 28 26 24 27 28 31 31 31 30 31 33 33 30 35 39 39 39
50 52 51 51 51 48 46 47 50 48 39 40 43 40 39 38 36 36 40 36 30 29 29 26 27 29 28 28 30 27 26 27 28 32 33 31 28 30 31 30 32 39 40 39 39
50 50 50 50 47 49 45 49 51 49 31 34 35 35 38 40 33 37 38 37 32 30 30 27 28 28 27 28 30 27 30 31 33 28 22 30 19 28 28 27 31 36 38 37 38
50 51 52 49 45 45 46 49 48 45 19 35 35 39 38 35 32 34 38 35 30 30 30 27 28 29 30 28 30 31 33 32 33 28 25 26 22 26 27 27 33 35 36 37 38
49 50 50 47 46 46 46 45 44 29 19 31 35 33 34 34 34 36 35 36 35 33 31 30 33 32 32 32 31 33 34 34 33 30 23 24 25 23 25 27 34 35 36 38 39
48 48 46 44 44 46 46 42 25 20 30 29 29 31 30 31 31 33 33 32 29 15 21 30 30 33 33 33 34 34 31 17 22 22 19 28 20 26 29 35 34 35 34 34 37
49 48 48 42 45 46 43 30 19 25 29 31 31 31 29 31 31 31 32 28 30 30 28 20 12 31 34 33 31 33 29 17 7 13 19 25 19 24 33 35 36 36 36 35 36
48 44 43 45 46 45 36 24 21 27 29 29 31 28 28 30 30 30 29 29 30 30 26 22 24 32 33 33 34 32 26 31 21 20 15 19 25 31 34 35 35 35 35 33 34
44 43 42 45 45 43 32 28 28 31 30 31 25 25 25 28 28 29 29 31 31 32 33 31 24 31 33 35 35 34 34 25 25 12 14 17 21 25 32 32 35 34 35 35 36
42 39 43 46 45 36 27 27 31 32 35 31 27 25 28 28 28 27 28 30 31 32 31 30 29 28 32 32 31 32 30 31 27 24 18 17 18 31 33 34 33 35 35 36 36
42 33 44 46 35 35 29 31 35 33 35 35 32 30 28 28 27 27 27 30 32 32 31 32 30 25 27 30 34 33 31 29 22 19 22 21 20 30 35 35 37 36 36 37 38
36 36 45 44 30 27 33 35 35 33 33 33 32 32 30 28 26 27 29 33 34 33 32 32 28 18 22 24 28 27 28 30 28 26 22 18 16 33 35 36 37 36 37 37 38
38 31 39 37 35 31 31 31 32 35 34 33 32 31 30 28 29 28 29 34 33 34 39 37 30 23 11 17 26 26 26 27 28 21 21 22 20 21 28 31 34 36 37 37 38
38 32 35 30 32 31 33 31 31 32 34 33 31 31 30 27 26 27 28 33 34 39 35 34 28 27 29 29 29 28 28 27 25 25 24 20 21 22 24 24 25 31 36 37 38
35 35 34 31 32 31 32 30 30 31 31 30 30 31 29 28 28 27 27 27 26 35 34 35 27 27 23 28 28 26 26 27 27 26 25 24 23 25 26 25 25 26 29 36 36
38 37 34 33 30 27 29 30 31 31 32 32 32 30 29 30 32 31 31 29 29 33 33 32 28 24 21 25 25 21 22 22 24 25 25 23 24 25 25 25 26 28 30 31 36